Darstellungsparameter: Aktuell verwendete Einstellungen:
Skalierung der Graphiken ... ?
xyx+y,   Skalierungsfaktor:      Skalierung: Modus: x, Faktor: 1
Darstellungszeitraum ... ?
Vom - - bis: - -   Zeitraum: 14.05.2010 - 13.05.2020
Min/Max/Avg-Anzeige ... ?
Zeige MMA aktuell
Zeige MMA Monat
Zeige MMA alles
Zeige --A aktuell
Zeige --A Monat
Zeige --A alles
Keine MMA-Anzeige
MMA:
Average (ber die Originaldaten)
MMA-Basis: 14.05.2010 - 13.05.2020
Quicknavigation für Darstellung... ?
Tage:      1T, 2T, 3T, 5T -1T -2T -3T -5T +1T +2T +3T +5T
Wochen: 1W, 2W, 3W -1W -2W -3W +1W +2W +3W
Monate: 1M, 3M, 6M -1M -3M -6M +1M +3M +6M
Jahre:    1J, 3J, 5J, 10J -1J -3J -5J -10J +1J +3J +5J +10J
Nutze für die Darstellung ... ?
Originaldaten oder ...
Mittelwerte Minima Maxima auf...
Stundenbasis Tagesbasis Wochenbasis
Monatsbasis Jahresbasis      Datenbasis: Mittelwerte auf Stundenbasis
Darstellen als:
Statistik (Auto) Statistik J:M      Darstellung:
Zur Graphik,    zurück zur Übersicht aller Sensoren.
 
Tabellarische Datenbersicht: ?
 
Sensor: Nr:Datum:Temp:Abs-Feuchte:Windchill:Wind:
Aussen-T/F 1 14-05-2010 00:00:00 6.96 C 7.16 g/m*3 6.96 C 0 km/h
2 14-05-2010 01:00:00 7.04 C 7.24 g/m*3 7.04 C 0 km/h
3 14-05-2010 02:00:00 7 C 7.24 g/m*3 7 C 0 km/h
4 14-05-2010 03:00:00 6.98 C 7.27 g/m*3 6.98 C 0 km/h
5 14-05-2010 04:00:00 6.94 C 7.26 g/m*3 6.94 C 0 km/h
6 14-05-2010 05:00:00 6.88 C 7.26 g/m*3 6.88 C 0 km/h
7 14-05-2010 06:00:00 7.1 C 7.33 g/m*3 7.1 C 0 km/h
8 14-05-2010 07:00:00 7.4 C 7.38 g/m*3 7.4 C 0 km/h
9 14-05-2010 08:00:00 7.92 C 7.35 g/m*3 7.92 C 0 km/h
10 14-05-2010 09:00:00 8.18 C 7.18 g/m*3 8.18 C 0 km/h
11 14-05-2010 10:00:00 9.58 C 7.19 g/m*3 9.58 C 0 km/h
12 14-05-2010 11:00:00 10.38 C 6.76 g/m*3 10.38 C 0 km/h
13 14-05-2010 12:00:00 9.16 C 6.89 g/m*3 9.16 C 0 km/h
14 14-05-2010 13:00:00 9.46 C 7.59 g/m*3 9.46 C 0 km/h
15 14-05-2010 14:00:00 9.58 C 7.74 g/m*3 9.58 C 0 km/h
16 14-05-2010 15:00:00 11.86 C 7.61 g/m*3 11.86 C 0 km/h
17 14-05-2010 16:00:00 12.98 C 6.77 g/m*3 12.98 C 0 km/h
18 14-05-2010 17:00:00 11.54 C 6.61 g/m*3 11.54 C 0 km/h
19 14-05-2010 18:00:00 11.56 C 6.76 g/m*3 11.56 C 0 km/h
20 14-05-2010 19:00:00 10.46 C 7 g/m*3 10.46 C 0 km/h
21 14-05-2010 20:00:00 9.94 C 6.93 g/m*3 9.94 C 0 km/h
22 14-05-2010 21:00:00 9.14 C 6.87 g/m*3 9.14 C 0 km/h
23 14-05-2010 22:00:00 9.08 C 7.07 g/m*3 9.08 C 0 km/h
24 14-05-2010 23:00:00 8.24 C 7.17 g/m*3 8.24 C 0 km/h
25 15-05-2010 00:00:00 7.9 C 7.2 g/m*3 7.9 C 0 km/h
Sensor: Nr:Datum:Temp:Abs-Feuchte:Windchill:Wind:
Aussen-T/F 26 15-05-2010 01:00:00 7.7 C 7.14 g/m*3 7.7 C 0 km/h
27 15-05-2010 02:00:00 7.64 C 7.17 g/m*3 7.64 C 0 km/h
28 15-05-2010 03:00:00 7.6 C 7.22 g/m*3 7.6 C 0 km/h
29 15-05-2010 04:00:00 7.6 C 7.25 g/m*3 7.6 C 0 km/h
30 15-05-2010 05:00:00 7.26 C 7.17 g/m*3 7.26 C 0 km/h
31 15-05-2010 06:00:00 7.1 C 7.14 g/m*3 7.1 C 0 km/h
32 15-05-2010 07:00:00 7.6 C 7.4 g/m*3 7.6 C 0 km/h
33 15-05-2010 08:00:00 8.48 C 7.26 g/m*3 8.48 C 0 km/h
34 15-05-2010 09:00:00 9.48 C 6.82 g/m*3 9.48 C 0 km/h
35 15-05-2010 10:00:00 10.8 C 6.42 g/m*3 10.8 C 0 km/h
36 15-05-2010 11:00:00 11.2 C 6.12 g/m*3 11.2 C 0 km/h
37 15-05-2010 12:00:00 11.64 C 5.44 g/m*3 11.64 C 0 km/h
38 15-05-2010 13:00:00 12.06 C 4.84 g/m*3 12.06 C 0 km/h
39 15-05-2010 14:00:00 14.26 C 4.19 g/m*3 14.26 C 0 km/h
40 15-05-2010 15:00:00 15.5 C 3.01 g/m*3 15.5 C 0 km/h
41 15-05-2010 16:00:00 14.78 C 2.76 g/m*3 14.78 C 0 km/h
42 15-05-2010 17:00:00 14 C 3.16 g/m*3 14 C 0 km/h
43 15-05-2010 18:00:00 13.82 C 3.46 g/m*3 13.82 C 0 km/h
44 15-05-2010 19:00:00 14.58 C 3.4 g/m*3 14.58 C 0 km/h
45 15-05-2010 20:00:00 12.5 C 4.49 g/m*3 12.5 C 0 km/h
46 15-05-2010 21:00:00 10.98 C 4.68 g/m*3 10.98 C 0 km/h
47 15-05-2010 22:00:00 11.06 C 4.82 g/m*3 11.06 C 0 km/h
48 15-05-2010 23:00:00 10.84 C 4.97 g/m*3 10.84 C 0 km/h
49 16-05-2010 00:00:00 10.1 C 5.33 g/m*3 10.1 C 0 km/h
50 16-05-2010 01:00:00 9.34 C 5.68 g/m*3 9.34 C 0 km/h
Sensor: Nr:Datum:Temp:Abs-Feuchte:Windchill:Wind:
Aussen-T/F 51 16-05-2010 02:00:00 8.04 C 5.88 g/m*3 8.04 C 0 km/h
52 16-05-2010 03:00:00 7.48 C 5.9 g/m*3 7.48 C 0 km/h
53 16-05-2010 04:00:00 7.6 C 5.95 g/m*3 7.6 C 0 km/h
54 16-05-2010 05:00:00 7.3 C 5.93 g/m*3 7.3 C 0 km/h
55 16-05-2010 06:00:00 7.42 C 5.99 g/m*3 7.42 C 0 km/h
56 16-05-2010 07:00:00 7.84 C 6.07 g/m*3 7.84 C 0 km/h
57 16-05-2010 08:00:00 8.72 C 6.1 g/m*3 8.72 C 0 km/h
58 16-05-2010 09:00:00 10.96 C 4.87 g/m*3 10.96 C 0 km/h
59 16-05-2010 10:00:00 12.56 C 4.19 g/m*3 12.56 C 0 km/h
60 16-05-2010 11:00:00 14.84 C 3.99 g/m*3 14.84 C 0 km/h
61 16-05-2010 12:00:00 16.64 C 3.6 g/m*3 16.64 C 0 km/h
62 16-05-2010 13:00:00 17.66 C 3.52 g/m*3 17.66 C 0 km/h
63 16-05-2010 14:00:00 17.92 C 3.55 g/m*3 17.92 C 0 km/h
64 16-05-2010 15:00:00 19.5 C 3.36 g/m*3 19.5 C 0 km/h
65 16-05-2010 16:00:00 20.54 C 3.57 g/m*3 20.54 C 0 km/h
66 16-05-2010 17:00:00 21.3 C 3.73 g/m*3 21.3 C 0 km/h
67 16-05-2010 18:00:00 19.82 C 3.52 g/m*3 19.82 C 0 km/h
68 16-05-2010 19:00:00 18.86 C 3.68 g/m*3 18.86 C 0 km/h
69 16-05-2010 20:00:00 17.96 C 4.47 g/m*3 17.96 C 0 km/h
70 16-05-2010 21:00:00 14.28 C 4.81 g/m*3 14.28 C 0 km/h
71 16-05-2010 22:00:00 12.36 C 5.34 g/m*3 12.36 C 0 km/h
72 16-05-2010 23:00:00 10.86 C 5.81 g/m*3 10.86 C 0 km/h
73 17-05-2010 00:00:00 10.12 C 5.96 g/m*3 10.12 C 0 km/h
74 17-05-2010 01:00:00 9.36 C 5.99 g/m*3 9.36 C 0 km/h
75 17-05-2010 02:00:00 8.56 C 6.14 g/m*3 8.56 C 0 km/h
Sensor: Nr:Datum:Temp:Abs-Feuchte:Windchill:Wind:
Aussen-T/F 76 17-05-2010 03:00:00 7.64 C 6.12 g/m*3 7.64 C 0 km/h
77 17-05-2010 04:00:00 6.96 C 6.11 g/m*3 6.96 C 0 km/h
78 17-05-2010 05:00:00 6.22 C 6.08 g/m*3 6.22 C 0 km/h
79 17-05-2010 06:00:00 6 C 6.05 g/m*3 6 C 0 km/h
80 17-05-2010 07:00:00 7.08 C 6.18 g/m*3 7.08 C 0 km/h
81 17-05-2010 08:00:00 9.42 C 6.28 g/m*3 9.42 C 0 km/h
82 17-05-2010 09:00:00 11.88 C 6.43 g/m*3 11.88 C 0 km/h
83 17-05-2010 10:00:00 13.7 C 6.39 g/m*3 13.7 C 0 km/h
84 17-05-2010 11:00:00 13.6 C 6.87 g/m*3 13.6 C 0 km/h
85 17-05-2010 12:00:00 13.88 C 7.45 g/m*3 13.88 C 0 km/h
86 17-05-2010 13:00:00 16.62 C 6.68 g/m*3 16.62 C 0 km/h
87 17-05-2010 14:00:00 15.88 C 6.98 g/m*3 15.88 C 0 km/h
88 17-05-2010 15:00:00 12.66 C 9.22 g/m*3 12.66 C 0 km/h
89 17-05-2010 16:00:00 13.44 C 9.46 g/m*3 13.44 C 0 km/h
90 17-05-2010 17:00:00 13.86 C 8.92 g/m*3 13.86 C 0 km/h
91 17-05-2010 18:00:00 12.1 C 7.59 g/m*3 12.1 C 0 km/h
92 17-05-2010 19:00:00 10.04 C 7.8 g/m*3 10.04 C 0 km/h
93 17-05-2010 20:00:00 9.46 C 7.86 g/m*3 9.46 C 0 km/h
94 17-05-2010 21:00:00 8.88 C 7.82 g/m*3 8.88 C 0 km/h
95 17-05-2010 22:00:00 8.5 C 7.82 g/m*3 8.5 C 0 km/h
96 17-05-2010 23:00:00 7.8 C 7.52 g/m*3 7.8 C 0 km/h
97 18-05-2010 00:00:00 7.08 C 7.18 g/m*3 7.08 C 0 km/h
98 18-05-2010 01:00:00 6.46 C 6.94 g/m*3 6.46 C 0 km/h
99 18-05-2010 02:00:00 6.1 C 6.79 g/m*3 6.1 C 0 km/h
100 18-05-2010 03:00:00 5.8 C 6.69 g/m*3 5.8 C 0 km/h
Sensor: Nr:Datum:Temp:Abs-Feuchte:Windchill:Wind:
Aussen-T/F 101 18-05-2010 04:00:00 6.28 C 6.93 g/m*3 6.28 C 0 km/h
102 18-05-2010 05:00:00 6.5 C 7 g/m*3 6.5 C 0 km/h
103 18-05-2010 06:00:00 7.14 C 7.21 g/m*3 7.14 C 0 km/h
104 18-05-2010 07:00:00 8.2 C 7.47 g/m*3 8.2 C 0 km/h
105 18-05-2010 08:00:00 9.04 C 6.68 g/m*3 9.04 C 0 km/h
106 18-05-2010 09:00:00 9.7 C 6.27 g/m*3 9.7 C 0 km/h
107 18-05-2010 10:00:00 10.84 C 5.79 g/m*3 10.84 C 0 km/h
108 18-05-2010 11:00:00 12.74 C 5.31 g/m*3 12.74 C 0 km/h
109 18-05-2010 12:00:00 14.04 C 4.93 g/m*3 14.04 C 0 km/h
110 18-05-2010 13:00:00 16.76 C 4.48 g/m*3 16.76 C 0 km/h
111 18-05-2010 14:00:00 15.6 C 4.2 g/m*3 15.6 C 0 km/h
112 18-05-2010 15:00:00 16.48 C 4.15 g/m*3 16.48 C 0 km/h
113 18-05-2010 16:00:00 17.74 C 3.51 g/m*3 17.74 C 0 km/h
114 18-05-2010 17:00:00 17.16 C 3.77 g/m*3 17.16 C 0 km/h
115 18-05-2010 18:00:00 17.18 C 3.95 g/m*3 17.18 C 0 km/h
116 18-05-2010 19:00:00 15.32 C 4.45 g/m*3 15.32 C 0 km/h
117 18-05-2010 20:00:00 14.26 C 4.83 g/m*3 14.26 C 0 km/h
118 18-05-2010 21:00:00 12.8 C 4.68 g/m*3 12.8 C 0 km/h
119 18-05-2010 22:00:00 11.44 C 4.57 g/m*3 11.44 C 0 km/h
120 18-05-2010 23:00:00 9.98 C 5.41 g/m*3 9.98 C 0 km/h
121 19-05-2010 00:00:00 9.32 C 5.76 g/m*3 9.32 C 0 km/h
122 19-05-2010 01:00:00 9.28 C 5.37 g/m*3 9.28 C 0 km/h
123 19-05-2010 02:00:00 9.06 C 5.33 g/m*3 9.06 C 0 km/h
124 19-05-2010 03:00:00 8.68 C 5.36 g/m*3 8.68 C 0 km/h
125 19-05-2010 04:00:00 8.16 C 5.55 g/m*3 8.16 C 0 km/h
Sensor: Nr:Datum:Temp:Abs-Feuchte:Windchill:Wind:
Aussen-T/F 126 19-05-2010 05:00:00 7.92 C 5.86 g/m*3 7.92 C 0 km/h
127 19-05-2010 06:00:00 8.04 C 5.93 g/m*3 8.04 C 0 km/h
128 19-05-2010 07:00:00 8.66 C 5.9 g/m*3 8.66 C 0 km/h
129 19-05-2010 08:00:00 9.14 C 5.62 g/m*3 9.14 C 0 km/h
130 19-05-2010 09:00:00 9.18 C 5.73 g/m*3 9.18 C 0 km/h
131 19-05-2010 10:00:00 9.62 C 5.72 g/m*3 9.62 C 0 km/h
132 19-05-2010 11:00:00 10.22 C 5.81 g/m*3 10.22 C 0 km/h
133 19-05-2010 12:00:00 11.02 C 5.83 g/m*3 11.02 C 0 km/h
134 19-05-2010 13:00:00 11.54 C 5.92 g/m*3 11.54 C 0 km/h
135 19-05-2010 14:00:00 11.46 C 6.78 g/m*3 11.46 C 0 km/h
136 19-05-2010 15:00:00 11.4 C 7.76 g/m*3 11.4 C 0 km/h
137 19-05-2010 16:00:00 10.78 C 8.08 g/m*3 10.78 C 0 km/h
138 19-05-2010 17:00:00 10.68 C 8.32 g/m*3 10.68 C 0 km/h
139 19-05-2010 18:00:00 11.14 C 8.22 g/m*3 11.14 C 0 km/h
140 19-05-2010 19:00:00 11.48 C 8.03 g/m*3 11.48 C 0 km/h
141 19-05-2010 20:00:00 11.76 C 7.73 g/m*3 11.76 C 0 km/h
142 19-05-2010 21:00:00 12.94 C 5.83 g/m*3 12.94 C 0 km/h
143 19-05-2010 22:00:00 13.06 C 5.69 g/m*3 13.06 C 0 km/h
144 19-05-2010 23:00:00 12.8 C 5.82 g/m*3 12.8 C 0 km/h
145 20-05-2010 00:00:00 12.9 C 5.21 g/m*3 12.9 C 0 km/h
146 20-05-2010 01:00:00 12.5 C 5.41 g/m*3 12.5 C 0 km/h
147 20-05-2010 02:00:00 11.9 C 5.61 g/m*3 11.9 C 0 km/h
148 20-05-2010 03:00:00 11.52 C 5.5 g/m*3 11.52 C 0 km/h
149 20-05-2010 04:00:00 11.16 C 5.3 g/m*3 11.16 C 0 km/h
150 20-05-2010 05:00:00 11.02 C 5.23 g/m*3 11.02 C 0 km/h
Sensor: Nr:Datum:Temp:Abs-Feuchte:Windchill:Wind:
Aussen-T/F 151 20-05-2010 06:00:00 11.02 C 5.19 g/m*3 11.02 C 0 km/h
152 20-05-2010 07:00:00 11.26 C 5.25 g/m*3 11.26 C 0 km/h
153 20-05-2010 08:00:00 11.14 C 5.35 g/m*3 11.14 C 0 km/h
154 20-05-2010 09:00:00 11.82 C 5.42 g/m*3 11.82 C 0 km/h
155 20-05-2010 10:00:00 12.3 C 5.39 g/m*3 12.3 C 0 km/h
156 20-05-2010 11:00:00 13.1 C 5.16 g/m*3 13.1 C 0 km/h
157 20-05-2010 12:00:00 14.04 C 4.89 g/m*3 14.04 C 0 km/h
158 20-05-2010 13:00:00 13.42 C 6.08 g/m*3 13.42 C 0 km/h
159 20-05-2010 14:00:00 13.58 C 7.59 g/m*3 13.58 C 0 km/h
160 20-05-2010 15:00:00 12.74 C 7.68 g/m*3 12.74 C 0 km/h
161 20-05-2010 16:00:00 12.76 C 7.71 g/m*3 12.76 C 0 km/h
162 20-05-2010 17:00:00 14 C 7.74 g/m*3 14 C 0 km/h
163 20-05-2010 18:00:00 14.7 C 7.88 g/m*3 14.7 C 0 km/h
164 20-05-2010 19:00:00 14.8 C 8.18 g/m*3 14.8 C 0 km/h
165 20-05-2010 20:00:00 14.36 C 7.92 g/m*3 14.36 C 0 km/h
166 20-05-2010 21:00:00 12.98 C 7.61 g/m*3 12.98 C 0 km/h
167 20-05-2010 22:00:00 12.3 C 7.21 g/m*3 12.3 C 0 km/h
168 20-05-2010 23:00:00 11.9 C 7.54 g/m*3 11.9 C 0 km/h
169 21-05-2010 00:00:00 10.64 C 7.3 g/m*3 10.64 C 0 km/h
170 21-05-2010 01:00:00 10.14 C 7.3 g/m*3 10.14 C 0 km/h
171 21-05-2010 02:00:00 9.5 C 7.26 g/m*3 9.5 C 0 km/h
172 21-05-2010 03:00:00 8.62 C 7.26 g/m*3 8.62 C 0 km/h
173 21-05-2010 04:00:00 7.88 C 7.12 g/m*3 7.88 C 0 km/h
174 21-05-2010 05:00:00 8.1 C 7.32 g/m*3 8.1 C 0 km/h
175 21-05-2010 06:00:00 8.08 C 7.43 g/m*3 8.08 C 0 km/h
Sensor: Nr:Datum:Temp:Abs-Feuchte:Windchill:Wind:
Aussen-T/F 176 21-05-2010 07:00:00 8.52 C 7.57 g/m*3 8.52 C 0 km/h
177 21-05-2010 08:00:00 9.2 C 7.55 g/m*3 9.2 C 0 km/h
178 21-05-2010 09:00:00 10.82 C 7.9 g/m*3 10.82 C 0 km/h
179 21-05-2010 10:00:00 14.58 C 8.3 g/m*3 14.58 C 0 km/h
180 21-05-2010 11:00:00 18.46 C 7.36 g/m*3 18.46 C 0 km/h
181 21-05-2010 12:00:00 20.54 C 6.03 g/m*3 20.54 C 0 km/h
182 21-05-2010 13:00:00 23.78 C 5.11 g/m*3 23.78 C 0 km/h
183 21-05-2010 14:00:00 23.88 C 5.23 g/m*3 23.88 C 0 km/h
184 21-05-2010 15:00:00 25.42 C 5.14 g/m*3 25.42 C 0 km/h
185 21-05-2010 16:00:00 25.28 C 4.86 g/m*3 25.28 C 0 km/h
186 21-05-2010 17:00:00 26.14 C 4.91 g/m*3 26.14 C 0 km/h
187 21-05-2010 18:00:00 25.94 C 5.05 g/m*3 25.94 C 0 km/h
188 21-05-2010 19:00:00 24.44 C 5.8 g/m*3 24.44 C 0 km/h
189 21-05-2010 20:00:00 22.66 C 6.25 g/m*3 22.66 C 0 km/h
190 21-05-2010 21:00:00 20.08 C 6.6 g/m*3 20.08 C 0 km/h
191 21-05-2010 22:00:00 18.08 C 7.16 g/m*3 18.08 C 0 km/h
192 21-05-2010 23:00:00 16.26 C 7.28 g/m*3 16.26 C 0 km/h
193 22-05-2010 00:00:00 15.08 C 7.63 g/m*3 15.08 C 0 km/h
194 22-05-2010 01:00:00 13.88 C 7.83 g/m*3 13.88 C 0 km/h
195 22-05-2010 02:00:00 12.74 C 7.92 g/m*3 12.74 C 0 km/h
196 22-05-2010 03:00:00 12 C 7.93 g/m*3 12 C 0 km/h
197 22-05-2010 04:00:00 11.06 C 7.9 g/m*3 11.06 C 0 km/h
198 22-05-2010 05:00:00 10.3 C 7.78 g/m*3 10.3 C 0 km/h
199 22-05-2010 06:00:00 9.96 C 7.74 g/m*3 9.96 C 0 km/h
200 22-05-2010 07:00:00 10.54 C 7.97 g/m*3 10.54 C 0 km/h
Sensor: Nr:Datum:Temp:Abs-Feuchte:Windchill:Wind:
Aussen-T/F 201 22-05-2010 08:00:00 12.32 C 7.96 g/m*3 12.32 C 0 km/h
202 22-05-2010 09:00:00 14 C 7.33 g/m*3 14 C 0 km/h
203 22-05-2010 10:00:00 16.16 C 6.3 g/m*3 16.16 C 0 km/h
204 22-05-2010 11:00:00 18.3 C 6.1 g/m*3 18.3 C 0 km/h
205 22-05-2010 12:00:00 21.18 C 5.85 g/m*3 21.18 C 0 km/h
206 22-05-2010 13:00:00 24.24 C 5.6 g/m*3 24.24 C 0 km/h
207 22-05-2010 14:00:00 23.96 C 5.6 g/m*3 23.96 C 0 km/h
208 22-05-2010 15:00:00 25.34 C 5.96 g/m*3 25.34 C 0 km/h
209 22-05-2010 16:00:00 25.9 C 6.15 g/m*3 25.9 C 0 km/h
210 22-05-2010 17:00:00 26.88 C 6.39 g/m*3 26.88 C 0 km/h
211 22-05-2010 18:00:00 26.56 C 6.53 g/m*3 26.56 C 0 km/h
212 22-05-2010 19:00:00 26.3 C 6.68 g/m*3 26.3 C 0 km/h
213 22-05-2010 20:00:00 24.48 C 7.24 g/m*3 24.48 C 0 km/h
214 22-05-2010 21:00:00 21.4 C 7.39 g/m*3 21.4 C 0 km/h
215 22-05-2010 22:00:00 19.34 C 7.12 g/m*3 19.34 C 0 km/h
216 22-05-2010 23:00:00 17.9 C 7.48 g/m*3 17.9 C 0 km/h
217 23-05-2010 00:00:00 16.64 C 7.84 g/m*3 16.64 C 0 km/h
218 23-05-2010 01:00:00 15.14 C 8.23 g/m*3 15.14 C 0 km/h
219 23-05-2010 02:00:00 14.14 C 8.39 g/m*3 14.14 C 0 km/h
220 23-05-2010 03:00:00 13.42 C 8.5 g/m*3 13.42 C 0 km/h
221 23-05-2010 04:00:00 12.58 C 8.49 g/m*3 12.58 C 0 km/h
222 23-05-2010 05:00:00 11.92 C 8.38 g/m*3 11.92 C 0 km/h
223 23-05-2010 06:00:00 11.52 C 8.34 g/m*3 11.52 C 0 km/h
224 23-05-2010 07:00:00 11.94 C 8.66 g/m*3 11.94 C 0 km/h
225 23-05-2010 08:00:00 13.84 C 9.24 g/m*3 13.84 C 0 km/h
Sensor: Nr:Datum:Temp:Abs-Feuchte:Windchill:Wind:
Aussen-T/F 226 23-05-2010 09:00:00 16.18 C 9.28 g/m*3 16.18 C 0 km/h
227 23-05-2010 10:00:00 19.2 C 9.33 g/m*3 19.2 C 0 km/h
228 23-05-2010 11:00:00 20.9 C 8.63 g/m*3 20.9 C 0 km/h
229 23-05-2010 12:00:00 23.64 C 7.03 g/m*3 23.64 C 0 km/h
230 23-05-2010 13:00:00 26.36 C 5.07 g/m*3 26.36 C 0 km/h
231 23-05-2010 14:00:00 26.1 C 5.63 g/m*3 26.1 C 0 km/h
232 23-05-2010 15:00:00 27.88 C 5.78 g/m*3 27.88 C 0 km/h
233 23-05-2010 16:00:00 28.74 C 5.66 g/m*3 28.74 C 0 km/h
234 23-05-2010 17:00:00 29.64 C 6.07 g/m*3 29.64 C 0 km/h
235 23-05-2010 18:00:00 28.82 C 6.6 g/m*3 28.82 C 0 km/h
236 23-05-2010 19:00:00 28.12 C 6.79 g/m*3 28.12 C 0 km/h
237 23-05-2010 20:00:00 26.48 C 7.35 g/m*3 26.48 C 0 km/h
238 23-05-2010 21:00:00 23.54 C 7.8 g/m*3 23.54 C 0 km/h
239 23-05-2010 22:00:00 21.36 C 8.49 g/m*3 21.36 C 0 km/h
240 23-05-2010 23:00:00 19.6 C 8.95 g/m*3 19.6 C 0 km/h
241 24-05-2010 00:00:00 17.84 C 9.19 g/m*3 17.84 C 0 km/h
242 24-05-2010 01:00:00 16.58 C 9.4 g/m*3 16.58 C 0 km/h
243 24-05-2010 02:00:00 15.46 C 9.44 g/m*3 15.46 C 0 km/h
244 24-05-2010 03:00:00 14.5 C 9.3 g/m*3 14.5 C 0 km/h
245 24-05-2010 04:00:00 13.82 C 9.19 g/m*3 13.82 C 0 km/h
246 24-05-2010 05:00:00 13.12 C 8.87 g/m*3 13.12 C 0 km/h
247 24-05-2010 06:00:00 12.74 C 8.95 g/m*3 12.74 C 0 km/h
248 24-05-2010 07:00:00 13.6 C 9.25 g/m*3 13.6 C 0 km/h
249 24-05-2010 08:00:00 14.88 C 9.52 g/m*3 14.88 C 0 km/h
250 24-05-2010 09:00:00 17.62 C 9.79 g/m*3 17.62 C 0 km/h
Sensor: Nr:Datum:Temp:Abs-Feuchte:Windchill:Wind:
Aussen-T/F 251 24-05-2010 10:00:00 21.1 C 9.51 g/m*3 21.1 C 0 km/h
252 24-05-2010 11:00:00 23.82 C 8.79 g/m*3 23.82 C 0 km/h
253 24-05-2010 12:00:00 26.18 C 7.23 g/m*3 26.18 C 0 km/h
254 24-05-2010 13:00:00 26.9 C 6.5 g/m*3 26.9 C 0 km/h
255 24-05-2010 14:00:00 28.28 C 6.41 g/m*3 28.28 C 0 km/h
256 24-05-2010 15:00:00 28.18 C 6.43 g/m*3 28.18 C 0 km/h
257 24-05-2010 16:00:00 27.62 C 6.5 g/m*3 27.62 C 0 km/h
258 24-05-2010 17:00:00 28.2 C 5.66 g/m*3 28.2 C 0 km/h
259 24-05-2010 18:00:00 28.58 C 5.67 g/m*3 28.58 C 0 km/h
260 24-05-2010 19:00:00 28.36 C 5.77 g/m*3 28.36 C 0 km/h
261 24-05-2010 20:00:00 26.64 C 6.61 g/m*3 26.64 C 0 km/h
262 24-05-2010 21:00:00 23.78 C 7.22 g/m*3 23.78 C 0 km/h
263 24-05-2010 22:00:00 21.86 C 7.93 g/m*3 21.86 C 0 km/h
264 24-05-2010 23:00:00 19.86 C 8.3 g/m*3 19.86 C 0 km/h
265 25-05-2010 00:00:00 18.5 C 8.54 g/m*3 18.5 C 0 km/h
266 25-05-2010 01:00:00 17.18 C 8.86 g/m*3 17.18 C 0 km/h
267 25-05-2010 02:00:00 16 C 8.94 g/m*3 16 C 0 km/h
268 25-05-2010 03:00:00 14.96 C 9.11 g/m*3 14.96 C 0 km/h
269 25-05-2010 04:00:00 14.18 C 9.17 g/m*3 14.18 C 0 km/h
270 25-05-2010 05:00:00 13.9 C 9.11 g/m*3 13.9 C 0 km/h
271 25-05-2010 06:00:00 14.58 C 9.22 g/m*3 14.58 C 0 km/h
272 25-05-2010 07:00:00 15.6 C 9.12 g/m*3 15.6 C 0 km/h
273 25-05-2010 08:00:00 16.78 C 9.14 g/m*3 16.78 C 0 km/h
274 25-05-2010 09:00:00 18.62 C 8.03 g/m*3 18.62 C 0 km/h
275 25-05-2010 10:00:00 20.62 C 6.84 g/m*3 20.62 C 0 km/h
Sensor: Nr:Datum:Temp:Abs-Feuchte:Windchill:Wind:
Aussen-T/F 276 25-05-2010 11:00:00 21.64 C 6.46 g/m*3 21.64 C 0 km/h
277 25-05-2010 12:00:00 23.94 C 5.68 g/m*3 23.94 C 0 km/h
278 25-05-2010 13:00:00 26.72 C 5.32 g/m*3 26.72 C 0 km/h
279 25-05-2010 14:00:00 26.32 C 5.55 g/m*3 26.32 C 0 km/h
280 25-05-2010 15:00:00 26.9 C 5.73 g/m*3 26.9 C 0 km/h
281 25-05-2010 16:00:00 27.92 C 5.85 g/m*3 27.92 C 0 km/h
282 25-05-2010 17:00:00 28.06 C 6 g/m*3 28.06 C 0 km/h
283 25-05-2010 18:00:00 26.32 C 5.7 g/m*3 26.32 C 0 km/h
284 25-05-2010 19:00:00 24.46 C 5.94 g/m*3 24.46 C 0 km/h
285 25-05-2010 20:00:00 22.84 C 6.23 g/m*3 22.84 C 0 km/h
286 25-05-2010 21:00:00 21.18 C 6.89 g/m*3 21.18 C 0 km/h
287 25-05-2010 22:00:00 19.44 C 6.89 g/m*3 19.44 C 0 km/h
288 25-05-2010 23:00:00 18.84 C 6.84 g/m*3 18.84 C 0 km/h
289 26-05-2010 00:00:00 18.52 C 6.56 g/m*3 18.52 C 0 km/h
290 26-05-2010 01:00:00 16.86 C 6.94 g/m*3 16.86 C 0 km/h
291 26-05-2010 02:00:00 14.42 C 8.56 g/m*3 14.42 C 0 km/h
292 26-05-2010 03:00:00 14.6 C 8.43 g/m*3 14.6 C 0 km/h
293 26-05-2010 04:00:00 14.72 C 7.69 g/m*3 14.72 C 0 km/h
294 26-05-2010 05:00:00 14.66 C 7.36 g/m*3 14.66 C 0 km/h
295 26-05-2010 06:00:00 14.68 C 7.8 g/m*3 14.68 C 0 km/h
296 26-05-2010 07:00:00 15.68 C 6.66 g/m*3 15.68 C 0 km/h
297 26-05-2010 08:00:00 15.96 C 6.44 g/m*3 15.96 C 0 km/h
298 26-05-2010 09:00:00 16.68 C 6.47 g/m*3 16.68 C 0 km/h
299 26-05-2010 10:00:00 15.12 C 8.11 g/m*3 15.12 C 0 km/h
300 26-05-2010 11:00:00 13.24 C 9.6 g/m*3 13.24 C 0 km/h
Sensor: Nr:Datum:Temp:Abs-Feuchte:Windchill:Wind:
Aussen-T/F 301 26-05-2010 12:00:00 13.1 C 9.86 g/m*3 13.1 C 0 km/h
302 26-05-2010 13:00:00 12.88 C 9.77 g/m*3 12.88 C 0 km/h
303 26-05-2010 14:00:00 15.2 C 9.73 g/m*3 15.2 C 0 km/h
304 26-05-2010 15:00:00 14.76 C 9.83 g/m*3 14.76 C 0 km/h
305 26-05-2010 16:00:00 18.96 C 10.63 g/m*3 18.96 C 0 km/h
306 26-05-2010 17:00:00 16.38 C 11.38 g/m*3 16.38 C 0 km/h
307 26-05-2010 18:00:00 17.22 C 12.64 g/m*3 17.22 C 0 km/h
308 26-05-2010 19:00:00 18.98 C 12.83 g/m*3 18.98 C 0 km/h
309 26-05-2010 20:00:00 16.86 C 11.77 g/m*3 16.86 C 0 km/h
310 26-05-2010 21:00:00 15.2 C 10.64 g/m*3 15.2 C 0 km/h
311 26-05-2010 22:00:00 12.86 C 8.84 g/m*3 12.86 C 0 km/h
312 26-05-2010 23:00:00 12.52 C 8.5 g/m*3 12.52 C 0 km/h
313 27-05-2010 00:00:00 12.36 C 8.39 g/m*3 12.36 C 0 km/h
314 27-05-2010 01:00:00 11.9 C 8.15 g/m*3 11.9 C 0 km/h
315 27-05-2010 02:00:00 11.24 C 8.11 g/m*3 11.24 C 0 km/h
316 27-05-2010 03:00:00 11.16 C 7.97 g/m*3 11.16 C 0 km/h
317 27-05-2010 04:00:00 10.88 C 7.85 g/m*3 10.88 C 0 km/h
318 27-05-2010 05:00:00 10.74 C 7.78 g/m*3 10.74 C 0 km/h
319 27-05-2010 06:00:00 11 C 7.85 g/m*3 11 C 0 km/h
320 27-05-2010 07:00:00 11.3 C 7.96 g/m*3 11.3 C 0 km/h
321 27-05-2010 08:00:00 11.72 C 8.06 g/m*3 11.72 C 0 km/h
322 27-05-2010 09:00:00 12.02 C 7.79 g/m*3 12.02 C 0 km/h
323 27-05-2010 10:00:00 13.04 C 7.55 g/m*3 13.04 C 0 km/h
324 27-05-2010 11:00:00 14.8 C 7.12 g/m*3 14.8 C 0 km/h
325 27-05-2010 12:00:00 16.14 C 6.73 g/m*3 16.14 C 0 km/h
Sensor: Nr:Datum:Temp:Abs-Feuchte:Windchill:Wind:
Aussen-T/F 326 27-05-2010 13:00:00 17.44 C 6.57 g/m*3 17.44 C 0 km/h
327 27-05-2010 14:00:00 20.62 C 6.63 g/m*3 20.62 C 0 km/h
328 27-05-2010 15:00:00 22.3 C 6.4 g/m*3 22.3 C 0 km/h
329 27-05-2010 16:00:00 23.36 C 6.46 g/m*3 23.36 C 0 km/h
330 27-05-2010 17:00:00 23.44 C 6.66 g/m*3 23.44 C 0 km/h
331 27-05-2010 18:00:00 23.08 C 7.14 g/m*3 23.08 C 0 km/h
332 27-05-2010 19:00:00 20.84 C 8.35 g/m*3 20.84 C 0 km/h
333 27-05-2010 20:00:00 18.04 C 8.9 g/m*3 18.04 C 0 km/h
334 27-05-2010 21:00:00 15.78 C 9.55 g/m*3 15.78 C 0 km/h
335 27-05-2010 22:00:00 16.06 C 9.27 g/m*3 16.06 C 0 km/h
336 27-05-2010 23:00:00 15.56 C 9.71 g/m*3 15.56 C 0 km/h
337 28-05-2010 00:00:00 15 C 9.64 g/m*3 15 C 0 km/h
338 28-05-2010 01:00:00 15.14 C 9.16 g/m*3 15.14 C 0 km/h
339 28-05-2010 02:00:00 14.86 C 9.23 g/m*3 14.86 C 0 km/h
340 28-05-2010 03:00:00 14.78 C 9.16 g/m*3 14.78 C 0 km/h
341 28-05-2010 04:00:00 14.36 C 9.2 g/m*3 14.36 C 0 km/h
342 28-05-2010 05:00:00 13.7 C 9.88 g/m*3 13.7 C 0 km/h
343 28-05-2010 06:00:00 13.62 C 10.11 g/m*3 13.62 C 0 km/h
344 28-05-2010 07:00:00 13.98 C 10.48 g/m*3 13.98 C 0 km/h
345 28-05-2010 08:00:00 14.36 C 10.58 g/m*3 14.36 C 0 km/h
346 28-05-2010 09:00:00 15.12 C 9.71 g/m*3 15.12 C 0 km/h
347 28-05-2010 10:00:00 15.64 C 8.56 g/m*3 15.64 C 0 km/h
348 28-05-2010 11:00:00 17.2 C 7.26 g/m*3 17.2 C 0 km/h
349 28-05-2010 12:00:00 18.4 C 7.14 g/m*3 18.4 C 0 km/h
350 28-05-2010 13:00:00 20.24 C 6.62 g/m*3 20.24 C 0 km/h
Sensor: Nr:Datum:Temp:Abs-Feuchte:Windchill:Wind:
Aussen-T/F 351 28-05-2010 14:00:00 19.4 C 6.21 g/m*3 19.4 C 0 km/h
352 28-05-2010 15:00:00 21.72 C 5.46 g/m*3 21.72 C 0 km/h
353 28-05-2010 16:00:00 23.06 C 4.37 g/m*3 23.06 C 0 km/h
354 28-05-2010 17:00:00 23.2 C 4.16 g/m*3 23.2 C 0 km/h
355 28-05-2010 18:00:00 22.62 C 4.1 g/m*3 22.62 C 0 km/h
356 28-05-2010 19:00:00 22.14 C 4.66 g/m*3 22.14 C 0 km/h
357 28-05-2010 20:00:00 19.68 C 4.99 g/m*3 19.68 C 0 km/h
358 28-05-2010 21:00:00 17.54 C 5.35 g/m*3 17.54 C 0 km/h
359 28-05-2010 22:00:00 15.56 C 5.94 g/m*3 15.56 C 0 km/h
360 28-05-2010 23:00:00 14.06 C 6.22 g/m*3 14.06 C 0 km/h
361 29-05-2010 00:00:00 12.86 C 6.63 g/m*3 12.86 C 0 km/h
362 29-05-2010 01:00:00 11.92 C 6.77 g/m*3 11.92 C 0 km/h
363 29-05-2010 02:00:00 10.82 C 6.95 g/m*3 10.82 C 0 km/h
364 29-05-2010 03:00:00 9.98 C 7.02 g/m*3 9.98 C 0 km/h
365 29-05-2010 04:00:00 9.7 C 7.08 g/m*3 9.7 C 0 km/h
366 29-05-2010 05:00:00 9.48 C 7 g/m*3 9.48 C 0 km/h
367 29-05-2010 06:00:00 9.78 C 7.13 g/m*3 9.78 C 0 km/h
368 29-05-2010 07:00:00 10.18 C 7.15 g/m*3 10.18 C 0 km/h
369 29-05-2010 08:00:00 11.24 C 7.19 g/m*3 11.24 C 0 km/h
370 29-05-2010 09:00:00 12.86 C 7.06 g/m*3 12.86 C 0 km/h
371 29-05-2010 10:00:00 16.9 C 7.11 g/m*3 16.9 C 0 km/h
372 29-05-2010 11:00:00 18.66 C 7.32 g/m*3 18.66 C 0 km/h
373 29-05-2010 12:00:00 21.72 C 5.46 g/m*3 21.72 C 0 km/h
374 29-05-2010 13:00:00 24.84 C 4.84 g/m*3 24.84 C 0 km/h
375 29-05-2010 14:00:00 23.42 C 5.31 g/m*3 23.42 C 0 km/h
Sensor: Nr:Datum:Temp:Abs-Feuchte:Windchill:Wind:
Aussen-T/F 376 29-05-2010 15:00:00 23.02 C 5.35 g/m*3 23.02 C 0 km/h
377 29-05-2010 16:00:00 24.42 C 4.99 g/m*3 24.42 C 0 km/h
378 29-05-2010 17:00:00 23.96 C 5.95 g/m*3 23.96 C 0 km/h
379 29-05-2010 18:00:00 21.7 C 6.03 g/m*3 21.7 C 0 km/h
380 29-05-2010 19:00:00 20.66 C 5.35 g/m*3 20.66 C 0 km/h
381 29-05-2010 20:00:00 19.3 C 5.97 g/m*3 19.3 C 0 km/h
382 29-05-2010 21:00:00 17.06 C 6.83 g/m*3 17.06 C 0 km/h
383 29-05-2010 22:00:00 13.96 C 9.07 g/m*3 13.96 C 0 km/h
384 29-05-2010 23:00:00 13.72 C 8.92 g/m*3 13.72 C 0 km/h
385 30-05-2010 00:00:00 13.38 C 9.36 g/m*3 13.38 C 0 km/h
386 30-05-2010 01:00:00 13.2 C 9.48 g/m*3 13.2 C 0 km/h
387 30-05-2010 02:00:00 12.9 C 10.03 g/m*3 12.9 C 0 km/h
388 30-05-2010 03:00:00 12.9 C 10.28 g/m*3 12.9 C 0 km/h
389 30-05-2010 04:00:00 12.8 C 10.28 g/m*3 12.8 C 0 km/h
390 30-05-2010 05:00:00 12.96 C 10.25 g/m*3 12.96 C 0 km/h
391 30-05-2010 06:00:00 13.36 C 10.25 g/m*3 13.36 C 0 km/h
392 30-05-2010 07:00:00 13.8 C 10.44 g/m*3 13.8 C 0 km/h
393 30-05-2010 08:00:00 14.66 C 10.07 g/m*3 14.66 C 0 km/h
394 30-05-2010 09:00:00 15.62 C 10.01 g/m*3 15.62 C 0 km/h
395 30-05-2010 10:00:00 14.98 C 10.19 g/m*3 14.98 C 0 km/h
396 30-05-2010 11:00:00 17.44 C 9.15 g/m*3 17.44 C 0 km/h
397 30-05-2010 12:00:00 18 C 8.11 g/m*3 18 C 0 km/h
398 30-05-2010 13:00:00 17.94 C 7.56 g/m*3 17.94 C 0 km/h
399 30-05-2010 14:00:00 18 C 8.23 g/m*3 18 C 0 km/h
400 30-05-2010 15:00:00 19.18 C 7.71 g/m*3 19.18 C 0 km/h
Sensor: Nr:Datum:Temp:Abs-Feuchte:Windchill:Wind:
Aussen-T/F 401 30-05-2010 16:00:00 19.4 C 6.91 g/m*3 19.4 C 0 km/h
402 30-05-2010 17:00:00 16.3 C 8.35 g/m*3 16.3 C 0 km/h
403 30-05-2010 18:00:00 14.42 C 9.6 g/m*3 14.42 C 0 km/h
404 30-05-2010 19:00:00 13.16 C 9.51 g/m*3 13.16 C 0 km/h
405 30-05-2010 20:00:00 12.46 C 7.33 g/m*3 12.46 C 0 km/h
406 30-05-2010 21:00:00 11.74 C 6.63 g/m*3 11.74 C 0 km/h
407 30-05-2010 22:00:00 11.14 C 6.14 g/m*3 11.14 C 0 km/h
408 30-05-2010 23:00:00 10.6 C 5.76 g/m*3 10.6 C 0 km/h
409 31-05-2010 00:00:00 9.88 C 5.86 g/m*3 9.88 C 0 km/h
410 31-05-2010 01:00:00 9.84 C 6.18 g/m*3 9.84 C 0 km/h
411 31-05-2010 02:00:00 8.94 C 7.5 g/m*3 8.94 C 0 km/h
412 31-05-2010 03:00:00 8.62 C 7.74 g/m*3 8.62 C 0 km/h
413 31-05-2010 04:00:00 8.52 C 7.71 g/m*3 8.52 C 0 km/h
414 31-05-2010 05:00:00 8.54 C 7.7 g/m*3 8.54 C 0 km/h
415 31-05-2010 06:00:00 8.72 C 7.9 g/m*3 8.72 C 0 km/h
416 31-05-2010 07:00:00 8.94 C 8.1 g/m*3 8.94 C 0 km/h
417 31-05-2010 08:00:00 9.88 C 8.5 g/m*3 9.88 C 0 km/h
418 31-05-2010 09:00:00 10.8 C 8.38 g/m*3 10.8 C 0 km/h
419 31-05-2010 10:00:00 11.06 C 8.34 g/m*3 11.06 C 0 km/h
420 31-05-2010 11:00:00 11.96 C 8.36 g/m*3 11.96 C 0 km/h
421 31-05-2010 12:00:00 13.78 C 7.64 g/m*3 13.78 C 0 km/h
422 31-05-2010 13:00:00 14.32 C 7.33 g/m*3 14.32 C 0 km/h
423 31-05-2010 14:00:00 14.96 C 7.32 g/m*3 14.96 C 0 km/h
424 31-05-2010 15:00:00 14.76 C 7.56 g/m*3 14.76 C 0 km/h
425 31-05-2010 16:00:00 13.96 C 8.09 g/m*3 13.96 C 0 km/h
Sensor: Nr:Datum:Temp:Abs-Feuchte:Windchill:Wind:
Aussen-T/F 426 31-05-2010 17:00:00 14.18 C 7.93 g/m*3 14.18 C 0 km/h
427 31-05-2010 18:00:00 13.1 C 8.7 g/m*3 13.1 C 0 km/h
428 31-05-2010 19:00:00 12.7 C 9.24 g/m*3 12.7 C 0 km/h
429 31-05-2010 20:00:00 12.48 C 9.51 g/m*3 12.48 C 0 km/h
430 31-05-2010 21:00:00 12.5 C 9.54 g/m*3 12.5 C 0 km/h
431 31-05-2010 22:00:00 12.54 C 9.77 g/m*3 12.54 C 0 km/h
432 31-05-2010 23:00:00 12.62 C 9.75 g/m*3 12.62 C 0 km/h
433 01-06-2010 00:00:00 11.7 C 9.41 g/m*3 11.7 C 0 km/h
434 01-06-2010 01:00:00 11.44 C 9.47 g/m*3 11.44 C 0 km/h
435 01-06-2010 02:00:00 10.92 C 9.24 g/m*3 10.92 C 0 km/h
436 01-06-2010 03:00:00 11.38 C 9.62 g/m*3 11.38 C 0 km/h
437 01-06-2010 04:00:00 11.06 C 9.34 g/m*3 11.06 C 0 km/h
438 01-06-2010 05:00:00 11.18 C 9.44 g/m*3 11.18 C 0 km/h
439 01-06-2010 06:00:00 11.22 C 9.3 g/m*3 11.22 C 0 km/h
440 01-06-2010 07:00:00 12.04 C 9.34 g/m*3 12.04 C 0 km/h
441 01-06-2010 08:00:00 13.68 C 9.32 g/m*3 13.68 C 0 km/h
442 01-06-2010 09:00:00 15 C 8.92 g/m*3 15 C 0 km/h
443 01-06-2010 10:00:00 15.08 C 8.63 g/m*3 15.08 C 0 km/h
444 01-06-2010 11:00:00 17.08 C 8.17 g/m*3 17.08 C 0 km/h
445 01-06-2010 12:00:00 19.42 C 7.22 g/m*3 19.42 C 0 km/h
446 01-06-2010 13:00:00 20.58 C 6.69 g/m*3 20.58 C 0 km/h
447 01-06-2010 14:00:00 20.98 C 6.37 g/m*3 20.98 C 0 km/h
448 01-06-2010 15:00:00 22.14 C 5.36 g/m*3 22.14 C 0 km/h
449 01-06-2010 16:00:00 22.8 C 4.96 g/m*3 22.8 C 0 km/h
450 01-06-2010 17:00:00 22.5 C 5.27 g/m*3 22.5 C 0 km/h
Sensor: Nr:Datum:Temp:Abs-Feuchte:Windchill:Wind:
Aussen-T/F 451 01-06-2010 18:00:00 20.56 C 5.11 g/m*3 20.56 C 0 km/h
452 01-06-2010 19:00:00 19.54 C 6.09 g/m*3 19.54 C 0 km/h
453 01-06-2010 20:00:00 18.2 C 7.06 g/m*3 18.2 C 0 km/h
454 01-06-2010 21:00:00 16.16 C 7.1 g/m*3 16.16 C 0 km/h
455 01-06-2010 22:00:00 15.04 C 7.38 g/m*3 15.04 C 0 km/h
456 01-06-2010 23:00:00 14.74 C 7.75 g/m*3 14.74 C 0 km/h
457 02-06-2010 00:00:00 14.44 C 8.35 g/m*3 14.44 C 0 km/h
458 02-06-2010 01:00:00 14.22 C 8.39 g/m*3 14.22 C 0 km/h
459 02-06-2010 02:00:00 13.58 C 8.7 g/m*3 13.58 C 0 km/h
460 02-06-2010 03:00:00 13.34 C 8.8 g/m*3 13.34 C 0 km/h
461 02-06-2010 04:00:00 13.36 C 8.4 g/m*3 13.36 C 0 km/h
462 02-06-2010 05:00:00 13.3 C 8.39 g/m*3 13.3 C 0 km/h
463 02-06-2010 06:00:00 13.28 C 8.56 g/m*3 13.28 C 0 km/h
464 02-06-2010 07:00:00 13.84 C 8.58 g/m*3 13.84 C 0 km/h
465 02-06-2010 08:00:00 15.1 C 8.15 g/m*3 15.1 C 0 km/h
466 02-06-2010 09:00:00 15.08 C 7.73 g/m*3 15.08 C 0 km/h
467 02-06-2010 10:00:00 17.56 C 6.49 g/m*3 17.56 C 0 km/h
468 02-06-2010 11:00:00 19.3 C 6 g/m*3 19.3 C 0 km/h
469 02-06-2010 12:00:00 21.86 C 5.31 g/m*3 21.86 C 0 km/h
470 02-06-2010 13:00:00 23.68 C 4.61 g/m*3 23.68 C 0 km/h
471 02-06-2010 14:00:00 23.5 C 4.44 g/m*3 23.5 C 0 km/h
472 02-06-2010 15:00:00 22.58 C 5.58 g/m*3 22.58 C 0 km/h
473 02-06-2010 16:00:00 21.08 C 6.74 g/m*3 21.08 C 0 km/h
474 02-06-2010 17:00:00 20.44 C 7.09 g/m*3 20.44 C 0 km/h
475 02-06-2010 18:00:00 21.46 C 7.07 g/m*3 21.46 C 0 km/h
Sensor: Nr:Datum:Temp:Abs-Feuchte:Windchill:Wind:
Aussen-T/F 476 02-06-2010 19:00:00 20.68 C 7.37 g/m*3 20.68 C 0 km/h
477 02-06-2010 20:00:00 19.78 C 7.61 g/m*3 19.78 C 0 km/h
478 02-06-2010 21:00:00 18.34 C 7.96 g/m*3 18.34 C 0 km/h
479 02-06-2010 22:00:00 17.725 C 8.27 g/m*3 17.73 C 0 km/h
480 02-06-2010 23:00:00 16.44 C 8.39 g/m*3 16.44 C 0 km/h
481 03-06-2010 00:00:00 15.62 C 8.49 g/m*3 15.62 C 0 km/h
482 03-06-2010 01:00:00 14.96 C 8.7 g/m*3 14.96 C 0 km/h
483 03-06-2010 02:00:00 14.42 C 8.69 g/m*3 14.42 C 0 km/h
484 03-06-2010 03:00:00 14.02 C 8.53 g/m*3 14.02 C 0 km/h
485 03-06-2010 04:00:00 13.2 C 8.36 g/m*3 13.2 C 0 km/h
486 03-06-2010 05:00:00 12.7 C 8.33 g/m*3 12.7 C 0 km/h
487 03-06-2010 06:00:00 12.6 C 8.36 g/m*3 12.6 C 0 km/h
488 03-06-2010 07:00:00 13.08 C 8.3 g/m*3 13.08 C 0 km/h
489 03-06-2010 08:00:00 13.98 C 7.93 g/m*3 13.98 C 0 km/h
490 03-06-2010 09:00:00 15.94 C 7.44 g/m*3 15.94 C 0 km/h
491 03-06-2010 10:00:00 18.62 C 6.95 g/m*3 18.62 C 0 km/h
492 03-06-2010 11:00:00 21.14 C 6.24 g/m*3 21.14 C 0 km/h
493 03-06-2010 12:00:00 24.16 C 5.62 g/m*3 24.16 C 0 km/h
494 03-06-2010 13:00:00 26.36 C 5.27 g/m*3 26.36 C 0 km/h
495 03-06-2010 14:00:00 25.98 C 4.86 g/m*3 25.98 C 0 km/h
496 03-06-2010 15:00:00 27.94 C 5.42 g/m*3 27.94 C 0 km/h
497 03-06-2010 16:00:00 29.48 C 5.9 g/m*3 29.48 C 0 km/h
498 03-06-2010 17:00:00 29.98 C 6.06 g/m*3 29.98 C 0 km/h
499 03-06-2010 18:00:00 28.98 C 5.74 g/m*3 28.98 C 0 km/h
500 03-06-2010 19:00:00 29.08 C 5.77 g/m*3 29.08 C 0 km/h
Sensor: Nr:Datum:Temp:Abs-Feuchte:Windchill:Wind:
Aussen-T/F 501 03-06-2010 20:00:00 27 C 5.35 g/m*3 27 C 0 km/h
502 03-06-2010 21:00:00 23.74 C 6.6 g/m*3 23.74 C 0 km/h
503 03-06-2010 22:00:00 20.16 C 6.45 g/m*3 20.16 C 0 km/h
504 03-06-2010 23:00:00 18.64 C 6.57 g/m*3 18.64 C 0 km/h
505 04-06-2010 00:00:00 17.44 C 6.86 g/m*3 17.44 C 0 km/h
506 04-06-2010 01:00:00 15.9 C 7.04 g/m*3 15.9 C 0 km/h
507 04-06-2010 02:00:00 14.64 C 7.23 g/m*3 14.64 C 0 km/h
508 04-06-2010 03:00:00 13.64 C 7.43 g/m*3 13.64 C 0 km/h
509 04-06-2010 04:00:00 12.78 C 7.61 g/m*3 12.78 C 0 km/h
510 04-06-2010 05:00:00 12.12 C 7.6 g/m*3 12.12 C 0 km/h
511 04-06-2010 06:00:00 11.94 C 7.84 g/m*3 11.94 C 0 km/h
512 04-06-2010 07:00:00 12.44 C 8.04 g/m*3 12.44 C 0 km/h
513 04-06-2010 08:00:00 13.72 C 8.28 g/m*3 13.72 C 0 km/h
514 04-06-2010 09:00:00 16.78 C 8.37 g/m*3 16.78 C 0 km/h
515 04-06-2010 10:00:00 20.06 C 8.12 g/m*3 20.06 C 0 km/h
516 04-06-2010 11:00:00 22.1 C 7.18 g/m*3 22.1 C 0 km/h
517 04-06-2010 12:00:00 25.82 C 5.88 g/m*3 25.82 C 0 km/h
518 04-06-2010 13:00:00 28.98 C 5.91 g/m*3 28.98 C 0 km/h
519 04-06-2010 14:00:00 27.9 C 5.68 g/m*3 27.9 C 0 km/h
520 04-06-2010 15:00:00 29.14 C 5.79 g/m*3 29.14 C 0 km/h
521 04-06-2010 16:00:00 30.38 C 6.19 g/m*3 30.38 C 0 km/h
522 04-06-2010 17:00:00 31.04 C 6.41 g/m*3 31.04 C 0 km/h
523 04-06-2010 18:00:00 31.88 C 6.71 g/m*3 31.88 C 0 km/h
524 04-06-2010 19:00:00 30.44 C 6.21 g/m*3 30.44 C 0 km/h
525 04-06-2010 20:00:00 29.04 C 5.87 g/m*3 29.04 C 0 km/h
Sensor: Nr:Datum:Temp:Abs-Feuchte:Windchill:Wind:
Aussen-T/F 526 04-06-2010 21:00:00 24.3 C 6.28 g/m*3 24.3 C 0 km/h
527 04-06-2010 22:00:00 22.02 C 6.88 g/m*3 22.02 C 0 km/h
528 04-06-2010 23:00:00 19.82 C 7.56 g/m*3 19.82 C 0 km/h
529 05-06-2010 00:00:00 18.16 C 7.91 g/m*3 18.16 C 0 km/h
530 05-06-2010 01:00:00 17.14 C 7.97 g/m*3 17.14 C 0 km/h
531 05-06-2010 02:00:00 15.82 C 8.17 g/m*3 15.82 C 0 km/h
532 05-06-2010 03:00:00 14.84 C 8.43 g/m*3 14.84 C 0 km/h
533 05-06-2010 04:00:00 14.34 C 8.35 g/m*3 14.34 C 0 km/h
534 05-06-2010 05:00:00 13.44 C 8.27 g/m*3 13.44 C 0 km/h
535 05-06-2010 06:00:00 13.12 C 8.45 g/m*3 13.12 C 0 km/h
536 05-06-2010 07:00:00 13.76 C 8.58 g/m*3 13.76 C 0 km/h
537 05-06-2010 08:00:00 15.12 C 8.42 g/m*3 15.12 C 0 km/h
538 05-06-2010 09:00:00 17.9 C 8.64 g/m*3 17.9 C 0 km/h
539 05-06-2010 10:00:00 21.54 C 9 g/m*3 21.54 C 0 km/h
540 05-06-2010 11:00:00 25.04 C 8.44 g/m*3 25.04 C 0 km/h
541 05-06-2010 12:00:00 28.26 C 6.45 g/m*3 28.26 C 0 km/h
542 05-06-2010 13:00:00 30.56 C 6.25 g/m*3 30.56 C 0 km/h
543 05-06-2010 14:00:00 30.24 C 6.14 g/m*3 30.24 C 0 km/h
544 05-06-2010 15:00:00 31.8 C 6.68 g/m*3 31.8 C 0 km/h
545 05-06-2010 16:00:00 32.68 C 7 g/m*3 32.68 C 0 km/h
546 05-06-2010 17:00:00 33.16 C 7.18 g/m*3 33.16 C 0 km/h
547 05-06-2010 18:00:00 33.08 C 7.15 g/m*3 33.08 C 0 km/h
548 05-06-2010 19:00:00 31.78 C 7.07 g/m*3 31.78 C 0 km/h
549 05-06-2010 20:00:00 29.04 C 7.83 g/m*3 29.04 C 0 km/h
550 05-06-2010 21:00:00 25.36 C 7.75 g/m*3 25.36 C 0 km/h
Sensor: Nr:Datum:Temp:Abs-Feuchte:Windchill:Wind:
Aussen-T/F 551 05-06-2010 22:00:00 23.38 C 8.28 g/m*3 23.38 C 0 km/h
552 05-06-2010 23:00:00 21.88 C 8.29 g/m*3 21.88 C 0 km/h
553 06-06-2010 00:00:00 20.7 C 8.64 g/m*3 20.7 C 0 km/h
554 06-06-2010 01:00:00 19.28 C 8.95 g/m*3 19.28 C 0 km/h
555 06-06-2010 02:00:00 18.18 C 9.31 g/m*3 18.18 C 0 km/h
556 06-06-2010 03:00:00 17.36 C 9.23 g/m*3 17.36 C 0 km/h
557 06-06-2010 04:00:00 16.4 C 9.13 g/m*3 16.4 C 0 km/h
558 06-06-2010 05:00:00 15.46 C 9.2 g/m*3 15.46 C 0 km/h
559 06-06-2010 06:00:00 15.32 C 9.41 g/m*3 15.32 C 0 km/h
560 06-06-2010 07:00:00 16.06 C 9.52 g/m*3 16.06 C 0 km/h
561 06-06-2010 08:00:00 17.32 C 9.32 g/m*3 17.32 C 0 km/h
562 06-06-2010 09:00:00 19.54 C 8.98 g/m*3 19.54 C 0 km/h
563 06-06-2010 10:00:00 23.1 C 9.38 g/m*3 23.1 C 0 km/h
564 06-06-2010 11:00:00 27.14 C 9.6 g/m*3 27.14 C 0 km/h
565 06-06-2010 12:00:00 29.56 C 8.71 g/m*3 29.56 C 0 km/h
566 06-06-2010 13:00:00 30.1 C 8.23 g/m*3 30.1 C 0 km/h
567 06-06-2010 14:00:00 30.16 C 8.32 g/m*3 30.16 C 0 km/h
568 06-06-2010 15:00:00 31.12 C 7.73 g/m*3 31.12 C 0 km/h
569 06-06-2010 16:00:00 23.76 C 10.65 g/m*3 23.76 C 0 km/h
570 06-06-2010 17:00:00 18.7 C 13.61 g/m*3 18.7 C 0 km/h
571 06-06-2010 18:00:00 19.2 C 14.21 g/m*3 19.2 C 0 km/h
572 06-06-2010 19:00:00 19.22 C 14.23 g/m*3 19.22 C 0 km/h
573 06-06-2010 20:00:00 19 C 14.15 g/m*3 19 C 0 km/h
574 06-06-2010 21:00:00 18.6 C 13.85 g/m*3 18.6 C 0 km/h
575 06-06-2010 22:00:00 18.34 C 13.67 g/m*3 18.34 C 0 km/h
Sensor: Nr:Datum:Temp:Abs-Feuchte:Windchill:Wind:
Aussen-T/F 576 06-06-2010 23:00:00 18.3 C 13.51 g/m*3 18.3 C 0 km/h
577 07-06-2010 00:00:00 17.92 C 13.45 g/m*3 17.92 C 0 km/h
578 07-06-2010 01:00:00 17.82 C 13.77 g/m*3 17.82 C 0 km/h
579 07-06-2010 02:00:00 17.36 C 12.48 g/m*3 17.36 C 0 km/h
580 07-06-2010 03:00:00 15.46 C 10.07 g/m*3 15.46 C 0 km/h
581 07-06-2010 04:00:00 14 C 9.09 g/m*3 14 C 0 km/h
582 07-06-2010 05:00:00 13.6 C 9.16 g/m*3 13.6 C 0 km/h
583 07-06-2010 06:00:00 14.4 C 9.37 g/m*3 14.4 C 0 km/h
584 07-06-2010 07:00:00 15.04 C 9.18 g/m*3 15.04 C 0 km/h
585 07-06-2010 08:00:00 15.54 C 9.33 g/m*3 15.54 C 0 km/h
586 07-06-2010 09:00:00 17.08 C 9.22 g/m*3 17.08 C 0 km/h
587 07-06-2010 10:00:00 18.32 C 8.95 g/m*3 18.32 C 0 km/h
588 07-06-2010 11:00:00 19.46 C 8.71 g/m*3 19.46 C 0 km/h
589 07-06-2010 12:00:00 21.94 C 7.93 g/m*3 21.94 C 0 km/h
590 07-06-2010 13:00:00 23.78 C 7.26 g/m*3 23.78 C 0 km/h
591 07-06-2010 14:00:00 24 C 6.96 g/m*3 24 C 0 km/h
592 07-06-2010 15:00:00 24.3 C 6.64 g/m*3 24.3 C 0 km/h
593 07-06-2010 16:00:00 25.22 C 6.39 g/m*3 25.22 C 0 km/h
594 07-06-2010 17:00:00 24.66 C 5.96 g/m*3 24.66 C 0 km/h
595 07-06-2010 18:00:00 25.92 C 5.28 g/m*3 25.92 C 0 km/h
596 07-06-2010 19:00:00 25.44 C 5.29 g/m*3 25.44 C 0 km/h
597 07-06-2010 20:00:00 23.08 C 5.99 g/m*3 23.08 C 0 km/h
598 07-06-2010 21:00:00 20.04 C 6.79 g/m*3 20.04 C 0 km/h
599 07-06-2010 22:00:00 18.48 C 7.33 g/m*3 18.48 C 0 km/h
600 07-06-2010 23:00:00 17.26 C 8.08 g/m*3 17.26 C 0 km/h
Sensor: Nr:Datum:Temp:Abs-Feuchte:Windchill:Wind:
Aussen-T/F 601 08-06-2010 00:00:00 16.34 C 8.48 g/m*3 16.34 C 0 km/h
602 08-06-2010 01:00:00 15.22 C 8.5 g/m*3 15.22 C 0 km/h
603 08-06-2010 02:00:00 14.26 C 8.36 g/m*3 14.26 C 0 km/h
604 08-06-2010 03:00:00 13.84 C 8.36 g/m*3 13.84 C 0 km/h
605 08-06-2010 04:00:00 13.2 C 8.22 g/m*3 13.2 C 0 km/h
606 08-06-2010 05:00:00 13.4 C 8.42 g/m*3 13.4 C 0 km/h
607 08-06-2010 06:00:00 13.66 C 8.62 g/m*3 13.66 C 0 km/h
608 08-06-2010 07:00:00 14.36 C 8.8 g/m*3 14.36 C 0 km/h
609 08-06-2010 08:00:00 16.5 C 8.9 g/m*3 16.5 C 0 km/h
610 08-06-2010 09:00:00 19.18 C 8.96 g/m*3 19.18 C 0 km/h
611 08-06-2010 10:00:00 21.92 C 8.73 g/m*3 21.92 C 0 km/h
612 08-06-2010 11:00:00 25.46 C 8.08 g/m*3 25.46 C 0 km/h
613 08-06-2010 12:00:00 27.92 C 7.2 g/m*3 27.92 C 0 km/h
614 08-06-2010 13:00:00 27.58 C 6.75 g/m*3 27.58 C 0 km/h
615 08-06-2010 14:00:00 26.28 C 8.21 g/m*3 26.28 C 0 km/h
616 08-06-2010 15:00:00 26.36 C 8.4 g/m*3 26.36 C 0 km/h
617 08-06-2010 16:00:00 22.62 C 8.49 g/m*3 22.62 C 0 km/h
618 08-06-2010 17:00:00 20.84 C 10.49 g/m*3 20.84 C 0 km/h
619 08-06-2010 18:00:00 23.06 C 10.15 g/m*3 23.06 C 0 km/h
620 08-06-2010 19:00:00 23.2 C 10.15 g/m*3 23.2 C 0 km/h
621 08-06-2010 20:00:00 22 C 10.44 g/m*3 22 C 0 km/h
622 08-06-2010 21:00:00 20.6 C 10.85 g/m*3 20.6 C 0 km/h
623 08-06-2010 22:00:00 18.56 C 12.29 g/m*3 18.56 C 0 km/h
624 08-06-2010 23:00:00 18.08 C 12.5 g/m*3 18.08 C 0 km/h
625 09-06-2010 00:00:00 17.74 C 12.55 g/m*3 17.74 C 0 km/h
Sensor: Nr:Datum:Temp:Abs-Feuchte:Windchill:Wind:
Aussen-T/F 626 09-06-2010 01:00:00 17.68 C 12.33 g/m*3 17.68 C 0 km/h
627 09-06-2010 02:00:00 17.08 C 11.86 g/m*3 17.08 C 0 km/h
628 09-06-2010 03:00:00 17.06 C 12.08 g/m*3 17.06 C 0 km/h
629 09-06-2010 04:00:00 16.96 C 12.07 g/m*3 16.96 C 0 km/h
630 09-06-2010 05:00:00 16.84 C 12.01 g/m*3 16.84 C 0 km/h
631 09-06-2010 06:00:00 17.06 C 11.97 g/m*3 17.06 C 0 km/h
632 09-06-2010 07:00:00 18.2 C 12.25 g/m*3 18.2 C 0 km/h
633 09-06-2010 08:00:00 19.94 C 12.33 g/m*3 19.94 C 0 km/h
634 09-06-2010 09:00:00 21.8 C 11.86 g/m*3 21.8 C 0 km/h
635 09-06-2010 10:00:00 23.72 C 11.43 g/m*3 23.72 C 0 km/h
636 09-06-2010 11:00:00 25.56 C 10.17 g/m*3 25.56 C 0 km/h
637 09-06-2010 12:00:00 26.4 C 8.91 g/m*3 26.4 C 0 km/h
638 09-06-2010 13:00:00 26.72 C 8.97 g/m*3 26.72 C 0 km/h
639 09-06-2010 14:00:00 28.74 C 9.12 g/m*3 28.74 C 0 km/h
640 09-06-2010 15:00:00 29.54 C 8.16 g/m*3 29.54 C 0 km/h
641 09-06-2010 16:00:00 29.34 C 7.55 g/m*3 29.34 C 0 km/h
642 09-06-2010 17:00:00 27.86 C 9.18 g/m*3 27.86 C 0 km/h
643 09-06-2010 18:00:00 26.7 C 9.26 g/m*3 26.7 C 0 km/h
644 09-06-2010 19:00:00 26.16 C 9.73 g/m*3 26.16 C 0 km/h
645 09-06-2010 20:00:00 24.78 C 9.41 g/m*3 24.78 C 0 km/h
646 09-06-2010 21:00:00 23.4 C 9.21 g/m*3 23.4 C 0 km/h
647 09-06-2010 22:00:00 22.96 C 8.61 g/m*3 22.96 C 0 km/h
648 09-06-2010 23:00:00 19.26 C 12.51 g/m*3 19.26 C 0 km/h
649 10-06-2010 00:00:00 18.04 C 13.36 g/m*3 18.04 C 0 km/h
650 10-06-2010 01:00:00 17.6 C 13.59 g/m*3 17.6 C 0 km/h
Sensor: Nr:Datum:Temp:Abs-Feuchte:Windchill:Wind:
Aussen-T/F 651 10-06-2010 02:00:00 17.18 C 13.43 g/m*3 17.18 C 0 km/h
652 10-06-2010 03:00:00 16.98 C 13.21 g/m*3 16.98 C 0 km/h
653 10-06-2010 04:00:00 17.06 C 13.1 g/m*3 17.06 C 0 km/h
654 10-06-2010 05:00:00 16.88 C 13.16 g/m*3 16.88 C 0 km/h
655 10-06-2010 06:00:00 17.28 C 13.54 g/m*3 17.28 C 0 km/h
656 10-06-2010 07:00:00 17.9 C 13.86 g/m*3 17.9 C 0 km/h
657 10-06-2010 08:00:00 18.96 C 14.34 g/m*3 18.96 C 0 km/h
658 10-06-2010 09:00:00 19.46 C 14.27 g/m*3 19.46 C 0 km/h
659 10-06-2010 10:00:00 21.34 C 13.71 g/m*3 21.34 C 0 km/h
660 10-06-2010 11:00:00 22.12 C 12.82 g/m*3 22.12 C 0 km/h
661 10-06-2010 12:00:00 24.96 C 11.35 g/m*3 24.96 C 0 km/h
662 10-06-2010 13:00:00 27.26 C 10.76 g/m*3 27.26 C 0 km/h
663 10-06-2010 14:00:00 27.86 C 12.09 g/m*3 27.86 C 0 km/h
664 10-06-2010 15:00:00 28.3 C 11.83 g/m*3 28.3 C 0 km/h
665 10-06-2010 16:00:00 26.8 C 13.24 g/m*3 26.8 C 0 km/h
666 10-06-2010 17:00:00 28.94 C 12.71 g/m*3 28.94 C 0 km/h
667 10-06-2010 18:00:00 30.9 C 11.01 g/m*3 30.9 C 0 km/h
668 10-06-2010 19:00:00 31.24 C 11.73 g/m*3 31.24 C 0 km/h
669 10-06-2010 20:00:00 28.08 C 13.93 g/m*3 28.08 C 0 km/h
670 10-06-2010 21:00:00 24.96 C 12.82 g/m*3 24.96 C 0 km/h
671 10-06-2010 22:00:00 24.24 C 12.13 g/m*3 24.24 C 0 km/h
672 10-06-2010 23:00:00 22 C 11.49 g/m*3 22 C 0 km/h
673 11-06-2010 00:00:00 18.88 C 12.27 g/m*3 18.88 C 0 km/h
674 11-06-2010 01:00:00 17.84 C 13.51 g/m*3 17.84 C 0 km/h
675 11-06-2010 02:00:00 17.58 C 13.72 g/m*3 17.58 C 0 km/h
Sensor: Nr:Datum:Temp:Abs-Feuchte:Windchill:Wind:
Aussen-T/F 676 11-06-2010 03:00:00 17.4 C 13.75 g/m*3 17.4 C 0 km/h
677 11-06-2010 04:00:00 17.1 C 13.54 g/m*3 17.1 C 0 km/h
678 11-06-2010 05:00:00 17 C 13.57 g/m*3 17 C 0 km/h
679 11-06-2010 06:00:00 16.98 C 13.61 g/m*3 16.98 C 0 km/h
680 11-06-2010 07:00:00 16.88 C 13.65 g/m*3 16.88 C 0 km/h
681 11-06-2010 08:00:00 17.04 C 13.23 g/m*3 17.04 C 0 km/h
682 11-06-2010 09:00:00 19.32 C 13.65 g/m*3 19.32 C 0 km/h
683 11-06-2010 10:00:00 20.7 C 11.77 g/m*3 20.7 C 0 km/h
684 11-06-2010 11:00:00 22.76 C 10.83 g/m*3 22.76 C 0 km/h
685 11-06-2010 12:00:00 25.64 C 8.69 g/m*3 25.64 C 0 km/h
686 11-06-2010 13:00:00 27.58 C 7.71 g/m*3 27.58 C 0 km/h
687 11-06-2010 14:00:00 27.12 C 7.62 g/m*3 27.12 C 0 km/h
688 11-06-2010 15:00:00 28.68 C 7.34 g/m*3 28.68 C 0 km/h
689 11-06-2010 16:00:00 29.92 C 6.88 g/m*3 29.92 C 0 km/h
690 11-06-2010 17:00:00 30.58 C 6.32 g/m*3 30.58 C 0 km/h
691 11-06-2010 18:00:00 30.74 C 6.31 g/m*3 30.74 C 0 km/h
692 11-06-2010 19:00:00 30.7 C 6.49 g/m*3 30.7 C 0 km/h
693 11-06-2010 20:00:00 28.08 C 7.27 g/m*3 28.08 C 0 km/h
694 11-06-2010 21:00:00 24.48 C 8.49 g/m*3 24.48 C 0 km/h
695 11-06-2010 22:00:00 23.54 C 8.05 g/m*3 23.54 C 0 km/h
696 11-06-2010 23:00:00 22.86 C 7.67 g/m*3 22.86 C 0 km/h
697 12-06-2010 00:00:00 21.9 C 8.88 g/m*3 21.9 C 0 km/h
698 12-06-2010 01:00:00 20.94 C 9.78 g/m*3 20.94 C 0 km/h
699 12-06-2010 02:00:00 20.24 C 9.99 g/m*3 20.24 C 0 km/h
700 12-06-2010 03:00:00 19.74 C 10.14 g/m*3 19.74 C 0 km/h
Sensor: Nr:Datum:Temp:Abs-Feuchte:Windchill:Wind:
Aussen-T/F 701 12-06-2010 04:00:00 19.32 C 10.56 g/m*3 19.32 C 0 km/h
702 12-06-2010 05:00:00 18.72 C 11.12 g/m*3 18.72 C 0 km/h
703 12-06-2010 06:00:00 18.58 C 11.16 g/m*3 18.58 C 0 km/h
704 12-06-2010 07:00:00 18.38 C 12.16 g/m*3 18.38 C 0 km/h
705 12-06-2010 08:00:00 18.78 C 12.42 g/m*3 18.78 C 0 km/h
706 12-06-2010 09:00:00 19.28 C 11.6 g/m*3 19.28 C 0 km/h
707 12-06-2010 10:00:00 20.34 C 10.44 g/m*3 20.34 C 0 km/h
708 12-06-2010 11:00:00 22.44 C 9.59 g/m*3 22.44 C 0 km/h
709 12-06-2010 12:00:00 23.3 C 8.7 g/m*3 23.3 C 0 km/h
710 12-06-2010 13:00:00 24.16 C 8.47 g/m*3 24.16 C 0 km/h
711 12-06-2010 14:00:00 24.48 C 8.45 g/m*3 24.48 C 0 km/h
712 12-06-2010 15:00:00 22.98 C 9.24 g/m*3 22.98 C 0 km/h
713 12-06-2010 16:00:00 17.04 C 10.24 g/m*3 17.04 C 0 km/h
714 12-06-2010 17:00:00 14.22 C 9.85 g/m*3 14.22 C 0 km/h
715 12-06-2010 18:00:00 14.62 C 10.12 g/m*3 14.62 C 0 km/h
716 12-06-2010 19:00:00 14.82 C 9.79 g/m*3 14.82 C 0 km/h
717 12-06-2010 20:00:00 15.34 C 9.53 g/m*3 15.34 C 0 km/h
718 12-06-2010 21:00:00 14.98 C 9.4 g/m*3 14.98 C 0 km/h
719 12-06-2010 22:00:00 14.5 C 9.43 g/m*3 14.5 C 0 km/h
720 12-06-2010 23:00:00 13.28 C 8.98 g/m*3 13.28 C 0 km/h
721 13-06-2010 00:00:00 12.68 C 8.92 g/m*3 12.68 C 0 km/h
722 13-06-2010 01:00:00 13.3 C 9.4 g/m*3 13.3 C 0 km/h
723 13-06-2010 02:00:00 13.14 C 9.47 g/m*3 13.14 C 0 km/h
724 13-06-2010 03:00:00 12.16 C 9.3 g/m*3 12.16 C 0 km/h
725 13-06-2010 04:00:00 11.32 C 8.7 g/m*3 11.32 C 0 km/h
Sensor: Nr:Datum:Temp:Abs-Feuchte:Windchill:Wind:
Aussen-T/F 726 13-06-2010 05:00:00 10.82 C 8.33 g/m*3 10.82 C 0 km/h
727 13-06-2010 06:00:00 10.5 C 8.22 g/m*3 10.5 C 0 km/h
728 13-06-2010 07:00:00 11.38 C 8.65 g/m*3 11.38 C 0 km/h
729 13-06-2010 08:00:00 13.16 C 8.18 g/m*3 13.16 C 0 km/h
730 13-06-2010 09:00:00 15.84 C 7.64 g/m*3 15.84 C 0 km/h
731 13-06-2010 10:00:00 17.76 C 6.3 g/m*3 17.76 C 0 km/h
732 13-06-2010 11:00:00 19.54 C 5.92 g/m*3 19.54 C 0 km/h
733 13-06-2010 12:00:00 22.84 C 5.3 g/m*3 22.84 C 0 km/h
734 13-06-2010 13:00:00 24.8 C 4.87 g/m*3 24.8 C 0 km/h
735 13-06-2010 14:00:00 24.12 C 4.91 g/m*3 24.12 C 0 km/h
736 13-06-2010 15:00:00 24.62 C 4.69 g/m*3 24.62 C 0 km/h
737 13-06-2010 16:00:00 25.02 C 4.61 g/m*3 25.02 C 0 km/h
738 13-06-2010 17:00:00 26.06 C 4.89 g/m*3 26.06 C 0 km/h
739 13-06-2010 18:00:00 26.44 C 4.99 g/m*3 26.44 C 0 km/h
740 13-06-2010 19:00:00 25.06 C 4.85 g/m*3 25.06 C 0 km/h
741 13-06-2010 20:00:00 23.9 C 5.24 g/m*3 23.9 C 0 km/h
742 13-06-2010 21:00:00 19.64 C 6.36 g/m*3 19.64 C 0 km/h
743 13-06-2010 22:00:00 17.64 C 6.46 g/m*3 17.64 C 0 km/h
744 13-06-2010 23:00:00 16.28 C 6.93 g/m*3 16.28 C 0 km/h
745 14-06-2010 00:00:00 15.44 C 7.48 g/m*3 15.44 C 0 km/h
746 14-06-2010 01:00:00 14.52 C 7.37 g/m*3 14.52 C 0 km/h
747 14-06-2010 02:00:00 13.46 C 7.68 g/m*3 13.46 C 0 km/h
748 14-06-2010 03:00:00 12.66 C 7.86 g/m*3 12.66 C 0 km/h
749 14-06-2010 04:00:00 11.98 C 7.86 g/m*3 11.98 C 0 km/h
750 14-06-2010 05:00:00 11.48 C 7.65 g/m*3 11.48 C 0 km/h
Sensor: Nr:Datum:Temp:Abs-Feuchte:Windchill:Wind:
Aussen-T/F 751 14-06-2010 06:00:00 11.28 C 7.82 g/m*3 11.28 C 0 km/h
752 14-06-2010 07:00:00 11.7 C 8.22 g/m*3 11.7 C 0 km/h
753 14-06-2010 08:00:00 13.38 C 8.43 g/m*3 13.38 C 0 km/h
754 14-06-2010 09:00:00 16.82 C 8.04 g/m*3 16.82 C 0 km/h
755 14-06-2010 10:00:00 19.96 C 7.34 g/m*3 19.96 C 0 km/h
756 14-06-2010 11:00:00 22.92 C 6.51 g/m*3 22.92 C 0 km/h
757 14-06-2010 12:00:00 25.18 C 5.53 g/m*3 25.18 C 0 km/h
758 14-06-2010 13:00:00 26.34 C 5.21 g/m*3 26.34 C 0 km/h
759 14-06-2010 14:00:00 27.44 C 5.27 g/m*3 27.44 C 0 km/h
760 14-06-2010 15:00:00 26.9 C 5.32 g/m*3 26.9 C 0 km/h
761 14-06-2010 16:00:00 29.82 C 6.01 g/m*3 29.82 C 0 km/h
762 14-06-2010 17:00:00 29.14 C 5.79 g/m*3 29.14 C 0 km/h
763 14-06-2010 18:00:00 28.48 C 5.58 g/m*3 28.48 C 0 km/h
764 14-06-2010 19:00:00 25.2 C 6.29 g/m*3 25.2 C 0 km/h
765 14-06-2010 20:00:00 23.26 C 6.34 g/m*3 23.26 C 0 km/h
766 14-06-2010 21:00:00 20.06 C 6.14 g/m*3 20.06 C 0 km/h
767 14-06-2010 22:00:00 18.62 C 7.43 g/m*3 18.62 C 0 km/h
768 14-06-2010 23:00:00 18.36 C 8.57 g/m*3 18.36 C 0 km/h
769 15-06-2010 00:00:00 17.08 C 8.72 g/m*3 17.08 C 0 km/h
770 15-06-2010 01:00:00 16.02 C 9.03 g/m*3 16.02 C 0 km/h
771 15-06-2010 02:00:00 15.26 C 9.22 g/m*3 15.26 C 0 km/h
772 15-06-2010 03:00:00 14.64 C 9.31 g/m*3 14.64 C 0 km/h
773 15-06-2010 04:00:00 13.76 C 9.18 g/m*3 13.76 C 0 km/h
774 15-06-2010 05:00:00 13.48 C 9.32 g/m*3 13.48 C 0 km/h
775 15-06-2010 06:00:00 13.58 C 9.45 g/m*3 13.58 C 0 km/h
Sensor: Nr:Datum:Temp:Abs-Feuchte:Windchill:Wind:
Aussen-T/F 776 15-06-2010 07:00:00 14.92 C 9.83 g/m*3 14.92 C 0 km/h
777 15-06-2010 08:00:00 16.68 C 9.11 g/m*3 16.68 C 0 km/h
778 15-06-2010 09:00:00 17.7 C 8.36 g/m*3 17.7 C 0 km/h
779 15-06-2010 10:00:00 19.72 C 7.96 g/m*3 19.72 C 0 km/h
780 15-06-2010 11:00:00 20.7 C 8.03 g/m*3 20.7 C 0 km/h
781 15-06-2010 12:00:00 21.26 C 8.18 g/m*3 21.26 C 0 km/h
782 15-06-2010 13:00:00 21.56 C 7.72 g/m*3 21.56 C 0 km/h
783 15-06-2010 14:00:00 22.5 C 6.87 g/m*3 22.5 C 0 km/h
784 15-06-2010 15:00:00 23.76 C 6.01 g/m*3 23.76 C 0 km/h
785 15-06-2010 16:00:00 24.42 C 5.84 g/m*3 24.42 C 0 km/h
786 15-06-2010 17:00:00 24.16 C 5.62 g/m*3 24.16 C 0 km/h
787 15-06-2010 18:00:00 24.32 C 5.63 g/m*3 24.32 C 0 km/h
788 15-06-2010 19:00:00 23.36 C 5.45 g/m*3 23.36 C 0 km/h
789 15-06-2010 20:00:00 21.58 C 5.68 g/m*3 21.58 C 0 km/h
790 15-06-2010 21:00:00 19.18 C 5.63 g/m*3 19.18 C 0 km/h
791 15-06-2010 22:00:00 17.525 C 5.49 g/m*3 17.52 C 0 km/h
792 15-06-2010 23:00:00 16.16 C 5.92 g/m*3 16.16 C 0 km/h
793 16-06-2010 00:00:00 14.68 C 6.04 g/m*3 14.68 C 0 km/h
794 16-06-2010 01:00:00 13.4 C 6.21 g/m*3 13.4 C 0 km/h
795 16-06-2010 02:00:00 12.7 C 6.14 g/m*3 12.7 C 0 km/h
796 16-06-2010 03:00:00 11.82 C 6.09 g/m*3 11.82 C 0 km/h
797 16-06-2010 04:00:00 11.2 C 6.14 g/m*3 11.2 C 0 km/h
798 16-06-2010 05:00:00 10.66 C 6.19 g/m*3 10.66 C 0 km/h
799 16-06-2010 06:00:00 10.7 C 6.44 g/m*3 10.7 C 0 km/h
800 16-06-2010 07:00:00 11.82 C 6.79 g/m*3 11.82 C 0 km/h
Sensor: Nr:Datum:Temp:Abs-Feuchte:Windchill:Wind:
Aussen-T/F 801 16-06-2010 08:00:00 13.7 C 6.35 g/m*3 13.7 C 0 km/h
802 16-06-2010 09:00:00 15.96 C 5.74 g/m*3 15.96 C 0 km/h
803 16-06-2010 10:00:00 18.16 C 5.21 g/m*3 18.16 C 0 km/h
804 16-06-2010 11:00:00 20.48 C 4.59 g/m*3 20.48 C 0 km/h
805 16-06-2010 12:00:00 23.42 C 4.42 g/m*3 23.42 C 0 km/h
806 16-06-2010 13:00:00 26.24 C 4.93 g/m*3 26.24 C 0 km/h
807 16-06-2010 14:00:00 25.56 C 4.75 g/m*3 25.56 C 0 km/h
808 16-06-2010 15:00:00 26.16 C 4.91 g/m*3 26.16 C 0 km/h
809 16-06-2010 16:00:00 27.08 C 5.17 g/m*3 27.08 C 0 km/h
810 16-06-2010 17:00:00 26.94 C 5.13 g/m*3 26.94 C 0 km/h
811 16-06-2010 18:00:00 26.62 C 5.04 g/m*3 26.62 C 0 km/h
812 16-06-2010 19:00:00 25.08 C 4.81 g/m*3 25.08 C 0 km/h
813 16-06-2010 20:00:00 22.84 C 5.25 g/m*3 22.84 C 0 km/h
814 16-06-2010 21:00:00 20.76 C 5.85 g/m*3 20.76 C 0 km/h
815 16-06-2010 22:00:00 18.58 C 5.75 g/m*3 18.58 C 0 km/h
816 16-06-2010 23:00:00 17.32 C 5.9 g/m*3 17.32 C 0 km/h
817 17-06-2010 00:00:00 16.12 C 5.98 g/m*3 16.12 C 0 km/h
818 17-06-2010 01:00:00 15.38 C 6.06 g/m*3 15.38 C 0 km/h
819 17-06-2010 02:00:00 14.76 C 6.14 g/m*3 14.76 C 0 km/h
820 17-06-2010 03:00:00 14.48 C 6.11 g/m*3 14.48 C 0 km/h
821 17-06-2010 04:00:00 14.14 C 5.94 g/m*3 14.14 C 0 km/h
822 17-06-2010 05:00:00 13.62 C 5.84 g/m*3 13.62 C 0 km/h
823 17-06-2010 06:00:00 13.84 C 6.14 g/m*3 13.84 C 0 km/h
824 17-06-2010 07:00:00 15.14 C 6.29 g/m*3 15.14 C 0 km/h
825 17-06-2010 08:00:00 16.54 C 6.62 g/m*3 16.54 C 0 km/h
Sensor: Nr:Datum:Temp:Abs-Feuchte:Windchill:Wind:
Aussen-T/F 826 17-06-2010 09:00:00 14.46 C 8.06 g/m*3 14.46 C 0 km/h
827 17-06-2010 10:00:00 13.04 C 9.62 g/m*3 13.04 C 0 km/h
828 17-06-2010 11:00:00 13.8 C 10.51 g/m*3 13.8 C 0 km/h
829 17-06-2010 12:00:00 13.86 C 10.69 g/m*3 13.86 C 0 km/h
830 17-06-2010 13:00:00 13.78 C 10.81 g/m*3 13.78 C 0 km/h
831 17-06-2010 14:00:00 14.36 C 11.32 g/m*3 14.36 C 0 km/h
832 17-06-2010 15:00:00 16.58 C 12.22 g/m*3 16.58 C 0 km/h
833 17-06-2010 16:00:00 16.92 C 12.04 g/m*3 16.92 C 0 km/h
834 17-06-2010 17:00:00 16.7 C 11.82 g/m*3 16.7 C 0 km/h
835 17-06-2010 18:00:00 17.12 C 11.69 g/m*3 17.12 C 0 km/h
836 17-06-2010 19:00:00 16.62 C 11.97 g/m*3 16.62 C 0 km/h
837 17-06-2010 20:00:00 15.82 C 11.81 g/m*3 15.82 C 0 km/h
838 17-06-2010 21:00:00 15.46 C 11.74 g/m*3 15.46 C 0 km/h
839 17-06-2010 22:00:00 15.06 C 11.61 g/m*3 15.06 C 0 km/h
840 17-06-2010 23:00:00 14.46 C 11.29 g/m*3 14.46 C 0 km/h
841 18-06-2010 00:00:00 13.8 C 10.91 g/m*3 13.8 C 0 km/h
842 18-06-2010 01:00:00 14.04 C 11.12 g/m*3 14.04 C 0 km/h
843 18-06-2010 02:00:00 13.76 C 10.93 g/m*3 13.76 C 0 km/h
844 18-06-2010 03:00:00 13.48 C 10.72 g/m*3 13.48 C 0 km/h
845 18-06-2010 04:00:00 12.5 C 10 g/m*3 12.5 C 0 km/h
846 18-06-2010 05:00:00 12.1 C 9.76 g/m*3 12.1 C 0 km/h
847 18-06-2010 06:00:00 12.18 C 9.79 g/m*3 12.18 C 0 km/h
848 18-06-2010 07:00:00 12.74 C 9.86 g/m*3 12.74 C 0 km/h
849 18-06-2010 08:00:00 13.64 C 9.84 g/m*3 13.64 C 0 km/h
850 18-06-2010 09:00:00 15.48 C 9.74 g/m*3 15.48 C 0 km/h
Sensor: Nr:Datum:Temp:Abs-Feuchte:Windchill:Wind:
Aussen-T/F 851 18-06-2010 10:00:00 16.56 C 9.33 g/m*3 16.56 C 0 km/h
852 18-06-2010 11:00:00 16.18 C 8.93 g/m*3 16.18 C 0 km/h
853 18-06-2010 12:00:00 15.46 C 8.81 g/m*3 15.46 C 0 km/h
854 18-06-2010 13:00:00 15.84 C 8.58 g/m*3 15.84 C 0 km/h
855 18-06-2010 14:00:00 14.86 C 8.49 g/m*3 14.86 C 0 km/h
856 18-06-2010 15:00:00 14.94 C 8.41 g/m*3 14.94 C 0 km/h
857 18-06-2010 16:00:00 15.38 C 8.32 g/m*3 15.38 C 0 km/h
858 18-06-2010 17:00:00 19.16 C 7.27 g/m*3 19.16 C 0 km/h
859 18-06-2010 18:00:00 21.46 C 6.92 g/m*3 21.46 C 0 km/h
860 18-06-2010 19:00:00 19.52 C 7.23 g/m*3 19.52 C 0 km/h
861 18-06-2010 20:00:00 17.82 C 7.63 g/m*3 17.82 C 0 km/h
862 18-06-2010 21:00:00 15.02 C 9.53 g/m*3 15.02 C 0 km/h
863 18-06-2010 22:00:00 14.86 C 9.54 g/m*3 14.86 C 0 km/h
864 18-06-2010 23:00:00 14.8 C 7.52 g/m*3 14.8 C 0 km/h
865 19-06-2010 00:00:00 14.4 C 6.9 g/m*3 14.4 C 0 km/h
866 19-06-2010 01:00:00 13.6 C 7.13 g/m*3 13.6 C 0 km/h
867 19-06-2010 02:00:00 12.56 C 6.84 g/m*3 12.56 C 0 km/h
868 19-06-2010 03:00:00 12.08 C 6.68 g/m*3 12.08 C 0 km/h
869 19-06-2010 04:00:00 10.94 C 6.56 g/m*3 10.94 C 0 km/h
870 19-06-2010 05:00:00 11.14 C 6.58 g/m*3 11.14 C 0 km/h
871 19-06-2010 06:00:00 11.5 C 6.82 g/m*3 11.5 C 0 km/h
872 19-06-2010 07:00:00 11.86 C 6.7 g/m*3 11.86 C 0 km/h
873 19-06-2010 08:00:00 11.96 C 6.46 g/m*3 11.96 C 0 km/h
874 19-06-2010 09:00:00 12.48 C 6.61 g/m*3 12.48 C 0 km/h
875 19-06-2010 10:00:00 12.22 C 6.63 g/m*3 12.22 C 0 km/h
Sensor: Nr:Datum:Temp:Abs-Feuchte:Windchill:Wind:
Aussen-T/F 876 19-06-2010 11:00:00 14.74 C 6.26 g/m*3 14.74 C 0 km/h
877 19-06-2010 12:00:00 16.28 C 5.38 g/m*3 16.28 C 0 km/h
878 19-06-2010 13:00:00 16.96 C 5.98 g/m*3 16.96 C 0 km/h
879 19-06-2010 14:00:00 18.26 C 5.02 g/m*3 18.26 C 0 km/h
880 19-06-2010 15:00:00 18.32 C 4.82 g/m*3 18.32 C 0 km/h
881 19-06-2010 16:00:00 18.72 C 4.97 g/m*3 18.72 C 0 km/h
882 19-06-2010 17:00:00 17.66 C 5.12 g/m*3 17.66 C 0 km/h
883 19-06-2010 18:00:00 16.34 C 5.48 g/m*3 16.34 C 0 km/h
884 19-06-2010 19:00:00 16.68 C 5.37 g/m*3 16.68 C 0 km/h
885 19-06-2010 20:00:00 14.7 C 5.72 g/m*3 14.7 C 0 km/h
886 19-06-2010 21:00:00 14.14 C 6.18 g/m*3 14.14 C 0 km/h
887 19-06-2010 22:00:00 12.92 C 6.07 g/m*3 12.92 C 0 km/h
888 19-06-2010 23:00:00 12.08 C 6.23 g/m*3 12.08 C 0 km/h
889 20-06-2010 00:00:00 10.92 C 6.35 g/m*3 10.92 C 0 km/h
890 20-06-2010 01:00:00 10.46 C 5.96 g/m*3 10.46 C 0 km/h
891 20-06-2010 02:00:00 9.64 C 6.06 g/m*3 9.64 C 0 km/h
892 20-06-2010 03:00:00 9.46 C 6.57 g/m*3 9.46 C 0 km/h
893 20-06-2010 04:00:00 9.2 C 6.98 g/m*3 9.2 C 0 km/h
894 20-06-2010 05:00:00 9.34 C 7.12 g/m*3 9.34 C 0 km/h
895 20-06-2010 06:00:00 10.08 C 7.31 g/m*3 10.08 C 0 km/h
896 20-06-2010 07:00:00 10.44 C 7.38 g/m*3 10.44 C 0 km/h
897 20-06-2010 08:00:00 10.58 C 8.09 g/m*3 10.58 C 0 km/h
898 20-06-2010 09:00:00 12.48 C 8.02 g/m*3 12.48 C 0 km/h
899 20-06-2010 10:00:00 13.54 C 7.25 g/m*3 13.54 C 0 km/h
900 20-06-2010 11:00:00 13.44 C 6.95 g/m*3 13.44 C 0 km/h
Sensor: Nr:Datum:Temp:Abs-Feuchte:Windchill:Wind:
Aussen-T/F 901 20-06-2010 12:00:00 15.26 C 6.51 g/m*3 15.26 C 0 km/h
902 20-06-2010 13:00:00 16.36 C 6.4 g/m*3 16.36 C 0 km/h
903 20-06-2010 14:00:00 16.52 C 5.88 g/m*3 16.52 C 0 km/h
904 20-06-2010 15:00:00 17.86 C 5.88 g/m*3 17.86 C 0 km/h
905 20-06-2010 16:00:00 16.74 C 5.7 g/m*3 16.74 C 0 km/h
906 20-06-2010 17:00:00 16.32 C 5.78 g/m*3 16.32 C 0 km/h
907 20-06-2010 18:00:00 16.32 C 6.25 g/m*3 16.32 C 0 km/h
908 20-06-2010 19:00:00 15.68 C 6.01 g/m*3 15.68 C 0 km/h
909 20-06-2010 20:00:00 15.24 C 6.17 g/m*3 15.24 C 0 km/h
910 20-06-2010 21:00:00 14.58 C 6.67 g/m*3 14.58 C 0 km/h
911 20-06-2010 22:00:00 13.78 C 6.88 g/m*3 13.78 C 0 km/h
912 20-06-2010 23:00:00 12.64 C 6.92 g/m*3 12.64 C 0 km/h
913 21-06-2010 00:00:00 11.5 C 7.07 g/m*3 11.5 C 0 km/h
914 21-06-2010 01:00:00 10.94 C 7.02 g/m*3 10.94 C 0 km/h
915 21-06-2010 02:00:00 10.28 C 6.98 g/m*3 10.28 C 0 km/h
916 21-06-2010 03:00:00 9.64 C 6.81 g/m*3 9.64 C 0 km/h
917 21-06-2010 04:00:00 9.16 C 6.86 g/m*3 9.16 C 0 km/h
918 21-06-2010 05:00:00 8.68 C 6.89 g/m*3 8.68 C 0 km/h
919 21-06-2010 06:00:00 8.62 C 7.14 g/m*3 8.62 C 0 km/h
920 21-06-2010 07:00:00 10.1 C 7.34 g/m*3 10.1 C 0 km/h
921 21-06-2010 08:00:00 12.54 C 6.92 g/m*3 12.54 C 0 km/h
922 21-06-2010 09:00:00 13.74 C 6.1 g/m*3 13.74 C 0 km/h
923 21-06-2010 10:00:00 13.76 C 5.73 g/m*3 13.76 C 0 km/h
924 21-06-2010 11:00:00 14.68 C 5.38 g/m*3 14.68 C 0 km/h
925 21-06-2010 12:00:00 15.72 C 5.28 g/m*3 15.72 C 0 km/h
Sensor: Nr:Datum:Temp:Abs-Feuchte:Windchill:Wind:
Aussen-T/F 926 21-06-2010 13:00:00 16.7 C 5.14 g/m*3 16.7 C 0 km/h
927 21-06-2010 14:00:00 18.62 C 4.68 g/m*3 18.62 C 0 km/h
928 21-06-2010 15:00:00 18.66 C 4.57 g/m*3 18.66 C 0 km/h
929 21-06-2010 16:00:00 20.76 C 4.52 g/m*3 20.76 C 0 km/h
930 21-06-2010 17:00:00 19.58 C 4.62 g/m*3 19.58 C 0 km/h
931 21-06-2010 18:00:00 18.32 C 4.95 g/m*3 18.32 C 0 km/h
932 21-06-2010 19:00:00 17.54 C 5.14 g/m*3 17.54 C 0 km/h
933 21-06-2010 20:00:00 16.82 C 6.16 g/m*3 16.82 C 0 km/h
934 21-06-2010 21:00:00 15.24 C 6.19 g/m*3 15.24 C 0 km/h
935 21-06-2010 22:00:00 13.74 C 6.22 g/m*3 13.74 C 0 km/h
936 21-06-2010 23:00:00 13.32 C 6.48 g/m*3 13.32 C 0 km/h
937 22-06-2010 00:00:00 12.34 C 6.62 g/m*3 12.34 C 0 km/h
938 22-06-2010 01:00:00 12.24 C 7.01 g/m*3 12.24 C 0 km/h
939 22-06-2010 02:00:00 12.02 C 7.06 g/m*3 12.02 C 0 km/h
940 22-06-2010 03:00:00 11.82 C 7.29 g/m*3 11.82 C 0 km/h
941 22-06-2010 04:00:00 11.48 C 7.39 g/m*3 11.48 C 0 km/h
942 22-06-2010 05:00:00 11.44 C 7.49 g/m*3 11.44 C 0 km/h
943 22-06-2010 06:00:00 11.58 C 7.62 g/m*3 11.58 C 0 km/h
944 22-06-2010 07:00:00 12.24 C 7.68 g/m*3 12.24 C 0 km/h
945 22-06-2010 08:00:00 13 C 7.48 g/m*3 13 C 0 km/h
946 22-06-2010 09:00:00 15 C 7.36 g/m*3 15 C 0 km/h
947 22-06-2010 10:00:00 18.72 C 6.38 g/m*3 18.72 C 0 km/h
948 22-06-2010 11:00:00 20.24 C 5.82 g/m*3 20.24 C 0 km/h
949 22-06-2010 12:00:00 21.08 C 5.48 g/m*3 21.08 C 0 km/h
950 22-06-2010 13:00:00 21.68 C 5.3 g/m*3 21.68 C 0 km/h
Sensor: Nr:Datum:Temp:Abs-Feuchte:Windchill:Wind:
Aussen-T/F 951 22-06-2010 14:00:00 23.3 C 5.19 g/m*3 23.3 C 0 km/h
952 22-06-2010 15:00:00 24.54 C 4.93 g/m*3 24.54 C 0 km/h
953 22-06-2010 16:00:00 24.28 C 4.95 g/m*3 24.28 C 0 km/h
954 22-06-2010 17:00:00 23.3 C 5.19 g/m*3 23.3 C 0 km/h
955 22-06-2010 18:00:00 23.14 C 6.26 g/m*3 23.14 C 0 km/h
956 22-06-2010 19:00:00 23.48 C 6.29 g/m*3 23.48 C 0 km/h
957 22-06-2010 20:00:00 21.04 C 6.65 g/m*3 21.04 C 0 km/h
958 22-06-2010 21:00:00 18.02 C 6.46 g/m*3 18.02 C 0 km/h
959 22-06-2010 22:00:00 16.32 C 6.81 g/m*3 16.32 C 0 km/h
960 22-06-2010 23:00:00 14.98 C 6.99 g/m*3 14.98 C 0 km/h
961 23-06-2010 00:00:00 13.8 C 7.51 g/m*3 13.8 C 0 km/h
962 23-06-2010 01:00:00 12.68 C 7.72 g/m*3 12.68 C 0 km/h
963 23-06-2010 02:00:00 11.84 C 7.79 g/m*3 11.84 C 0 km/h
964 23-06-2010 03:00:00 11.02 C 7.72 g/m*3 11.02 C 0 km/h
965 23-06-2010 04:00:00 10.42 C 7.66 g/m*3 10.42 C 0 km/h
966 23-06-2010 05:00:00 10 C 7.69 g/m*3 10 C 0 km/h
967 23-06-2010 06:00:00 10.06 C 7.75 g/m*3 10.06 C 0 km/h
968 23-06-2010 07:00:00 10.64 C 7.77 g/m*3 10.64 C 0 km/h
969 23-06-2010 08:00:00 11.78 C 7.86 g/m*3 11.78 C 0 km/h
970 23-06-2010 09:00:00 14.16 C 7.82 g/m*3 14.16 C 0 km/h
971 23-06-2010 10:00:00 17.76 C 7.72 g/m*3 17.76 C 0 km/h
972 23-06-2010 11:00:00 21.04 C 7.42 g/m*3 21.04 C 0 km/h
973 23-06-2010 12:00:00 25.96 C 5.93 g/m*3 25.96 C 0 km/h
974 23-06-2010 13:00:00 28.04 C 5.56 g/m*3 28.04 C 0 km/h
975 23-06-2010 14:00:00 27.64 C 5.44 g/m*3 27.64 C 0 km/h
Sensor: Nr:Datum:Temp:Abs-Feuchte:Windchill:Wind:
Aussen-T/F 976 23-06-2010 15:00:00 28.64 C 5.69 g/m*3 28.64 C 0 km/h
977 23-06-2010 16:00:00 30.16 C 6.12 g/m*3 30.16 C 0 km/h
978 23-06-2010 17:00:00 29.46 C 5.89 g/m*3 29.46 C 0 km/h
979 23-06-2010 18:00:00 30.28 C 6.16 g/m*3 30.28 C 0 km/h
980 23-06-2010 19:00:00 29.14 C 5.79 g/m*3 29.14 C 0 km/h
981 23-06-2010 20:00:00 27.38 C 6.57 g/m*3 27.38 C 0 km/h
982 23-06-2010 21:00:00 22.68 C 6.86 g/m*3 22.68 C 0 km/h
983 23-06-2010 22:00:00 20.52 C 6.95 g/m*3 20.52 C 0 km/h
984 23-06-2010 23:00:00 19.12 C 7.25 g/m*3 19.12 C 0 km/h
985 24-06-2010 00:00:00 17.58 C 7.79 g/m*3 17.58 C 0 km/h
986 24-06-2010 01:00:00 16.08 C 8.24 g/m*3 16.08 C 0 km/h
987 24-06-2010 02:00:00 14.98 C 8.3 g/m*3 14.98 C 0 km/h
988 24-06-2010 03:00:00 14.18 C 8.34 g/m*3 14.18 C 0 km/h
989 24-06-2010 04:00:00 13.2 C 8.4 g/m*3 13.2 C 0 km/h
990 24-06-2010 05:00:00 12.62 C 8.42 g/m*3 12.62 C 0 km/h
991 24-06-2010 06:00:00 12.7 C 8.53 g/m*3 12.7 C 0 km/h
992 24-06-2010 07:00:00 13.42 C 8.43 g/m*3 13.42 C 0 km/h
993 24-06-2010 08:00:00 14.76 C 8.59 g/m*3 14.76 C 0 km/h
994 24-06-2010 09:00:00 17.46 C 8.57 g/m*3 17.46 C 0 km/h
995 24-06-2010 10:00:00 21.5 C 8.6 g/m*3 21.5 C 0 km/h
996 24-06-2010 11:00:00 24.96 C 7.72 g/m*3 24.96 C 0 km/h
997 24-06-2010 12:00:00 28.72 C 6.05 g/m*3 28.72 C 0 km/h
998 24-06-2010 13:00:00 30.34 C 6.18 g/m*3 30.34 C 0 km/h
999 24-06-2010 14:00:00 29.72 C 5.97 g/m*3 29.72 C 0 km/h
1000 24-06-2010 15:00:00 30.9 C 6.37 g/m*3 30.9 C 0 km/h
Sensor: Nr:Datum:Temp:Abs-Feuchte:Windchill:Wind:
Aussen-T/F 1001 24-06-2010 16:00:00 31.32 C 6.51 g/m*3 31.32 C 0 km/h
1002 24-06-2010 17:00:00 32.64 C 6.99 g/m*3 32.64 C 0 km/h
1003 24-06-2010 18:00:00 32.64 C 6.99 g/m*3 32.64 C 0 km/h
1004 24-06-2010 19:00:00 31.72 C 6.65 g/m*3 31.72 C 0 km/h
1005 24-06-2010 20:00:00 30.14 C 6.91 g/m*3 30.14 C 0 km/h
1006 24-06-2010 21:00:00 25.24 C 7.09 g/m*3 25.24 C 0 km/h
1007 24-06-2010 22:00:00 22.96 C 7.46 g/m*3 22.96 C 0 km/h
1008 24-06-2010 23:00:00 21.38 C 7.72 g/m*3 21.38 C 0 km/h
1009 25-06-2010 00:00:00 20.04 C 8.04 g/m*3 20.04 C 0 km/h
1010 25-06-2010 01:00:00 18.86 C 8.37 g/m*3 18.86 C 0 km/h
1011 25-06-2010 02:00:00 18.4 C 8.78 g/m*3 18.4 C 0 km/h
1012 25-06-2010 03:00:00 17.06 C 9.12 g/m*3 17.06 C 0 km/h
1013 25-06-2010 04:00:00 16.72 C 9.31 g/m*3 16.72 C 0 km/h
1014 25-06-2010 05:00:00 16.16 C 9.35 g/m*3 16.16 C 0 km/h
1015 25-06-2010 06:00:00 16.22 C 9.53 g/m*3 16.22 C 0 km/h
1016 25-06-2010 07:00:00 17.12 C 9.68 g/m*3 17.12 C 0 km/h
1017 25-06-2010 08:00:00 19.04 C 9.41 g/m*3 19.04 C 0 km/h
1018 25-06-2010 09:00:00 20.38 C 9.15 g/m*3 20.38 C 0 km/h
1019 25-06-2010 10:00:00 22.58 C 8.75 g/m*3 22.58 C 0 km/h
1020 25-06-2010 11:00:00 24.32 C 8.24 g/m*3 24.32 C 0 km/h
1021 25-06-2010 12:00:00 27.72 C 7.82 g/m*3 27.72 C 0 km/h
1022 25-06-2010 13:00:00 29.04 C 7.25 g/m*3 29.04 C 0 km/h
1023 25-06-2010 14:00:00 28.84 C 6.95 g/m*3 28.84 C 0 km/h
1024 25-06-2010 15:00:00 29.6 C 6.47 g/m*3 29.6 C 0 km/h
1025 25-06-2010 16:00:00 30.24 C 6.14 g/m*3 30.24 C 0 km/h
Sensor: Nr:Datum:Temp:Abs-Feuchte:Windchill:Wind:
Aussen-T/F 1026 25-06-2010 17:00:00 30.7 C 6.3 g/m*3 30.7 C 0 km/h
1027 25-06-2010 18:00:00 30.74 C 6.31 g/m*3 30.74 C 0 km/h
1028 25-06-2010 19:00:00 30.2 C 6.19 g/m*3 30.2 C 0 km/h
1029 25-06-2010 20:00:00 28.24 C 6.01 g/m*3 28.24 C 0 km/h
1030 25-06-2010 21:00:00 24.98 C 7.08 g/m*3 24.98 C 0 km/h
1031 25-06-2010 22:00:00 22.64 C 7.45 g/m*3 22.64 C 0 km/h
1032 25-06-2010 23:00:00 21.04 C 7.79 g/m*3 21.04 C 0 km/h
1033 26-06-2010 00:00:00 19.68 C 8.18 g/m*3 19.68 C 0 km/h
1034 26-06-2010 01:00:00 18.6 C 8.31 g/m*3 18.6 C 0 km/h
1035 26-06-2010 02:00:00 17.42 C 8.55 g/m*3 17.42 C 0 km/h
1036 26-06-2010 03:00:00 16.46 C 8.66 g/m*3 16.46 C 0 km/h
1037 26-06-2010 04:00:00 15.5 C 8.83 g/m*3 15.5 C 0 km/h
1038 26-06-2010 05:00:00 14.76 C 8.92 g/m*3 14.76 C 0 km/h
1039 26-06-2010 06:00:00 14.74 C 9.21 g/m*3 14.74 C 0 km/h
1040 26-06-2010 07:00:00 15.38 C 9.32 g/m*3 15.38 C 0 km/h
1041 26-06-2010 08:00:00 16.8 C 9.52 g/m*3 16.8 C 0 km/h
1042 26-06-2010 09:00:00 19.56 C 9.6 g/m*3 19.56 C 0 km/h
1043 26-06-2010 10:00:00 23.02 C 8.89 g/m*3 23.02 C 0 km/h
1044 26-06-2010 11:00:00 26.18 C 7.23 g/m*3 26.18 C 0 km/h
1045 26-06-2010 12:00:00 29.4 C 6.46 g/m*3 29.4 C 0 km/h
1046 26-06-2010 13:00:00 31.08 C 6.43 g/m*3 31.08 C 0 km/h
1047 26-06-2010 14:00:00 29.52 C 5.91 g/m*3 29.52 C 0 km/h
1048 26-06-2010 15:00:00 30.66 C 6.28 g/m*3 30.66 C 0 km/h
1049 26-06-2010 16:00:00 31.64 C 6.62 g/m*3 31.64 C 0 km/h
1050 26-06-2010 17:00:00 32.84 C 7.06 g/m*3 32.84 C 0 km/h
Sensor: Nr:Datum:Temp:Abs-Feuchte:Windchill:Wind:
Aussen-T/F 1051 26-06-2010 18:00:00 32.04 C 6.77 g/m*3 32.04 C 0 km/h
1052 26-06-2010 19:00:00 31.24 C 6.48 g/m*3 31.24 C 0 km/h
1053 26-06-2010 20:00:00 30.14 C 6.48 g/m*3 30.14 C 0 km/h
1054 26-06-2010 21:00:00 25.86 C 7.1 g/m*3 25.86 C 0 km/h
1055 26-06-2010 22:00:00 23.16 C 7.55 g/m*3 23.16 C 0 km/h
1056 26-06-2010 23:00:00 21.56 C 7.83 g/m*3 21.56 C 0 km/h
1057 27-06-2010 00:00:00 20.08 C 7.95 g/m*3 20.08 C 0 km/h
1058 27-06-2010 01:00:00 18.76 C 8.32 g/m*3 18.76 C 0 km/h
1059 27-06-2010 02:00:00 17.56 C 8.59 g/m*3 17.56 C 0 km/h
1060 27-06-2010 03:00:00 16.64 C 8.84 g/m*3 16.64 C 0 km/h
1061 27-06-2010 04:00:00 15.76 C 8.89 g/m*3 15.76 C 0 km/h
1062 27-06-2010 05:00:00 15.04 C 8.92 g/m*3 15.04 C 0 km/h
1063 27-06-2010 06:00:00 14.94 C 9.2 g/m*3 14.94 C 0 km/h
1064 27-06-2010 07:00:00 15.36 C 9.36 g/m*3 15.36 C 0 km/h
1065 27-06-2010 08:00:00 17.04 C 9.25 g/m*3 17.04 C 0 km/h
1066 27-06-2010 09:00:00 20.34 C 9.41 g/m*3 20.34 C 0 km/h
1067 27-06-2010 10:00:00 24.16 C 8.91 g/m*3 24.16 C 0 km/h
1068 27-06-2010 11:00:00 27.22 C 7.82 g/m*3 27.22 C 0 km/h
1069 27-06-2010 12:00:00 30.58 C 6.45 g/m*3 30.58 C 0 km/h
1070 27-06-2010 13:00:00 31.9 C 6.72 g/m*3 31.9 C 0 km/h
1071 27-06-2010 14:00:00 31.34 C 6.52 g/m*3 31.34 C 0 km/h
1072 27-06-2010 15:00:00 32.44 C 6.91 g/m*3 32.44 C 0 km/h
1073 27-06-2010 16:00:00 33.1 C 7.16 g/m*3 33.1 C 0 km/h
1074 27-06-2010 17:00:00 33.26 C 7.22 g/m*3 33.26 C 0 km/h
1075 27-06-2010 18:00:00 33.72 C 7.39 g/m*3 33.72 C 0 km/h
Sensor: Nr:Datum:Temp:Abs-Feuchte:Windchill:Wind:
Aussen-T/F 1076 27-06-2010 19:00:00 33.38 C 7.26 g/m*3 33.38 C 0 km/h
1077 27-06-2010 20:00:00 31.46 C 6.63 g/m*3 31.46 C 0 km/h
1078 27-06-2010 21:00:00 26.92 C 7.23 g/m*3 26.92 C 0 km/h
1079 27-06-2010 22:00:00 24.2 C 7.48 g/m*3 24.2 C 0 km/h
1080 27-06-2010 23:00:00 22.66 C 7.94 g/m*3 22.66 C 0 km/h
1081 28-06-2010 00:00:00 21 C 8.21 g/m*3 21 C 0 km/h
1082 28-06-2010 01:00:00 19.78 C 8.19 g/m*3 19.78 C 0 km/h
1083 28-06-2010 02:00:00 18.7 C 8.65 g/m*3 18.7 C 0 km/h
1084 28-06-2010 03:00:00 17.78 C 8.76 g/m*3 17.78 C 0 km/h
1085 28-06-2010 04:00:00 16.78 C 9.02 g/m*3 16.78 C 0 km/h
1086 28-06-2010 05:00:00 16.1 C 9.21 g/m*3 16.1 C 0 km/h
1087 28-06-2010 06:00:00 16.42 C 9.47 g/m*3 16.42 C 0 km/h
1088 28-06-2010 07:00:00 16.8 C 9.69 g/m*3 16.8 C 0 km/h
1089 28-06-2010 08:00:00 18.2 C 9.61 g/m*3 18.2 C 0 km/h
1090 28-06-2010 09:00:00 21.24 C 9.7 g/m*3 21.24 C 0 km/h
1091 28-06-2010 10:00:00 25.26 C 9.67 g/m*3 25.26 C 0 km/h
1092 28-06-2010 11:00:00 28.96 C 8.88 g/m*3 28.96 C 0 km/h
1093 28-06-2010 12:00:00 31.7 C 7.04 g/m*3 31.7 C 0 km/h
1094 28-06-2010 13:00:00 33.08 C 7.15 g/m*3 33.08 C 0 km/h
1095 28-06-2010 14:00:00 32.52 C 6.94 g/m*3 32.52 C 0 km/h
1096 28-06-2010 15:00:00 32.42 C 6.9 g/m*3 32.42 C 0 km/h
1097 28-06-2010 16:00:00 32.74 C 7.02 g/m*3 32.74 C 0 km/h
1098 28-06-2010 17:00:00 33.18 C 7.19 g/m*3 33.18 C 0 km/h
1099 28-06-2010 18:00:00 32.8 C 7.04 g/m*3 32.8 C 0 km/h
1100 28-06-2010 19:00:00 31.6 C 6.61 g/m*3 31.6 C 0 km/h
Sensor: Nr:Datum:Temp:Abs-Feuchte:Windchill:Wind:
Aussen-T/F 1101 28-06-2010 20:00:00 30.48 C 6.85 g/m*3 30.48 C 0 km/h
1102 28-06-2010 21:00:00 27.64 C 7.2 g/m*3 27.64 C 0 km/h
1103 28-06-2010 22:00:00 26.15 C 7.55 g/m*3 26.15 C 0 km/h
1104 28-06-2010 23:00:00 24.98 C 8.28 g/m*3 24.98 C 0 km/h
1105 29-06-2010 00:00:00 23.56 C 8.74 g/m*3 23.56 C 0 km/h
1106 29-06-2010 01:00:00 22.18 C 9.02 g/m*3 22.18 C 0 km/h
1107 29-06-2010 02:00:00 21.12 C 9.3 g/m*3 21.12 C 0 km/h
1108 29-06-2010 03:00:00 20.58 C 9.51 g/m*3 20.58 C 0 km/h
1109 29-06-2010 04:00:00 19.52 C 9.75 g/m*3 19.52 C 0 km/h
1110 29-06-2010 05:00:00 18.7 C 10.21 g/m*3 18.7 C 0 km/h
1111 29-06-2010 06:00:00 18.36 C 10.45 g/m*3 18.36 C 0 km/h
1112 29-06-2010 07:00:00 18.88 C 10.65 g/m*3 18.88 C 0 km/h
1113 29-06-2010 08:00:00 20.02 C 10.52 g/m*3 20.02 C 0 km/h
1114 29-06-2010 09:00:00 22.62 C 10.1 g/m*3 22.62 C 0 km/h
1115 29-06-2010 10:00:00 25.84 C 9.8 g/m*3 25.84 C 0 km/h
1116 29-06-2010 11:00:00 28.5 C 9.61 g/m*3 28.5 C 0 km/h
1117 29-06-2010 12:00:00 31.44 C 7.99 g/m*3 31.44 C 0 km/h
1118 29-06-2010 13:00:00 32.64 C 6.99 g/m*3 32.64 C 0 km/h
1119 29-06-2010 14:00:00 31.54 C 6.65 g/m*3 31.54 C 0 km/h
1120 29-06-2010 15:00:00 28.6 C 7.98 g/m*3 28.6 C 0 km/h
1121 29-06-2010 16:00:00 27.06 C 11.05 g/m*3 27.06 C 0 km/h
1122 29-06-2010 17:00:00 29.54 C 9.76 g/m*3 29.54 C 0 km/h
1123 29-06-2010 18:00:00 29.1 C 8.61 g/m*3 29.1 C 0 km/h
1124 29-06-2010 19:00:00 28.96 C 8.6 g/m*3 28.96 C 0 km/h
1125 29-06-2010 20:00:00 27.68 C 8.6 g/m*3 27.68 C 0 km/h
Sensor: Nr:Datum:Temp:Abs-Feuchte:Windchill:Wind:
Aussen-T/F 1126 29-06-2010 21:00:00 25.38 C 9.5 g/m*3 25.38 C 0 km/h
1127 29-06-2010 22:00:00 23 C 9.87 g/m*3 23 C 0 km/h
1128 29-06-2010 23:00:00 21.86 C 10.2 g/m*3 21.86 C 0 km/h
1129 30-06-2010 00:00:00 20.6 C 10.49 g/m*3 20.6 C 0 km/h
1130 30-06-2010 01:00:00 19.5 C 10.81 g/m*3 19.5 C 0 km/h
1131 30-06-2010 02:00:00 18.54 C 10.94 g/m*3 18.54 C 0 km/h
1132 30-06-2010 03:00:00 17.76 C 11.11 g/m*3 17.76 C 0 km/h
1133 30-06-2010 04:00:00 16.96 C 11.03 g/m*3 16.96 C 0 km/h
1134 30-06-2010 05:00:00 16.32 C 10.95 g/m*3 16.32 C 0 km/h
1135 30-06-2010 06:00:00 16.18 C 10.8 g/m*3 16.18 C 0 km/h
1136 30-06-2010 07:00:00 17.32 C 10.77 g/m*3 17.32 C 0 km/h
1137 30-06-2010 08:00:00 18.28 C 10.93 g/m*3 18.28 C 0 km/h
1138 30-06-2010 09:00:00 20.5 C 9.93 g/m*3 20.5 C 0 km/h
1139 30-06-2010 10:00:00 23.6 C 9.32 g/m*3 23.6 C 0 km/h
1140 30-06-2010 11:00:00 26.9 C 8.5 g/m*3 26.9 C 0 km/h
1141 30-06-2010 12:00:00 29.24 C 6.58 g/m*3 29.24 C 0 km/h
1142 30-06-2010 13:00:00 31.84 C 6.69 g/m*3 31.84 C 0 km/h
1143 30-06-2010 14:00:00 31.78 C 6.67 g/m*3 31.78 C 0 km/h
1144 30-06-2010 15:00:00 32.34 C 6.87 g/m*3 32.34 C 0 km/h
1145 30-06-2010 16:00:00 32.36 C 6.88 g/m*3 32.36 C 0 km/h
1146 30-06-2010 17:00:00 32.34 C 6.87 g/m*3 32.34 C 0 km/h
1147 30-06-2010 18:00:00 32.32 C 6.87 g/m*3 32.32 C 0 km/h
1148 30-06-2010 19:00:00 31.08 C 6.94 g/m*3 31.08 C 0 km/h
1149 30-06-2010 20:00:00 29.74 C 7.95 g/m*3 29.74 C 0 km/h
1150 30-06-2010 21:00:00 26.54 C 7.83 g/m*3 26.54 C 0 km/h
Sensor: Nr:Datum:Temp:Abs-Feuchte:Windchill:Wind:
Aussen-T/F 1151 30-06-2010 22:00:00 24.98 C 8.09 g/m*3 24.98 C 0 km/h
1152 30-06-2010 23:00:00 23.8 C 8.56 g/m*3 23.8 C 0 km/h
1153 01-07-2010 00:00:00 22.42 C 8.71 g/m*3 22.42 C 0 km/h
1154 01-07-2010 01:00:00 21.16 C 9.1 g/m*3 21.16 C 0 km/h
1155 01-07-2010 02:00:00 20 C 9.51 g/m*3 20 C 0 km/h
1156 01-07-2010 03:00:00 19.06 C 9.85 g/m*3 19.06 C 0 km/h
1157 01-07-2010 04:00:00 18.3 C 9.85 g/m*3 18.3 C 0 km/h
1158 01-07-2010 05:00:00 17.36 C 10.17 g/m*3 17.36 C 0 km/h
1159 01-07-2010 06:00:00 17.12 C 10.41 g/m*3 17.12 C 0 km/h
1160 01-07-2010 07:00:00 17.68 C 10.43 g/m*3 17.68 C 0 km/h
1161 01-07-2010 08:00:00 18.82 C 10.55 g/m*3 18.82 C 0 km/h
1162 01-07-2010 09:00:00 21.8 C 10.48 g/m*3 21.8 C 0 km/h
1163 01-07-2010 10:00:00 25.82 C 10.22 g/m*3 25.82 C 0 km/h
1164 01-07-2010 11:00:00 28.68 C 9.2 g/m*3 28.68 C 0 km/h
1165 01-07-2010 12:00:00 31.1 C 7.01 g/m*3 31.1 C 0 km/h
1166 01-07-2010 13:00:00 32.8 C 7.04 g/m*3 32.8 C 0 km/h
1167 01-07-2010 14:00:00 32.22 C 6.83 g/m*3 32.22 C 0 km/h
1168 01-07-2010 15:00:00 32.88 C 7.07 g/m*3 32.88 C 0 km/h
1169 01-07-2010 16:00:00 33.2 C 7.2 g/m*3 33.2 C 0 km/h
1170 01-07-2010 17:00:00 33.3 C 7.23 g/m*3 33.3 C 0 km/h
1171 01-07-2010 18:00:00 33.86 C 7.45 g/m*3 33.86 C 0 km/h
1172 01-07-2010 19:00:00 33.46 C 7.29 g/m*3 33.46 C 0 km/h
1173 01-07-2010 20:00:00 31.52 C 7.7 g/m*3 31.52 C 0 km/h
1174 01-07-2010 21:00:00 27.42 C 8.59 g/m*3 27.42 C 0 km/h
1175 01-07-2010 22:00:00 25.5 C 8.52 g/m*3 25.5 C 0 km/h
Sensor: Nr:Datum:Temp:Abs-Feuchte:Windchill:Wind:
Aussen-T/F 1176 01-07-2010 23:00:00 24.74 C 8.44 g/m*3 24.74 C 0 km/h
1177 02-07-2010 00:00:00 23.48 C 8.83 g/m*3 23.48 C 0 km/h
1178 02-07-2010 01:00:00 22.46 C 9.05 g/m*3 22.46 C 0 km/h
1179 02-07-2010 02:00:00 21.32 C 8.96 g/m*3 21.32 C 0 km/h
1180 02-07-2010 03:00:00 20.6 C 9.16 g/m*3 20.6 C 0 km/h
1181 02-07-2010 04:00:00 19.68 C 9.67 g/m*3 19.68 C 0 km/h
1182 02-07-2010 05:00:00 18.86 C 9.79 g/m*3 18.86 C 0 km/h
1183 02-07-2010 06:00:00 18.68 C 10.27 g/m*3 18.68 C 0 km/h
1184 02-07-2010 07:00:00 19.52 C 10.52 g/m*3 19.52 C 0 km/h
1185 02-07-2010 08:00:00 20.86 C 10.54 g/m*3 20.86 C 0 km/h
1186 02-07-2010 09:00:00 24.14 C 10.7 g/m*3 24.14 C 0 km/h
1187 02-07-2010 10:00:00 27.86 C 10.42 g/m*3 27.86 C 0 km/h
1188 02-07-2010 11:00:00 30.18 C 9.92 g/m*3 30.18 C 0 km/h
1189 02-07-2010 12:00:00 32.12 C 8.02 g/m*3 32.12 C 0 km/h
1190 02-07-2010 13:00:00 33.36 C 7.26 g/m*3 33.36 C 0 km/h
1191 02-07-2010 14:00:00 32.78 C 7.39 g/m*3 32.78 C 0 km/h
1192 02-07-2010 15:00:00 32.2 C 8.53 g/m*3 32.2 C 0 km/h
1193 02-07-2010 16:00:00 32.46 C 8.79 g/m*3 32.46 C 0 km/h
1194 02-07-2010 17:00:00 34.22 C 7.59 g/m*3 34.22 C 0 km/h
1195 02-07-2010 18:00:00 33.7 C 7.39 g/m*3 33.7 C 0 km/h
1196 02-07-2010 19:00:00 33.76 C 7.41 g/m*3 33.76 C 0 km/h
1197 02-07-2010 20:00:00 32.56 C 8.07 g/m*3 32.56 C 0 km/h
1198 02-07-2010 21:00:00 29.68 C 8.35 g/m*3 29.68 C 0 km/h
1199 02-07-2010 22:00:00 27.1 C 7.92 g/m*3 27.1 C 0 km/h
1200 02-07-2010 23:00:00 25.62 C 8.2 g/m*3 25.62 C 0 km/h
Sensor: Nr:Datum:Temp:Abs-Feuchte:Windchill:Wind:
Aussen-T/F 1201 03-07-2010 00:00:00 24.46 C 8.98 g/m*3 24.46 C 0 km/h
1202 03-07-2010 01:00:00 23.38 C 9.83 g/m*3 23.38 C 0 km/h
1203 03-07-2010 02:00:00 22.52 C 10.44 g/m*3 22.52 C 0 km/h
1204 03-07-2010 03:00:00 21.58 C 10.76 g/m*3 21.58 C 0 km/h
1205 03-07-2010 04:00:00 20.68 C 11.04 g/m*3 20.68 C 0 km/h
1206 03-07-2010 05:00:00 20.02 C 11.32 g/m*3 20.02 C 0 km/h
1207 03-07-2010 06:00:00 20.18 C 11.49 g/m*3 20.18 C 0 km/h
1208 03-07-2010 07:00:00 21.32 C 11.76 g/m*3 21.32 C 0 km/h
1209 03-07-2010 08:00:00 22.58 C 11.8 g/m*3 22.58 C 0 km/h
1210 03-07-2010 09:00:00 25.16 C 12.12 g/m*3 25.16 C 0 km/h
1211 03-07-2010 10:00:00 28.84 C 12.13 g/m*3 28.84 C 0 km/h
1212 03-07-2010 11:00:00 31.3 C 10.86 g/m*3 31.3 C 0 km/h
1213 03-07-2010 12:00:00 33.3 C 7.59 g/m*3 33.3 C 0 km/h
1214 03-07-2010 13:00:00 33.78 C 7.71 g/m*3 33.78 C 0 km/h
1215 03-07-2010 14:00:00 33.72 C 7.39 g/m*3 33.72 C 0 km/h
1216 03-07-2010 15:00:00 31.94 C 7.81 g/m*3 31.94 C 0 km/h
1217 03-07-2010 16:00:00 30.8 C 8.74 g/m*3 30.8 C 0 km/h
1218 03-07-2010 17:00:00 29.4 C 9.86 g/m*3 29.4 C 0 km/h
1219 03-07-2010 18:00:00 26.48 C 10.7 g/m*3 26.48 C 0 km/h
1220 03-07-2010 19:00:00 27.1 C 11.44 g/m*3 27.1 C 0 km/h
1221 03-07-2010 20:00:00 28.08 C 12.07 g/m*3 28.08 C 0 km/h
1222 03-07-2010 21:00:00 26.24 C 13.42 g/m*3 26.24 C 0 km/h
1223 03-07-2010 22:00:00 25.02 C 14.06 g/m*3 25.02 C 0 km/h
1224 03-07-2010 23:00:00 24.04 C 13.78 g/m*3 24.04 C 0 km/h
1225 04-07-2010 00:00:00 23.46 C 14.01 g/m*3 23.46 C 0 km/h
Sensor: Nr:Datum:Temp:Abs-Feuchte:Windchill:Wind:
Aussen-T/F 1226 04-07-2010 01:00:00 22.92 C 13.79 g/m*3 22.92 C 0 km/h
1227 04-07-2010 02:00:00 22.38 C 13.61 g/m*3 22.38 C 0 km/h
1228 04-07-2010 03:00:00 22.16 C 13.79 g/m*3 22.16 C 0 km/h
1229 04-07-2010 04:00:00 21.62 C 13.9 g/m*3 21.62 C 0 km/h
1230 04-07-2010 05:00:00 21.12 C 13.95 g/m*3 21.12 C 0 km/h
1231 04-07-2010 06:00:00 21.64 C 13.99 g/m*3 21.64 C 0 km/h
1232 04-07-2010 07:00:00 22.34 C 13.89 g/m*3 22.34 C 0 km/h
1233 04-07-2010 08:00:00 23.16 C 13.44 g/m*3 23.16 C 0 km/h
1234 04-07-2010 09:00:00 23.54 C 12.93 g/m*3 23.54 C 0 km/h
1235 04-07-2010 10:00:00 24.42 C 12.61 g/m*3 24.42 C 0 km/h
1236 04-07-2010 11:00:00 26.02 C 12.09 g/m*3 26.02 C 0 km/h
1237 04-07-2010 12:00:00 27.94 C 11 g/m*3 27.94 C 0 km/h
1238 04-07-2010 13:00:00 30.34 C 9.64 g/m*3 30.34 C 0 km/h
1239 04-07-2010 14:00:00 30.56 C 9.5 g/m*3 30.56 C 0 km/h
1240 04-07-2010 15:00:00 31.98 C 8.5 g/m*3 31.98 C 0 km/h
1241 04-07-2010 16:00:00 32.22 C 7.86 g/m*3 32.22 C 0 km/h
1242 04-07-2010 17:00:00 32.48 C 7.55 g/m*3 32.48 C 0 km/h
1243 04-07-2010 18:00:00 32.5 C 7.56 g/m*3 32.5 C 0 km/h
1244 04-07-2010 19:00:00 30.92 C 8.73 g/m*3 30.92 C 0 km/h
1245 04-07-2010 20:00:00 31.06 C 8.8 g/m*3 31.06 C 0 km/h
1246 04-07-2010 21:00:00 27.74 C 9.65 g/m*3 27.74 C 0 km/h
1247 04-07-2010 22:00:00 26.44 C 9.58 g/m*3 26.44 C 0 km/h
1248 04-07-2010 23:00:00 25.8 C 9.24 g/m*3 25.8 C 0 km/h
1249 05-07-2010 00:00:00 24.34 C 8.16 g/m*3 24.34 C 0 km/h
1250 05-07-2010 01:00:00 23.26 C 7.13 g/m*3 23.26 C 0 km/h
Sensor: Nr:Datum:Temp:Abs-Feuchte:Windchill:Wind:
Aussen-T/F 1251 05-07-2010 02:00:00 21.94 C 7.08 g/m*3 21.94 C 0 km/h
1252 05-07-2010 03:00:00 21.02 C 6.82 g/m*3 21.02 C 0 km/h
1253 05-07-2010 04:00:00 19.96 C 6.28 g/m*3 19.96 C 0 km/h
1254 05-07-2010 05:00:00 18.86 C 6.3 g/m*3 18.86 C 0 km/h
1255 05-07-2010 06:00:00 18.34 C 6.77 g/m*3 18.34 C 0 km/h
1256 05-07-2010 07:00:00 18.44 C 7.47 g/m*3 18.44 C 0 km/h
1257 05-07-2010 08:00:00 19.4 C 7.01 g/m*3 19.4 C 0 km/h
1258 05-07-2010 09:00:00 21.28 C 6.67 g/m*3 21.28 C 0 km/h
1259 05-07-2010 10:00:00 23.7 C 6.42 g/m*3 23.7 C 0 km/h
1260 05-07-2010 11:00:00 26.54 C 6.62 g/m*3 26.54 C 0 km/h
1261 05-07-2010 12:00:00 27.94 C 6.61 g/m*3 27.94 C 0 km/h
1262 05-07-2010 13:00:00 27.88 C 7.56 g/m*3 27.88 C 0 km/h
1263 05-07-2010 14:00:00 26.2 C 8.03 g/m*3 26.2 C 0 km/h
1264 05-07-2010 15:00:00 25.86 C 8.26 g/m*3 25.86 C 0 km/h
1265 05-07-2010 16:00:00 24.76 C 8.9 g/m*3 24.76 C 0 km/h
1266 05-07-2010 17:00:00 23.46 C 10.04 g/m*3 23.46 C 0 km/h
1267 05-07-2010 18:00:00 21.1 C 11.76 g/m*3 21.1 C 0 km/h
1268 05-07-2010 19:00:00 19.32 C 13.62 g/m*3 19.32 C 0 km/h
1269 05-07-2010 20:00:00 19.44 C 13.14 g/m*3 19.44 C 0 km/h
1270 05-07-2010 21:00:00 18.96 C 12.94 g/m*3 18.96 C 0 km/h
1271 05-07-2010 22:00:00 18.62 C 12.78 g/m*3 18.62 C 0 km/h
1272 05-07-2010 23:00:00 17.88 C 12.47 g/m*3 17.88 C 0 km/h
1273 06-07-2010 00:00:00 17.24 C 11.98 g/m*3 17.24 C 0 km/h
1274 06-07-2010 01:00:00 17.24 C 11.77 g/m*3 17.24 C 0 km/h
1275 06-07-2010 02:00:00 16.84 C 11.26 g/m*3 16.84 C 0 km/h
Sensor: Nr:Datum:Temp:Abs-Feuchte:Windchill:Wind:
Aussen-T/F 1276 06-07-2010 03:00:00 16.34 C 10.88 g/m*3 16.34 C 0 km/h
1277 06-07-2010 04:00:00 15.2 C 10.1 g/m*3 15.2 C 0 km/h
1278 06-07-2010 05:00:00 14.86 C 10.25 g/m*3 14.86 C 0 km/h
1279 06-07-2010 06:00:00 14.66 C 9.92 g/m*3 14.66 C 0 km/h
1280 06-07-2010 07:00:00 15.08 C 9.72 g/m*3 15.08 C 0 km/h
1281 06-07-2010 08:00:00 15.9 C 9.24 g/m*3 15.9 C 0 km/h
1282 06-07-2010 09:00:00 17.54 C 8.28 g/m*3 17.54 C 0 km/h
1283 06-07-2010 10:00:00 20.02 C 7.27 g/m*3 20.02 C 0 km/h
1284 06-07-2010 11:00:00 21.48 C 6.59 g/m*3 21.48 C 0 km/h
1285 06-07-2010 12:00:00 23.02 C 5.51 g/m*3 23.02 C 0 km/h
1286 06-07-2010 13:00:00 24.6 C 5.04 g/m*3 24.6 C 0 km/h
1287 06-07-2010 14:00:00 24.28 C 4.73 g/m*3 24.28 C 0 km/h
1288 06-07-2010 15:00:00 24.52 C 4.48 g/m*3 24.52 C 0 km/h
1289 06-07-2010 16:00:00 25.84 C 4.83 g/m*3 25.84 C 0 km/h
1290 06-07-2010 17:00:00 26.92 C 5.12 g/m*3 26.92 C 0 km/h
1291 06-07-2010 18:00:00 25.46 C 4.72 g/m*3 25.46 C 0 km/h
1292 06-07-2010 19:00:00 25.06 C 4.8 g/m*3 25.06 C 0 km/h
1293 06-07-2010 20:00:00 24.3 C 5.31 g/m*3 24.3 C 0 km/h
1294 06-07-2010 21:00:00 21.36 C 6.25 g/m*3 21.36 C 0 km/h
1295 06-07-2010 22:00:00 18.84 C 6.52 g/m*3 18.84 C 0 km/h
1296 06-07-2010 23:00:00 17.68 C 6.81 g/m*3 17.68 C 0 km/h
1297 07-07-2010 00:00:00 16.5 C 6.88 g/m*3 16.5 C 0 km/h
1298 07-07-2010 01:00:00 15.52 C 7.41 g/m*3 15.52 C 0 km/h
1299 07-07-2010 02:00:00 14.8 C 7.68 g/m*3 14.8 C 0 km/h
1300 07-07-2010 03:00:00 13.92 C 7.78 g/m*3 13.92 C 0 km/h
Sensor: Nr:Datum:Temp:Abs-Feuchte:Windchill:Wind:
Aussen-T/F 1301 07-07-2010 04:00:00 13.3 C 7.74 g/m*3 13.3 C 0 km/h
1302 07-07-2010 05:00:00 12.76 C 8 g/m*3 12.76 C 0 km/h
1303 07-07-2010 06:00:00 12.7 C 8.24 g/m*3 12.7 C 0 km/h
1304 07-07-2010 07:00:00 13.34 C 8.39 g/m*3 13.34 C 0 km/h
1305 07-07-2010 08:00:00 14.76 C 8.31 g/m*3 14.76 C 0 km/h
1306 07-07-2010 09:00:00 17.66 C 8.13 g/m*3 17.66 C 0 km/h
1307 07-07-2010 10:00:00 21.04 C 7.97 g/m*3 21.04 C 0 km/h
1308 07-07-2010 11:00:00 23.62 C 6 g/m*3 23.62 C 0 km/h
1309 07-07-2010 12:00:00 26.78 C 5.34 g/m*3 26.78 C 0 km/h
1310 07-07-2010 13:00:00 29.38 C 5.86 g/m*3 29.38 C 0 km/h
1311 07-07-2010 14:00:00 28.34 C 5.54 g/m*3 28.34 C 0 km/h
1312 07-07-2010 15:00:00 30.4 C 6.2 g/m*3 30.4 C 0 km/h
1313 07-07-2010 16:00:00 31.96 C 6.74 g/m*3 31.96 C 0 km/h
1314 07-07-2010 17:00:00 32.54 C 6.95 g/m*3 32.54 C 0 km/h
1315 07-07-2010 18:00:00 32.88 C 7.07 g/m*3 32.88 C 0 km/h
1316 07-07-2010 19:00:00 32.4 C 6.9 g/m*3 32.4 C 0 km/h
1317 07-07-2010 20:00:00 31.26 C 6.49 g/m*3 31.26 C 0 km/h
1318 07-07-2010 21:00:00 26.86 C 6.69 g/m*3 26.86 C 0 km/h
1319 07-07-2010 22:00:00 24.4 C 6.85 g/m*3 24.4 C 0 km/h
1320 07-07-2010 23:00:00 23.7 C 7.1 g/m*3 23.7 C 0 km/h
1321 08-07-2010 00:00:00 22.38 C 7.74 g/m*3 22.38 C 0 km/h
1322 08-07-2010 01:00:00 20.54 C 7.99 g/m*3 20.54 C 0 km/h
1323 08-07-2010 02:00:00 19.78 C 8.19 g/m*3 19.78 C 0 km/h
1324 08-07-2010 03:00:00 19.4 C 8.14 g/m*3 19.4 C 0 km/h
1325 08-07-2010 04:00:00 18.52 C 8.43 g/m*3 18.52 C 0 km/h
Sensor: Nr:Datum:Temp:Abs-Feuchte:Windchill:Wind:
Aussen-T/F 1326 08-07-2010 05:00:00 17.78 C 8.4 g/m*3 17.78 C 0 km/h
1327 08-07-2010 06:00:00 17.38 C 8.5 g/m*3 17.38 C 0 km/h
1328 08-07-2010 07:00:00 17.92 C 8.93 g/m*3 17.92 C 0 km/h
1329 08-07-2010 08:00:00 19.12 C 8.9 g/m*3 19.12 C 0 km/h
1330 08-07-2010 09:00:00 22.24 C 9.17 g/m*3 22.24 C 0 km/h
1331 08-07-2010 10:00:00 25.96 C 8.94 g/m*3 25.96 C 0 km/h
1332 08-07-2010 11:00:00 29.18 C 7.08 g/m*3 29.18 C 0 km/h
1333 08-07-2010 12:00:00 31.5 C 6.57 g/m*3 31.5 C 0 km/h
1334 08-07-2010 13:00:00 32.88 C 7.07 g/m*3 32.88 C 0 km/h
1335 08-07-2010 14:00:00 32.36 C 6.88 g/m*3 32.36 C 0 km/h
1336 08-07-2010 15:00:00 33.26 C 7.22 g/m*3 33.26 C 0 km/h
1337 08-07-2010 16:00:00 33.62 C 7.36 g/m*3 33.62 C 0 km/h
1338 08-07-2010 17:00:00 33.96 C 7.49 g/m*3 33.96 C 0 km/h
1339 08-07-2010 18:00:00 34.38 C 7.65 g/m*3 34.38 C 0 km/h
1340 08-07-2010 19:00:00 34.14 C 7.56 g/m*3 34.14 C 0 km/h
1341 08-07-2010 20:00:00 33 C 7.19 g/m*3 33 C 0 km/h
1342 08-07-2010 21:00:00 29.98 C 8.3 g/m*3 29.98 C 0 km/h
1343 08-07-2010 22:00:00 28.02 C 8.22 g/m*3 28.02 C 0 km/h
1344 08-07-2010 23:00:00 27.12 C 8.08 g/m*3 27.12 C 0 km/h
1345 09-07-2010 00:00:00 25.66 C 8.41 g/m*3 25.66 C 0 km/h
1346 09-07-2010 01:00:00 23.78 C 8.81 g/m*3 23.78 C 0 km/h
1347 09-07-2010 02:00:00 22.4 C 8.94 g/m*3 22.4 C 0 km/h
1348 09-07-2010 03:00:00 21.24 C 9.21 g/m*3 21.24 C 0 km/h
1349 09-07-2010 04:00:00 20.16 C 9.45 g/m*3 20.16 C 0 km/h
1350 09-07-2010 05:00:00 19.22 C 9.48 g/m*3 19.22 C 0 km/h
Sensor: Nr:Datum:Temp:Abs-Feuchte:Windchill:Wind:
Aussen-T/F 1351 09-07-2010 06:00:00 19.06 C 9.98 g/m*3 19.06 C 0 km/h
1352 09-07-2010 07:00:00 19.9 C 10.1 g/m*3 19.9 C 0 km/h
1353 09-07-2010 08:00:00 21.5 C 9.96 g/m*3 21.5 C 0 km/h
1354 09-07-2010 09:00:00 24.16 C 10.14 g/m*3 24.16 C 0 km/h
1355 09-07-2010 10:00:00 27.94 C 10.3 g/m*3 27.94 C 0 km/h
1356 09-07-2010 11:00:00 30.82 C 9.19 g/m*3 30.82 C 0 km/h
1357 09-07-2010 12:00:00 33.14 C 7.17 g/m*3 33.14 C 0 km/h
1358 09-07-2010 13:00:00 34.56 C 7.73 g/m*3 34.56 C 0 km/h
1359 09-07-2010 14:00:00 33.26 C 7.22 g/m*3 33.26 C 0 km/h
1360 09-07-2010 15:00:00 33.48 C 7.3 g/m*3 33.48 C 0 km/h
1361 09-07-2010 16:00:00 32.28 C 7.74 g/m*3 32.28 C 0 km/h
1362 09-07-2010 17:00:00 32.32 C 7.76 g/m*3 32.32 C 0 km/h
1363 09-07-2010 18:00:00 33.42 C 7.28 g/m*3 33.42 C 0 km/h
1364 09-07-2010 19:00:00 33.48 C 7.3 g/m*3 33.48 C 0 km/h
1365 09-07-2010 20:00:00 32.04 C 7.58 g/m*3 32.04 C 0 km/h
1366 09-07-2010 21:00:00 29.94 C 8.71 g/m*3 29.94 C 0 km/h
1367 09-07-2010 22:00:00 28.78 C 9.48 g/m*3 28.78 C 0 km/h
1368 09-07-2010 23:00:00 27.78 C 9.62 g/m*3 27.78 C 0 km/h
1369 10-07-2010 00:00:00 26.3 C 10.1 g/m*3 26.3 C 0 km/h
1370 10-07-2010 01:00:00 24.96 C 10.57 g/m*3 24.96 C 0 km/h
1371 10-07-2010 02:00:00 24.2 C 10.78 g/m*3 24.2 C 0 km/h
1372 10-07-2010 03:00:00 23.1 C 11.41 g/m*3 23.1 C 0 km/h
1373 10-07-2010 04:00:00 22.34 C 11.48 g/m*3 22.34 C 0 km/h
1374 10-07-2010 05:00:00 21.64 C 11.67 g/m*3 21.64 C 0 km/h
1375 10-07-2010 06:00:00 21.3 C 11.97 g/m*3 21.3 C 0 km/h
Sensor: Nr:Datum:Temp:Abs-Feuchte:Windchill:Wind:
Aussen-T/F 1376 10-07-2010 07:00:00 21.9 C 12.23 g/m*3 21.9 C 0 km/h
1377 10-07-2010 08:00:00 23.38 C 12.01 g/m*3 23.38 C 0 km/h
1378 10-07-2010 09:00:00 26.04 C 11.76 g/m*3 26.04 C 0 km/h
1379 10-07-2010 10:00:00 29.44 C 11.53 g/m*3 29.44 C 0 km/h
1380 10-07-2010 11:00:00 31.46 C 9.25 g/m*3 31.46 C 0 km/h
1381 10-07-2010 12:00:00 33.42 C 7.5 g/m*3 33.42 C 0 km/h
1382 10-07-2010 13:00:00 34.8 C 7.82 g/m*3 34.8 C 0 km/h
1383 10-07-2010 14:00:00 34.44 C 7.68 g/m*3 34.44 C 0 km/h
1384 10-07-2010 15:00:00 35.2 C 7.99 g/m*3 35.2 C 0 km/h
1385 10-07-2010 16:00:00 35.62 C 8.17 g/m*3 35.62 C 0 km/h
1386 10-07-2010 17:00:00 35.8 C 8.24 g/m*3 35.8 C 0 km/h
1387 10-07-2010 18:00:00 35.92 C 8.29 g/m*3 35.92 C 0 km/h
1388 10-07-2010 19:00:00 35.38 C 8.06 g/m*3 35.38 C 0 km/h
1389 10-07-2010 20:00:00 33.58 C 8.22 g/m*3 33.58 C 0 km/h
1390 10-07-2010 21:00:00 31.3 C 9.43 g/m*3 31.3 C 0 km/h
1391 10-07-2010 22:00:00 30.44 C 9.94 g/m*3 30.44 C 0 km/h
1392 10-07-2010 23:00:00 30.2 C 9.81 g/m*3 30.2 C 0 km/h
1393 11-07-2010 00:00:00 29.85 C 9.85 g/m*3 29.85 C 0 km/h
1394 11-07-2010 01:00:00 28.52 C 11.19 g/m*3 28.52 C 0 km/h
1395 11-07-2010 02:00:00 24.02 C 15.9 g/m*3 24.02 C 0 km/h
1396 11-07-2010 03:00:00 23.38 C 16.26 g/m*3 23.38 C 0 km/h
1397 11-07-2010 04:00:00 21.98 C 16.44 g/m*3 21.98 C 0 km/h
1398 11-07-2010 05:00:00 22 C 16.23 g/m*3 22 C 0 km/h
1399 11-07-2010 06:00:00 21.84 C 16.08 g/m*3 21.84 C 0 km/h
1400 11-07-2010 07:00:00 22.76 C 15.73 g/m*3 22.76 C 0 km/h
Sensor: Nr:Datum:Temp:Abs-Feuchte:Windchill:Wind:
Aussen-T/F 1401 11-07-2010 08:00:00 24.22 C 15.46 g/m*3 24.22 C 0 km/h
1402 11-07-2010 09:00:00 24.42 C 14.79 g/m*3 24.42 C 0 km/h
1403 11-07-2010 10:00:00 26.8 C 12.93 g/m*3 26.8 C 0 km/h
1404 11-07-2010 11:00:00 28.54 C 12.27 g/m*3 28.54 C 0 km/h
1405 11-07-2010 12:00:00 30.44 C 10.81 g/m*3 30.44 C 0 km/h
1406 11-07-2010 13:00:00 31.66 C 9.15 g/m*3 31.66 C 0 km/h
1407 11-07-2010 14:00:00 32.06 C 8.33 g/m*3 32.06 C 0 km/h
1408 11-07-2010 15:00:00 32.84 C 7.55 g/m*3 32.84 C 0 km/h
1409 11-07-2010 16:00:00 33.7 C 7.39 g/m*3 33.7 C 0 km/h
1410 11-07-2010 17:00:00 34.26 C 7.61 g/m*3 34.26 C 0 km/h
1411 11-07-2010 18:00:00 34.12 C 7.55 g/m*3 34.12 C 0 km/h
1412 11-07-2010 19:00:00 33.92 C 7.47 g/m*3 33.92 C 0 km/h
1413 11-07-2010 20:00:00 33.3 C 7.88 g/m*3 33.3 C 0 km/h
1414 11-07-2010 21:00:00 30.88 C 10.11 g/m*3 30.88 C 0 km/h
1415 11-07-2010 22:00:00 29.82 C 10.87 g/m*3 29.82 C 0 km/h
1416 11-07-2010 23:00:00 28.54 C 11.15 g/m*3 28.54 C 0 km/h
1417 12-07-2010 00:00:00 27.24 C 11.84 g/m*3 27.24 C 0 km/h
1418 12-07-2010 01:00:00 26.02 C 12.33 g/m*3 26.02 C 0 km/h
1419 12-07-2010 02:00:00 25.12 C 12.7 g/m*3 25.12 C 0 km/h
1420 12-07-2010 03:00:00 24.18 C 13.1 g/m*3 24.18 C 0 km/h
1421 12-07-2010 04:00:00 23.32 C 13.06 g/m*3 23.32 C 0 km/h
1422 12-07-2010 05:00:00 22.66 C 13.18 g/m*3 22.66 C 0 km/h
1423 12-07-2010 06:00:00 22.54 C 13.37 g/m*3 22.54 C 0 km/h
1424 12-07-2010 07:00:00 22.86 C 13.62 g/m*3 22.86 C 0 km/h
1425 12-07-2010 08:00:00 23.86 C 13.64 g/m*3 23.86 C 0 km/h
Sensor: Nr:Datum:Temp:Abs-Feuchte:Windchill:Wind:
Aussen-T/F 1426 12-07-2010 09:00:00 26.72 C 13.58 g/m*3 26.72 C 0 km/h
1427 12-07-2010 10:00:00 29.96 C 12.53 g/m*3 29.96 C 0 km/h
1428 12-07-2010 11:00:00 31.78 C 9.94 g/m*3 31.78 C 0 km/h
1429 12-07-2010 12:00:00 31.04 C 8.15 g/m*3 31.04 C 0 km/h
1430 12-07-2010 13:00:00 28.12 C 11.77 g/m*3 28.12 C 0 km/h
1431 12-07-2010 14:00:00 30.7 C 9.45 g/m*3 30.7 C 0 km/h
1432 12-07-2010 15:00:00 31.62 C 7.94 g/m*3 31.62 C 0 km/h
1433 12-07-2010 16:00:00 31.9 C 6.72 g/m*3 31.9 C 0 km/h
1434 12-07-2010 17:00:00 31.54 C 6.59 g/m*3 31.54 C 0 km/h
1435 12-07-2010 18:00:00 30.18 C 7.41 g/m*3 30.18 C 0 km/h
1436 12-07-2010 19:00:00 28.68 C 7.62 g/m*3 28.68 C 0 km/h
1437 12-07-2010 20:00:00 26.96 C 7.86 g/m*3 26.96 C 0 km/h
1438 12-07-2010 21:00:00 25.72 C 8.96 g/m*3 25.72 C 0 km/h
1439 12-07-2010 22:00:00 24.62 C 9.24 g/m*3 24.62 C 0 km/h
1440 12-07-2010 23:00:00 23.48 C 9.72 g/m*3 23.48 C 0 km/h
1441 13-07-2010 00:00:00 22.3 C 10.35 g/m*3 22.3 C 0 km/h
1442 13-07-2010 01:00:00 21.42 C 10.7 g/m*3 21.42 C 0 km/h
1443 13-07-2010 02:00:00 20.66 C 10.92 g/m*3 20.66 C 0 km/h
1444 13-07-2010 03:00:00 19.88 C 11.22 g/m*3 19.88 C 0 km/h
1445 13-07-2010 04:00:00 19.62 C 11.66 g/m*3 19.62 C 0 km/h
1446 13-07-2010 05:00:00 18.72 C 12.25 g/m*3 18.72 C 0 km/h
1447 13-07-2010 06:00:00 18.8 C 12.11 g/m*3 18.8 C 0 km/h
1448 13-07-2010 07:00:00 19.62 C 12.03 g/m*3 19.62 C 0 km/h
1449 13-07-2010 08:00:00 20.92 C 11.96 g/m*3 20.92 C 0 km/h
1450 13-07-2010 09:00:00 22.64 C 11.8 g/m*3 22.64 C 0 km/h
Sensor: Nr:Datum:Temp:Abs-Feuchte:Windchill:Wind:
Aussen-T/F 1451 13-07-2010 10:00:00 24.6 C 11.07 g/m*3 24.6 C 0 km/h
1452 13-07-2010 11:00:00 26.1 C 10.28 g/m*3 26.1 C 0 km/h
1453 13-07-2010 12:00:00 29.44 C 8.59 g/m*3 29.44 C 0 km/h
1454 13-07-2010 13:00:00 29.32 C 8.01 g/m*3 29.32 C 0 km/h
1455 13-07-2010 14:00:00 29.04 C 8.35 g/m*3 29.04 C 0 km/h
1456 13-07-2010 15:00:00 30.72 C 7.31 g/m*3 30.72 C 0 km/h
1457 13-07-2010 16:00:00 31.06 C 6.87 g/m*3 31.06 C 0 km/h
1458 13-07-2010 17:00:00 31.74 C 6.66 g/m*3 31.74 C 0 km/h
1459 13-07-2010 18:00:00 31.86 C 6.7 g/m*3 31.86 C 0 km/h
1460 13-07-2010 19:00:00 31.36 C 6.53 g/m*3 31.36 C 0 km/h
1461 13-07-2010 20:00:00 31.12 C 6.76 g/m*3 31.12 C 0 km/h
1462 13-07-2010 21:00:00 27.84 C 8.03 g/m*3 27.84 C 0 km/h
1463 13-07-2010 22:00:00 25.46 C 8.6 g/m*3 25.46 C 0 km/h
1464 13-07-2010 23:00:00 24.42 C 9.13 g/m*3 24.42 C 0 km/h
1465 14-07-2010 00:00:00 23.68 C 9.61 g/m*3 23.68 C 0 km/h
1466 14-07-2010 01:00:00 23.16 C 10 g/m*3 23.16 C 0 km/h
1467 14-07-2010 02:00:00 22.54 C 10.33 g/m*3 22.54 C 0 km/h
1468 14-07-2010 03:00:00 21.58 C 10.61 g/m*3 21.58 C 0 km/h
1469 14-07-2010 04:00:00 20.72 C 11.03 g/m*3 20.72 C 0 km/h
1470 14-07-2010 05:00:00 20.1 C 11.13 g/m*3 20.1 C 0 km/h
1471 14-07-2010 06:00:00 20.3 C 11.29 g/m*3 20.3 C 0 km/h
1472 14-07-2010 07:00:00 20.58 C 11.58 g/m*3 20.58 C 0 km/h
1473 14-07-2010 08:00:00 21.82 C 11.76 g/m*3 21.82 C 0 km/h
1474 14-07-2010 09:00:00 24.66 C 11.92 g/m*3 24.66 C 0 km/h
1475 14-07-2010 10:00:00 27.88 C 10.48 g/m*3 27.88 C 0 km/h
Sensor: Nr:Datum:Temp:Abs-Feuchte:Windchill:Wind:
Aussen-T/F 1476 14-07-2010 11:00:00 30.4 C 9.23 g/m*3 30.4 C 0 km/h
1477 14-07-2010 12:00:00 31.44 C 8.19 g/m*3 31.44 C 0 km/h
1478 14-07-2010 13:00:00 32.42 C 7.39 g/m*3 32.42 C 0 km/h
1479 14-07-2010 14:00:00 32.94 C 7.1 g/m*3 32.94 C 0 km/h
1480 14-07-2010 15:00:00 33.26 C 7.22 g/m*3 33.26 C 0 km/h
1481 14-07-2010 16:00:00 34.4 C 7.66 g/m*3 34.4 C 0 km/h
1482 14-07-2010 17:00:00 34.5 C 7.7 g/m*3 34.5 C 0 km/h
1483 14-07-2010 18:00:00 34.66 C 7.77 g/m*3 34.66 C 0 km/h
1484 14-07-2010 19:00:00 25.84 C 13.61 g/m*3 25.84 C 0 km/h
1485 14-07-2010 20:00:00 22.34 C 16.51 g/m*3 22.34 C 0 km/h
1486 14-07-2010 21:00:00 21.74 C 15.41 g/m*3 21.74 C 0 km/h
1487 14-07-2010 22:00:00 21.5 C 14.67 g/m*3 21.5 C 0 km/h
1488 14-07-2010 23:00:00 21.28 C 14 g/m*3 21.28 C 0 km/h
1489 15-07-2010 00:00:00 21.04 C 13.44 g/m*3 21.04 C 0 km/h
1490 15-07-2010 01:00:00 20.16 C 11.76 g/m*3 20.16 C 0 km/h
1491 15-07-2010 02:00:00 19.58 C 11.63 g/m*3 19.58 C 0 km/h
1492 15-07-2010 03:00:00 19.32 C 11.06 g/m*3 19.32 C 0 km/h
1493 15-07-2010 04:00:00 18.94 C 11.04 g/m*3 18.94 C 0 km/h
1494 15-07-2010 05:00:00 18.76 C 11.18 g/m*3 18.76 C 0 km/h
1495 15-07-2010 06:00:00 18.9 C 10.98 g/m*3 18.9 C 0 km/h
1496 15-07-2010 07:00:00 18.5 C 11.9 g/m*3 18.5 C 0 km/h
1497 15-07-2010 08:00:00 18.42 C 11.68 g/m*3 18.42 C 0 km/h
1498 15-07-2010 09:00:00 19.58 C 9.07 g/m*3 19.58 C 0 km/h
1499 15-07-2010 10:00:00 21.22 C 7.57 g/m*3 21.22 C 0 km/h
1500 15-07-2010 11:00:00 22.32 C 6.76 g/m*3 22.32 C 0 km/h
Sensor: Nr:Datum:Temp:Abs-Feuchte:Windchill:Wind:
Aussen-T/F 1501 15-07-2010 12:00:00 24.42 C 5.84 g/m*3 24.42 C 0 km/h
1502 15-07-2010 13:00:00 26.14 C 5.1 g/m*3 26.14 C 0 km/h
1503 15-07-2010 14:00:00 26.22 C 4.93 g/m*3 26.22 C 0 km/h
1504 15-07-2010 15:00:00 26.9 C 5.12 g/m*3 26.9 C 0 km/h
1505 15-07-2010 16:00:00 27.82 C 5.39 g/m*3 27.82 C 0 km/h
1506 15-07-2010 17:00:00 28.46 C 5.58 g/m*3 28.46 C 0 km/h
1507 15-07-2010 18:00:00 27.98 C 5.43 g/m*3 27.98 C 0 km/h
1508 15-07-2010 19:00:00 27.26 C 5.22 g/m*3 27.26 C 0 km/h
1509 15-07-2010 20:00:00 26.6 C 5.24 g/m*3 26.6 C 0 km/h
1510 15-07-2010 21:00:00 23.74 C 6.09 g/m*3 23.74 C 0 km/h
1511 15-07-2010 22:00:00 21.46 C 6.4 g/m*3 21.46 C 0 km/h
1512 15-07-2010 23:00:00 19.92 C 6.78 g/m*3 19.92 C 0 km/h
1513 16-07-2010 00:00:00 18.6 C 6.91 g/m*3 18.6 C 0 km/h
1514 16-07-2010 01:00:00 17.76 C 7.3 g/m*3 17.76 C 0 km/h
1515 16-07-2010 02:00:00 16.74 C 7.89 g/m*3 16.74 C 0 km/h
1516 16-07-2010 03:00:00 15.96 C 8.1 g/m*3 15.96 C 0 km/h
1517 16-07-2010 04:00:00 15.22 C 8.16 g/m*3 15.22 C 0 km/h
1518 16-07-2010 05:00:00 14.64 C 8.3 g/m*3 14.64 C 0 km/h
1519 16-07-2010 06:00:00 14.46 C 8.61 g/m*3 14.46 C 0 km/h
1520 16-07-2010 07:00:00 15.16 C 8.88 g/m*3 15.16 C 0 km/h
1521 16-07-2010 08:00:00 16.62 C 9 g/m*3 16.62 C 0 km/h
1522 16-07-2010 09:00:00 19.68 C 9.36 g/m*3 19.68 C 0 km/h
1523 16-07-2010 10:00:00 23.6 C 8.72 g/m*3 23.6 C 0 km/h
1524 16-07-2010 11:00:00 26.26 C 5.83 g/m*3 26.26 C 0 km/h
1525 16-07-2010 12:00:00 28.54 C 5.66 g/m*3 28.54 C 0 km/h
Sensor: Nr:Datum:Temp:Abs-Feuchte:Windchill:Wind:
Aussen-T/F 1526 16-07-2010 13:00:00 30.68 C 6.29 g/m*3 30.68 C 0 km/h
1527 16-07-2010 14:00:00 31.06 C 6.42 g/m*3 31.06 C 0 km/h
1528 16-07-2010 15:00:00 31.86 C 6.7 g/m*3 31.86 C 0 km/h
1529 16-07-2010 16:00:00 32.44 C 6.91 g/m*3 32.44 C 0 km/h
1530 16-07-2010 17:00:00 32.56 C 6.96 g/m*3 32.56 C 0 km/h
1531 16-07-2010 18:00:00 32.72 C 7.01 g/m*3 32.72 C 0 km/h
1532 16-07-2010 19:00:00 31.24 C 6.55 g/m*3 31.24 C 0 km/h
1533 16-07-2010 20:00:00 29.4 C 7.22 g/m*3 29.4 C 0 km/h
1534 16-07-2010 21:00:00 28.3 C 7.46 g/m*3 28.3 C 0 km/h
1535 16-07-2010 22:00:00 26.38 C 7.71 g/m*3 26.38 C 0 km/h
1536 16-07-2010 23:00:00 25.56 C 8.46 g/m*3 25.56 C 0 km/h
1537 17-07-2010 00:00:00 23.3 C 9.12 g/m*3 23.3 C 0 km/h
1538 17-07-2010 01:00:00 20.7 C 11.2 g/m*3 20.7 C 0 km/h
1539 17-07-2010 02:00:00 20.18 C 11.11 g/m*3 20.18 C 0 km/h
1540 17-07-2010 03:00:00 19.88 C 11.88 g/m*3 19.88 C 0 km/h
1541 17-07-2010 04:00:00 19.16 C 12.5 g/m*3 19.16 C 0 km/h
1542 17-07-2010 05:00:00 18.08 C 13.36 g/m*3 18.08 C 0 km/h
1543 17-07-2010 06:00:00 17.68 C 13.38 g/m*3 17.68 C 0 km/h
1544 17-07-2010 07:00:00 17.88 C 13.54 g/m*3 17.88 C 0 km/h
1545 17-07-2010 08:00:00 17.64 C 13.38 g/m*3 17.64 C 0 km/h
1546 17-07-2010 09:00:00 18.54 C 13.51 g/m*3 18.54 C 0 km/h
1547 17-07-2010 10:00:00 19.6 C 12.56 g/m*3 19.6 C 0 km/h
1548 17-07-2010 11:00:00 22.2 C 11.5 g/m*3 22.2 C 0 km/h
1549 17-07-2010 12:00:00 24.66 C 9.08 g/m*3 24.66 C 0 km/h
1550 17-07-2010 13:00:00 26.02 C 7.56 g/m*3 26.02 C 0 km/h
Sensor: Nr:Datum:Temp:Abs-Feuchte:Windchill:Wind:
Aussen-T/F 1551 17-07-2010 14:00:00 26.14 C 7.26 g/m*3 26.14 C 0 km/h
1552 17-07-2010 15:00:00 27.18 C 6.5 g/m*3 27.18 C 0 km/h
1553 17-07-2010 16:00:00 26.72 C 6.08 g/m*3 26.72 C 0 km/h
1554 17-07-2010 17:00:00 25.8 C 7.42 g/m*3 25.8 C 0 km/h
1555 17-07-2010 18:00:00 24 C 7.57 g/m*3 24 C 0 km/h
1556 17-07-2010 19:00:00 24.16 C 7.11 g/m*3 24.16 C 0 km/h
1557 17-07-2010 20:00:00 24.46 C 5.81 g/m*3 24.46 C 0 km/h
1558 17-07-2010 21:00:00 22.26 C 6.15 g/m*3 22.26 C 0 km/h
1559 17-07-2010 22:00:00 21.44 C 6.28 g/m*3 21.44 C 0 km/h
1560 17-07-2010 23:00:00 20.12 C 6.13 g/m*3 20.12 C 0 km/h
1561 18-07-2010 00:00:00 18.64 C 6.06 g/m*3 18.64 C 0 km/h
1562 18-07-2010 01:00:00 17.16 C 6.34 g/m*3 17.16 C 0 km/h
1563 18-07-2010 02:00:00 15.96 C 6.88 g/m*3 15.96 C 0 km/h
1564 18-07-2010 03:00:00 14.8 C 7.14 g/m*3 14.8 C 0 km/h
1565 18-07-2010 04:00:00 13.9 C 7.48 g/m*3 13.9 C 0 km/h
1566 18-07-2010 05:00:00 13 C 7.83 g/m*3 13 C 0 km/h
1567 18-07-2010 06:00:00 12.56 C 8.1 g/m*3 12.56 C 0 km/h
1568 18-07-2010 07:00:00 12.96 C 8.05 g/m*3 12.96 C 0 km/h
1569 18-07-2010 08:00:00 14.54 C 7.9 g/m*3 14.54 C 0 km/h
1570 18-07-2010 09:00:00 17.16 C 7.68 g/m*3 17.16 C 0 km/h
1571 18-07-2010 10:00:00 20.18 C 7.09 g/m*3 20.18 C 0 km/h
1572 18-07-2010 11:00:00 22.12 C 5.75 g/m*3 22.12 C 0 km/h
1573 18-07-2010 12:00:00 25.16 C 4.88 g/m*3 25.16 C 0 km/h
1574 18-07-2010 13:00:00 27.62 C 5.33 g/m*3 27.62 C 0 km/h
1575 18-07-2010 14:00:00 27.34 C 5.24 g/m*3 27.34 C 0 km/h
Sensor: Nr:Datum:Temp:Abs-Feuchte:Windchill:Wind:
Aussen-T/F 1576 18-07-2010 15:00:00 29.58 C 5.93 g/m*3 29.58 C 0 km/h
1577 18-07-2010 16:00:00 30.76 C 6.32 g/m*3 30.76 C 0 km/h
1578 18-07-2010 17:00:00 31.26 C 6.49 g/m*3 31.26 C 0 km/h
1579 18-07-2010 18:00:00 31.26 C 6.49 g/m*3 31.26 C 0 km/h
1580 18-07-2010 19:00:00 30.48 C 6.22 g/m*3 30.48 C 0 km/h
1581 18-07-2010 20:00:00 29.1 C 5.78 g/m*3 29.1 C 0 km/h
1582 18-07-2010 21:00:00 24.12 C 5.39 g/m*3 24.12 C 0 km/h
1583 18-07-2010 22:00:00 21.72 C 5.92 g/m*3 21.72 C 0 km/h
1584 18-07-2010 23:00:00 20.34 C 6.28 g/m*3 20.34 C 0 km/h
1585 19-07-2010 00:00:00 18.92 C 6.36 g/m*3 18.92 C 0 km/h
1586 19-07-2010 01:00:00 17.68 C 6.66 g/m*3 17.68 C 0 km/h
1587 19-07-2010 02:00:00 16.46 C 6.86 g/m*3 16.46 C 0 km/h
1588 19-07-2010 03:00:00 15.48 C 7.1 g/m*3 15.48 C 0 km/h
1589 19-07-2010 04:00:00 14.62 C 7.32 g/m*3 14.62 C 0 km/h
1590 19-07-2010 05:00:00 13.8 C 7.51 g/m*3 13.8 C 0 km/h
1591 19-07-2010 06:00:00 13.58 C 7.88 g/m*3 13.58 C 0 km/h
1592 19-07-2010 07:00:00 14.02 C 8.21 g/m*3 14.02 C 0 km/h
1593 19-07-2010 08:00:00 15.3 C 8.28 g/m*3 15.3 C 0 km/h
1594 19-07-2010 09:00:00 18.52 C 8.55 g/m*3 18.52 C 0 km/h
1595 19-07-2010 10:00:00 22.46 C 8.01 g/m*3 22.46 C 0 km/h
1596 19-07-2010 11:00:00 25.78 C 6.54 g/m*3 25.78 C 0 km/h
1597 19-07-2010 12:00:00 28.82 C 5.8 g/m*3 28.82 C 0 km/h
1598 19-07-2010 13:00:00 31.2 C 6.47 g/m*3 31.2 C 0 km/h
1599 19-07-2010 14:00:00 30.84 C 6.35 g/m*3 30.84 C 0 km/h
1600 19-07-2010 15:00:00 31.7 C 6.64 g/m*3 31.7 C 0 km/h
Sensor: Nr:Datum:Temp:Abs-Feuchte:Windchill:Wind:
Aussen-T/F 1601 19-07-2010 16:00:00 32.82 C 7.05 g/m*3 32.82 C 0 km/h
1602 19-07-2010 17:00:00 33.58 C 7.34 g/m*3 33.58 C 0 km/h
1603 19-07-2010 18:00:00 33.5 C 7.31 g/m*3 33.5 C 0 km/h
1604 19-07-2010 19:00:00 32.84 C 7.06 g/m*3 32.84 C 0 km/h
1605 19-07-2010 20:00:00 31.38 C 6.53 g/m*3 31.38 C 0 km/h
1606 19-07-2010 21:00:00 26.84 C 6.79 g/m*3 26.84 C 0 km/h
1607 19-07-2010 22:00:00 24.12 C 7.05 g/m*3 24.12 C 0 km/h
1608 19-07-2010 23:00:00 22.9 C 7.32 g/m*3 22.9 C 0 km/h
1609 20-07-2010 00:00:00 21.74 C 7.84 g/m*3 21.74 C 0 km/h
1610 20-07-2010 01:00:00 20.42 C 8.08 g/m*3 20.42 C 0 km/h
1611 20-07-2010 02:00:00 19.32 C 8.24 g/m*3 19.32 C 0 km/h
1612 20-07-2010 03:00:00 18.2 C 8.36 g/m*3 18.2 C 0 km/h
1613 20-07-2010 04:00:00 17.24 C 8.48 g/m*3 17.24 C 0 km/h
1614 20-07-2010 05:00:00 16.48 C 8.58 g/m*3 16.48 C 0 km/h
1615 20-07-2010 06:00:00 16.1 C 8.96 g/m*3 16.1 C 0 km/h
1616 20-07-2010 07:00:00 16.78 C 9.25 g/m*3 16.78 C 0 km/h
1617 20-07-2010 08:00:00 18.04 C 9.24 g/m*3 18.04 C 0 km/h
1618 20-07-2010 09:00:00 20.96 C 9.21 g/m*3 20.96 C 0 km/h
1619 20-07-2010 10:00:00 24.8 C 8.29 g/m*3 24.8 C 0 km/h
1620 20-07-2010 11:00:00 27.74 C 6.76 g/m*3 27.74 C 0 km/h
1621 20-07-2010 12:00:00 30.42 C 6.33 g/m*3 30.42 C 0 km/h
1622 20-07-2010 13:00:00 32.22 C 6.83 g/m*3 32.22 C 0 km/h
1623 20-07-2010 14:00:00 31.78 C 6.67 g/m*3 31.78 C 0 km/h
1624 20-07-2010 15:00:00 32.34 C 6.87 g/m*3 32.34 C 0 km/h
1625 20-07-2010 16:00:00 33.06 C 7.14 g/m*3 33.06 C 0 km/h
Sensor: Nr:Datum:Temp:Abs-Feuchte:Windchill:Wind:
Aussen-T/F 1626 20-07-2010 17:00:00 33.26 C 7.22 g/m*3 33.26 C 0 km/h
1627 20-07-2010 18:00:00 32.92 C 7.09 g/m*3 32.92 C 0 km/h
1628 20-07-2010 19:00:00 32.02 C 6.76 g/m*3 32.02 C 0 km/h
1629 20-07-2010 20:00:00 30.72 C 6.37 g/m*3 30.72 C 0 km/h
1630 20-07-2010 21:00:00 26.48 C 6.4 g/m*3 26.48 C 0 km/h
1631 20-07-2010 22:00:00 24.4 C 6.59 g/m*3 24.4 C 0 km/h
1632 20-07-2010 23:00:00 23.48 C 6.93 g/m*3 23.48 C 0 km/h
1633 21-07-2010 00:00:00 21.98 C 7.6 g/m*3 21.98 C 0 km/h
1634 21-07-2010 01:00:00 20.86 C 8.03 g/m*3 20.86 C 0 km/h
1635 21-07-2010 02:00:00 19.68 C 8.31 g/m*3 19.68 C 0 km/h
1636 21-07-2010 03:00:00 18.78 C 8.4 g/m*3 18.78 C 0 km/h
1637 21-07-2010 04:00:00 18.08 C 8.58 g/m*3 18.08 C 0 km/h
1638 21-07-2010 05:00:00 17.38 C 8.76 g/m*3 17.38 C 0 km/h
1639 21-07-2010 06:00:00 17.16 C 8.91 g/m*3 17.16 C 0 km/h
1640 21-07-2010 07:00:00 17.8 C 9.32 g/m*3 17.8 C 0 km/h
1641 21-07-2010 08:00:00 19.2 C 9.07 g/m*3 19.2 C 0 km/h
1642 21-07-2010 09:00:00 22.32 C 9.41 g/m*3 22.32 C 0 km/h
1643 21-07-2010 10:00:00 26.54 C 8.63 g/m*3 26.54 C 0 km/h
1644 21-07-2010 11:00:00 29.66 C 7.38 g/m*3 29.66 C 0 km/h
1645 21-07-2010 12:00:00 31.36 C 6.59 g/m*3 31.36 C 0 km/h
1646 21-07-2010 13:00:00 32.52 C 6.94 g/m*3 32.52 C 0 km/h
1647 21-07-2010 14:00:00 32.58 C 6.96 g/m*3 32.58 C 0 km/h
1648 21-07-2010 15:00:00 32.56 C 6.96 g/m*3 32.56 C 0 km/h
1649 21-07-2010 16:00:00 32.44 C 6.91 g/m*3 32.44 C 0 km/h
1650 21-07-2010 17:00:00 31.5 C 6.77 g/m*3 31.5 C 0 km/h
Sensor: Nr:Datum:Temp:Abs-Feuchte:Windchill:Wind:
Aussen-T/F 1651 21-07-2010 18:00:00 30.12 C 7.33 g/m*3 30.12 C 0 km/h
1652 21-07-2010 19:00:00 28.72 C 8.03 g/m*3 28.72 C 0 km/h
1653 21-07-2010 20:00:00 23.58 C 12.15 g/m*3 23.58 C 0 km/h
1654 21-07-2010 21:00:00 23.02 C 11.85 g/m*3 23.02 C 0 km/h
1655 21-07-2010 22:00:00 23 C 11.76 g/m*3 23 C 0 km/h
1656 21-07-2010 23:00:00 22.88 C 11.47 g/m*3 22.88 C 0 km/h
1657 22-07-2010 00:00:00 22.56 C 11.58 g/m*3 22.56 C 0 km/h
1658 22-07-2010 01:00:00 22.16 C 11.64 g/m*3 22.16 C 0 km/h
1659 22-07-2010 02:00:00 21.28 C 11.51 g/m*3 21.28 C 0 km/h
1660 22-07-2010 03:00:00 20.92 C 11.16 g/m*3 20.92 C 0 km/h
1661 22-07-2010 04:00:00 20.5 C 10.36 g/m*3 20.5 C 0 km/h
1662 22-07-2010 05:00:00 19.9 C 9.83 g/m*3 19.9 C 0 km/h
1663 22-07-2010 06:00:00 18.92 C 10.93 g/m*3 18.92 C 0 km/h
1664 22-07-2010 07:00:00 19.24 C 11.54 g/m*3 19.24 C 0 km/h
1665 22-07-2010 08:00:00 21.04 C 10.94 g/m*3 21.04 C 0 km/h
1666 22-07-2010 09:00:00 22.06 C 10.32 g/m*3 22.06 C 0 km/h
1667 22-07-2010 10:00:00 21.58 C 10.68 g/m*3 21.58 C 0 km/h
1668 22-07-2010 11:00:00 21.78 C 11.84 g/m*3 21.78 C 0 km/h
1669 22-07-2010 12:00:00 22.38 C 11.47 g/m*3 22.38 C 0 km/h
1670 22-07-2010 13:00:00 20.9 C 12.79 g/m*3 20.9 C 0 km/h
1671 22-07-2010 14:00:00 21.26 C 12.53 g/m*3 21.26 C 0 km/h
1672 22-07-2010 15:00:00 21.38 C 12.92 g/m*3 21.38 C 0 km/h
1673 22-07-2010 16:00:00 23.2 C 11.56 g/m*3 23.2 C 0 km/h
1674 22-07-2010 17:00:00 22.04 C 13.31 g/m*3 22.04 C 0 km/h
1675 22-07-2010 18:00:00 23 C 12.09 g/m*3 23 C 0 km/h
Sensor: Nr:Datum:Temp:Abs-Feuchte:Windchill:Wind:
Aussen-T/F 1676 22-07-2010 19:00:00 22.68 C 11.91 g/m*3 22.68 C 0 km/h
1677 22-07-2010 20:00:00 21.86 C 12.01 g/m*3 21.86 C 0 km/h
1678 22-07-2010 21:00:00 21.06 C 11.91 g/m*3 21.06 C 0 km/h
1679 22-07-2010 22:00:00 20.48 C 11.8 g/m*3 20.48 C 0 km/h
1680 22-07-2010 23:00:00 20.2 C 11.82 g/m*3 20.2 C 0 km/h
1681 23-07-2010 00:00:00 20.1 C 12.06 g/m*3 20.1 C 0 km/h
1682 23-07-2010 01:00:00 20 C 12.3 g/m*3 20 C 0 km/h
1683 23-07-2010 02:00:00 19.22 C 12.22 g/m*3 19.22 C 0 km/h
1684 23-07-2010 03:00:00 16.34 C 11.63 g/m*3 16.34 C 0 km/h
1685 23-07-2010 04:00:00 16.04 C 11.69 g/m*3 16.04 C 0 km/h
1686 23-07-2010 05:00:00 15.9 C 11.51 g/m*3 15.9 C 0 km/h
1687 23-07-2010 06:00:00 15.86 C 11.54 g/m*3 15.86 C 0 km/h
1688 23-07-2010 07:00:00 17.26 C 12.26 g/m*3 17.26 C 0 km/h
1689 23-07-2010 08:00:00 18.02 C 12.09 g/m*3 18.02 C 0 km/h
1690 23-07-2010 09:00:00 19.08 C 11.82 g/m*3 19.08 C 0 km/h
1691 23-07-2010 10:00:00 21.4 C 10.46 g/m*3 21.4 C 0 km/h
1692 23-07-2010 11:00:00 24.14 C 9.69 g/m*3 24.14 C 0 km/h
1693 23-07-2010 12:00:00 26.46 C 8.09 g/m*3 26.46 C 0 km/h
1694 23-07-2010 13:00:00 27.82 C 6.62 g/m*3 27.82 C 0 km/h
1695 23-07-2010 14:00:00 29.34 C 6.55 g/m*3 29.34 C 0 km/h
1696 23-07-2010 15:00:00 28.4 C 6.39 g/m*3 28.4 C 0 km/h
1697 23-07-2010 16:00:00 28.54 C 6.33 g/m*3 28.54 C 0 km/h
1698 23-07-2010 17:00:00 22.32 C 9.33 g/m*3 22.32 C 0 km/h
1699 23-07-2010 18:00:00 18.1 C 11.53 g/m*3 18.1 C 0 km/h
1700 23-07-2010 19:00:00 16.96 C 12.18 g/m*3 16.96 C 0 km/h
Sensor: Nr:Datum:Temp:Abs-Feuchte:Windchill:Wind:
Aussen-T/F 1701 23-07-2010 20:00:00 15.98 C 12.3 g/m*3 15.98 C 0 km/h
1702 23-07-2010 21:00:00 15.58 C 12.25 g/m*3 15.58 C 0 km/h
1703 23-07-2010 22:00:00 15.125 C 12.02 g/m*3 15.13 C 0 km/h
1704 23-07-2010 23:00:00 15.1 C 12.08 g/m*3 15.1 C 0 km/h
1705 24-07-2010 00:00:00 15.02 C 12.07 g/m*3 15.02 C 0 km/h
1706 24-07-2010 01:00:00 15.12 C 12.14 g/m*3 15.12 C 0 km/h
1707 24-07-2010 02:00:00 15.26 C 12.38 g/m*3 15.26 C 0 km/h
1708 24-07-2010 03:00:00 15.56 C 12.6 g/m*3 15.56 C 0 km/h
1709 24-07-2010 04:00:00 15.64 C 12.4 g/m*3 15.64 C 0 km/h
1710 24-07-2010 05:00:00 15.54 C 11.95 g/m*3 15.54 C 0 km/h
1711 24-07-2010 06:00:00 15.42 C 11.65 g/m*3 15.42 C 0 km/h
1712 24-07-2010 07:00:00 15.5 C 11.58 g/m*3 15.5 C 0 km/h
1713 24-07-2010 08:00:00 16.16 C 11.31 g/m*3 16.16 C 0 km/h
1714 24-07-2010 09:00:00 17.24 C 10.8 g/m*3 17.24 C 0 km/h
1715 24-07-2010 10:00:00 18.62 C 9.66 g/m*3 18.62 C 0 km/h
1716 24-07-2010 11:00:00 19.44 C 8.83 g/m*3 19.44 C 0 km/h
1717 24-07-2010 12:00:00 20.52 C 8.19 g/m*3 20.52 C 0 km/h
1718 24-07-2010 13:00:00 22.72 C 6.63 g/m*3 22.72 C 0 km/h
1719 24-07-2010 14:00:00 23.48 C 6.17 g/m*3 23.48 C 0 km/h
1720 24-07-2010 15:00:00 24.1 C 5.47 g/m*3 24.1 C 0 km/h
1721 24-07-2010 16:00:00 23.86 C 4.66 g/m*3 23.86 C 0 km/h
1722 24-07-2010 17:00:00 24.36 C 4.44 g/m*3 24.36 C 0 km/h
1723 24-07-2010 18:00:00 23.48 C 4.22 g/m*3 23.48 C 0 km/h
1724 24-07-2010 19:00:00 23.22 C 4.16 g/m*3 23.22 C 0 km/h
1725 24-07-2010 20:00:00 22.72 C 4.05 g/m*3 22.72 C 0 km/h
Sensor: Nr:Datum:Temp:Abs-Feuchte:Windchill:Wind:
Aussen-T/F 1726 24-07-2010 21:00:00 19.76 C 4.5 g/m*3 19.76 C 0 km/h
1727 24-07-2010 22:00:00 17.5 C 5.19 g/m*3 17.5 C 0 km/h
1728 24-07-2010 23:00:00 15.92 C 6.1 g/m*3 15.92 C 0 km/h
1729 25-07-2010 00:00:00 14.54 C 6.58 g/m*3 14.54 C 0 km/h
1730 25-07-2010 01:00:00 13.5 C 6.81 g/m*3 13.5 C 0 km/h
1731 25-07-2010 02:00:00 12.7 C 6.97 g/m*3 12.7 C 0 km/h
1732 25-07-2010 03:00:00 11.86 C 7.06 g/m*3 11.86 C 0 km/h
1733 25-07-2010 04:00:00 10.96 C 7.31 g/m*3 10.96 C 0 km/h
1734 25-07-2010 05:00:00 10.16 C 7.38 g/m*3 10.16 C 0 km/h
1735 25-07-2010 06:00:00 10.04 C 7.4 g/m*3 10.04 C 0 km/h
1736 25-07-2010 07:00:00 10.92 C 7.55 g/m*3 10.92 C 0 km/h
1737 25-07-2010 08:00:00 12.12 C 7.9 g/m*3 12.12 C 0 km/h
1738 25-07-2010 09:00:00 14.94 C 7.61 g/m*3 14.94 C 0 km/h
1739 25-07-2010 10:00:00 17.8 C 6.77 g/m*3 17.8 C 0 km/h
1740 25-07-2010 11:00:00 20.86 C 6.14 g/m*3 20.86 C 0 km/h
1741 25-07-2010 12:00:00 22.94 C 5.9 g/m*3 22.94 C 0 km/h
1742 25-07-2010 13:00:00 23.38 C 6.22 g/m*3 23.38 C 0 km/h
1743 25-07-2010 14:00:00 22.2 C 6.95 g/m*3 22.2 C 0 km/h
1744 25-07-2010 15:00:00 21.58 C 7.01 g/m*3 21.58 C 0 km/h
1745 25-07-2010 16:00:00 21.98 C 7.13 g/m*3 21.98 C 0 km/h
1746 25-07-2010 17:00:00 23.4 C 6.6 g/m*3 23.4 C 0 km/h
1747 25-07-2010 18:00:00 22.26 C 7.53 g/m*3 22.26 C 0 km/h
1748 25-07-2010 19:00:00 20.8 C 7.89 g/m*3 20.8 C 0 km/h
1749 25-07-2010 20:00:00 20.16 C 7.82 g/m*3 20.16 C 0 km/h
1750 25-07-2010 21:00:00 19.08 C 9.43 g/m*3 19.08 C 0 km/h
Sensor: Nr:Datum:Temp:Abs-Feuchte:Windchill:Wind:
Aussen-T/F 1751 25-07-2010 22:00:00 18.38 C 10.18 g/m*3 18.38 C 0 km/h
1752 25-07-2010 23:00:00 17.88 C 10.28 g/m*3 17.88 C 0 km/h
1753 26-07-2010 00:00:00 17.56 C 9.93 g/m*3 17.56 C 0 km/h
1754 26-07-2010 01:00:00 17.26 C 9.99 g/m*3 17.26 C 0 km/h
1755 26-07-2010 02:00:00 16.8 C 10.04 g/m*3 16.8 C 0 km/h
1756 26-07-2010 03:00:00 16.42 C 10.2 g/m*3 16.42 C 0 km/h
1757 26-07-2010 04:00:00 16.24 C 10.59 g/m*3 16.24 C 0 km/h
1758 26-07-2010 05:00:00 15.52 C 11.28 g/m*3 15.52 C 0 km/h
1759 26-07-2010 06:00:00 15.4 C 11.46 g/m*3 15.4 C 0 km/h
1760 26-07-2010 07:00:00 16.02 C 11.95 g/m*3 16.02 C 0 km/h
1761 26-07-2010 08:00:00 16.98 C 11.91 g/m*3 16.98 C 0 km/h
1762 26-07-2010 09:00:00 18.38 C 11.72 g/m*3 18.38 C 0 km/h
1763 26-07-2010 10:00:00 20.24 C 10.76 g/m*3 20.24 C 0 km/h
1764 26-07-2010 11:00:00 20.94 C 10.59 g/m*3 20.94 C 0 km/h
1765 26-07-2010 12:00:00 19.04 C 12.55 g/m*3 19.04 C 0 km/h
1766 26-07-2010 13:00:00 18.16 C 12.72 g/m*3 18.16 C 0 km/h
1767 26-07-2010 14:00:00 17.36 C 13.16 g/m*3 17.36 C 0 km/h
1768 26-07-2010 15:00:00 17.92 C 13.7 g/m*3 17.92 C 0 km/h
1769 26-07-2010 16:00:00 19.68 C 13.4 g/m*3 19.68 C 0 km/h
1770 26-07-2010 17:00:00 19.08 C 11.33 g/m*3 19.08 C 0 km/h
1771 26-07-2010 18:00:00 17.16 C 11.34 g/m*3 17.16 C 0 km/h
1772 26-07-2010 19:00:00 16.92 C 11.61 g/m*3 16.92 C 0 km/h
1773 26-07-2010 20:00:00 16.16 C 11.12 g/m*3 16.16 C 0 km/h
1774 26-07-2010 21:00:00 15.3 C 11.28 g/m*3 15.3 C 0 km/h
1775 26-07-2010 22:00:00 15.22 C 10.86 g/m*3 15.22 C 0 km/h
Sensor: Nr:Datum:Temp:Abs-Feuchte:Windchill:Wind:
Aussen-T/F 1776 26-07-2010 23:00:00 15.26 C 10.84 g/m*3 15.26 C 0 km/h
1777 27-07-2010 00:00:00 15.34 C 11.13 g/m*3 15.34 C 0 km/h
1778 27-07-2010 01:00:00 15.48 C 11.2 g/m*3 15.48 C 0 km/h
1779 27-07-2010 02:00:00 15.6 C 11.04 g/m*3 15.6 C 0 km/h
1780 27-07-2010 03:00:00 15.42 C 10.97 g/m*3 15.42 C 0 km/h
1781 27-07-2010 04:00:00 15.26 C 10.84 g/m*3 15.26 C 0 km/h
1782 27-07-2010 05:00:00 15.14 C 10.84 g/m*3 15.14 C 0 km/h
1783 27-07-2010 06:00:00 15.28 C 10.77 g/m*3 15.28 C 0 km/h
1784 27-07-2010 07:00:00 15.68 C 10.64 g/m*3 15.68 C 0 km/h
1785 27-07-2010 08:00:00 16.22 C 10.6 g/m*3 16.22 C 0 km/h
1786 27-07-2010 09:00:00 16.88 C 10.54 g/m*3 16.88 C 0 km/h
1787 27-07-2010 10:00:00 18.52 C 10.07 g/m*3 18.52 C 0 km/h
1788 27-07-2010 11:00:00 20.18 C 9.57 g/m*3 20.18 C 0 km/h
1789 27-07-2010 12:00:00 22.08 C 9.09 g/m*3 22.08 C 0 km/h
1790 27-07-2010 13:00:00 23.96 C 7.9 g/m*3 23.96 C 0 km/h
1791 27-07-2010 14:00:00 24.42 C 7.66 g/m*3 24.42 C 0 km/h
1792 27-07-2010 15:00:00 25.38 C 7.57 g/m*3 25.38 C 0 km/h
1793 27-07-2010 16:00:00 27.9 C 6.82 g/m*3 27.9 C 0 km/h
1794 27-07-2010 17:00:00 28.32 C 6.2 g/m*3 28.32 C 0 km/h
1795 27-07-2010 18:00:00 25.06 C 7.67 g/m*3 25.06 C 0 km/h
1796 27-07-2010 19:00:00 23.42 C 8.63 g/m*3 23.42 C 0 km/h
1797 27-07-2010 20:00:00 22 C 8.38 g/m*3 22 C 0 km/h
1798 27-07-2010 21:00:00 20.46 C 8.7 g/m*3 20.46 C 0 km/h
1799 27-07-2010 22:00:00 19.12 C 9.16 g/m*3 19.12 C 0 km/h
1800 27-07-2010 23:00:00 18.44 C 9.33 g/m*3 18.44 C 0 km/h
Sensor: Nr:Datum:Temp:Abs-Feuchte:Windchill:Wind:
Aussen-T/F 1801 28-07-2010 00:00:00 18.2 C 9.79 g/m*3 18.2 C 0 km/h
1802 28-07-2010 01:00:00 17.16 C 9.85 g/m*3 17.16 C 0 km/h
1803 28-07-2010 02:00:00 16.96 C 10.22 g/m*3 16.96 C 0 km/h
1804 28-07-2010 03:00:00 17.04 C 10.33 g/m*3 17.04 C 0 km/h
1805 28-07-2010 04:00:00 16.96 C 10.48 g/m*3 16.96 C 0 km/h
1806 28-07-2010 05:00:00 16.84 C 10.58 g/m*3 16.84 C 0 km/h
1807 28-07-2010 06:00:00 17.02 C 10.81 g/m*3 17.02 C 0 km/h
1808 28-07-2010 07:00:00 16.32 C 12.11 g/m*3 16.32 C 0 km/h
1809 28-07-2010 08:00:00 17.1 C 13.01 g/m*3 17.1 C 0 km/h
1810 28-07-2010 09:00:00 17.56 C 12.78 g/m*3 17.56 C 0 km/h
1811 28-07-2010 10:00:00 17.7 C 13.25 g/m*3 17.7 C 0 km/h
1812 28-07-2010 11:00:00 20.26 C 13.58 g/m*3 20.26 C 0 km/h
1813 28-07-2010 12:00:00 21.22 C 13.02 g/m*3 21.22 C 0 km/h
1814 28-07-2010 13:00:00 23.74 C 12.26 g/m*3 23.74 C 0 km/h
1815 28-07-2010 14:00:00 25.74 C 9.31 g/m*3 25.74 C 0 km/h
1816 28-07-2010 15:00:00 26 C 7.69 g/m*3 26 C 0 km/h
1817 28-07-2010 16:00:00 27.78 C 7.04 g/m*3 27.78 C 0 km/h
1818 28-07-2010 17:00:00 28.8 C 6.65 g/m*3 28.8 C 0 km/h
1819 28-07-2010 18:00:00 26.74 C 6.7 g/m*3 26.74 C 0 km/h
1820 28-07-2010 19:00:00 22.5 C 10.07 g/m*3 22.5 C 0 km/h
1821 28-07-2010 20:00:00 21.78 C 10.2 g/m*3 21.78 C 0 km/h
1822 28-07-2010 21:00:00 20.6 C 10.63 g/m*3 20.6 C 0 km/h
1823 28-07-2010 22:00:00 19.78 C 11.26 g/m*3 19.78 C 0 km/h
1824 28-07-2010 23:00:00 18.38 C 13.01 g/m*3 18.38 C 0 km/h
1825 29-07-2010 00:00:00 17.16 C 13.12 g/m*3 17.16 C 0 km/h
Sensor: Nr:Datum:Temp:Abs-Feuchte:Windchill:Wind:
Aussen-T/F 1826 29-07-2010 01:00:00 16.06 C 12.63 g/m*3 16.06 C 0 km/h
1827 29-07-2010 02:00:00 15.16 C 12.04 g/m*3 15.16 C 0 km/h
1828 29-07-2010 03:00:00 14.76 C 11.85 g/m*3 14.76 C 0 km/h
1829 29-07-2010 04:00:00 14.44 C 11.65 g/m*3 14.44 C 0 km/h
1830 29-07-2010 05:00:00 14.34 C 11.6 g/m*3 14.34 C 0 km/h
1831 29-07-2010 06:00:00 14.62 C 11.9 g/m*3 14.62 C 0 km/h
1832 29-07-2010 07:00:00 14.88 C 12.07 g/m*3 14.88 C 0 km/h
1833 29-07-2010 08:00:00 15.38 C 12.47 g/m*3 15.38 C 0 km/h
1834 29-07-2010 09:00:00 15.48 C 12.23 g/m*3 15.48 C 0 km/h
1835 29-07-2010 10:00:00 15.22 C 11.67 g/m*3 15.22 C 0 km/h
1836 29-07-2010 11:00:00 14.64 C 11.42 g/m*3 14.64 C 0 km/h
1837 29-07-2010 12:00:00 17.28 C 12.6 g/m*3 17.28 C 0 km/h
1838 29-07-2010 13:00:00 18.44 C 11.1 g/m*3 18.44 C 0 km/h
1839 29-07-2010 14:00:00 17.76 C 10.93 g/m*3 17.76 C 0 km/h
1840 29-07-2010 15:00:00 18.24 C 10.75 g/m*3 18.24 C 0 km/h
1841 29-07-2010 16:00:00 19.64 C 10.93 g/m*3 19.64 C 0 km/h
1842 29-07-2010 17:00:00 17.12 C 11.16 g/m*3 17.12 C 0 km/h
1843 29-07-2010 18:00:00 17.82 C 11.31 g/m*3 17.82 C 0 km/h
1844 29-07-2010 19:00:00 18.34 C 9.69 g/m*3 18.34 C 0 km/h
1845 29-07-2010 20:00:00 17.6 C 9.51 g/m*3 17.6 C 0 km/h
1846 29-07-2010 21:00:00 16.04 C 9.92 g/m*3 16.04 C 0 km/h
1847 29-07-2010 22:00:00 15.66 C 9.9 g/m*3 15.66 C 0 km/h
1848 29-07-2010 23:00:00 15.7 C 9.61 g/m*3 15.7 C 0 km/h
1849 30-07-2010 00:00:00 15.2 C 9.84 g/m*3 15.2 C 0 km/h
1850 30-07-2010 01:00:00 15.2 C 9.86 g/m*3 15.2 C 0 km/h
Sensor: Nr:Datum:Temp:Abs-Feuchte:Windchill:Wind:
Aussen-T/F 1851 30-07-2010 02:00:00 14.74 C 9.89 g/m*3 14.74 C 0 km/h
1852 30-07-2010 03:00:00 14.6 C 10.24 g/m*3 14.6 C 0 km/h
1853 30-07-2010 04:00:00 14.42 C 10.4 g/m*3 14.42 C 0 km/h
1854 30-07-2010 05:00:00 14.7 C 10.6 g/m*3 14.7 C 0 km/h
1855 30-07-2010 06:00:00 14.76 C 10.51 g/m*3 14.76 C 0 km/h
1856 30-07-2010 07:00:00 15.18 C 10.53 g/m*3 15.18 C 0 km/h
1857 30-07-2010 08:00:00 16.28 C 10.56 g/m*3 16.28 C 0 km/h
1858 30-07-2010 09:00:00 17.26 C 9.79 g/m*3 17.26 C 0 km/h
1859 30-07-2010 10:00:00 19 C 9 g/m*3 19 C 0 km/h
1860 30-07-2010 11:00:00 22 C 8.35 g/m*3 22 C 0 km/h
1861 30-07-2010 12:00:00 21.54 C 8.32 g/m*3 21.54 C 0 km/h
1862 30-07-2010 13:00:00 24 C 7.48 g/m*3 24 C 0 km/h
1863 30-07-2010 14:00:00 24.48 C 7.6 g/m*3 24.48 C 0 km/h
1864 30-07-2010 15:00:00 25.14 C 7.15 g/m*3 25.14 C 0 km/h
1865 30-07-2010 16:00:00 25.94 C 6.6 g/m*3 25.94 C 0 km/h
1866 30-07-2010 17:00:00 26.82 C 6.42 g/m*3 26.82 C 0 km/h
1867 30-07-2010 18:00:00 26.8 C 6.06 g/m*3 26.8 C 0 km/h
1868 30-07-2010 19:00:00 26.02 C 6.97 g/m*3 26.02 C 0 km/h
1869 30-07-2010 20:00:00 22.54 C 7.53 g/m*3 22.54 C 0 km/h
1870 30-07-2010 21:00:00 19.84 C 7.7 g/m*3 19.84 C 0 km/h
1871 30-07-2010 22:00:00 18.5 C 7.47 g/m*3 18.5 C 0 km/h
1872 30-07-2010 23:00:00 17 C 8.54 g/m*3 17 C 0 km/h
1873 31-07-2010 00:00:00 15.92 C 8.73 g/m*3 15.92 C 0 km/h
1874 31-07-2010 01:00:00 14.84 C 8.79 g/m*3 14.84 C 0 km/h
1875 31-07-2010 02:00:00 14.04 C 8.66 g/m*3 14.04 C 0 km/h
Sensor: Nr:Datum:Temp:Abs-Feuchte:Windchill:Wind:
Aussen-T/F 1876 31-07-2010 03:00:00 13.34 C 8.64 g/m*3 13.34 C 0 km/h
1877 31-07-2010 04:00:00 12.7 C 8.66 g/m*3 12.7 C 0 km/h
1878 31-07-2010 05:00:00 12.26 C 8.67 g/m*3 12.26 C 0 km/h
1879 31-07-2010 06:00:00 12.02 C 8.77 g/m*3 12.02 C 0 km/h
1880 31-07-2010 07:00:00 12.6 C 9.12 g/m*3 12.6 C 0 km/h
1881 31-07-2010 08:00:00 13.84 C 9.27 g/m*3 13.84 C 0 km/h
1882 31-07-2010 09:00:00 16.36 C 9.55 g/m*3 16.36 C 0 km/h
1883 31-07-2010 10:00:00 22 C 9.04 g/m*3 22 C 0 km/h
1884 31-07-2010 11:00:00 23.48 C 7.44 g/m*3 23.48 C 0 km/h
1885 31-07-2010 12:00:00 24.12 C 6.83 g/m*3 24.12 C 0 km/h
1886 31-07-2010 13:00:00 25.56 C 6.56 g/m*3 25.56 C 0 km/h
1887 31-07-2010 14:00:00 26.84 C 6.63 g/m*3 26.84 C 0 km/h
1888 31-07-2010 15:00:00 27.88 C 6.32 g/m*3 27.88 C 0 km/h
1889 31-07-2010 16:00:00 29.44 C 6 g/m*3 29.44 C 0 km/h
1890 31-07-2010 17:00:00 29.84 C 6.01 g/m*3 29.84 C 0 km/h
1891 31-07-2010 18:00:00 29.86 C 6.08 g/m*3 29.86 C 0 km/h
1892 31-07-2010 19:00:00 27.88 C 7.24 g/m*3 27.88 C 0 km/h
1893 31-07-2010 20:00:00 24.6 C 8.19 g/m*3 24.6 C 0 km/h
1894 31-07-2010 21:00:00 23.04 C 8.41 g/m*3 23.04 C 0 km/h
1895 31-07-2010 22:00:00 22.02 C 9.17 g/m*3 22.02 C 0 km/h
1896 31-07-2010 23:00:00 20.5 C 11.74 g/m*3 20.5 C 0 km/h
1897 01-08-2010 00:00:00 19.4 C 12.38 g/m*3 19.4 C 0 km/h
1898 01-08-2010 01:00:00 18.26 C 13.1 g/m*3 18.26 C 0 km/h
1899 01-08-2010 02:00:00 18.1 C 13.38 g/m*3 18.1 C 0 km/h
1900 01-08-2010 03:00:00 17.98 C 13.16 g/m*3 17.98 C 0 km/h
Sensor: Nr:Datum:Temp:Abs-Feuchte:Windchill:Wind:
Aussen-T/F 1901 01-08-2010 04:00:00 17.84 C 12.93 g/m*3 17.84 C 0 km/h
1902 01-08-2010 05:00:00 17.72 C 12.78 g/m*3 17.72 C 0 km/h
1903 01-08-2010 06:00:00 17.42 C 13.15 g/m*3 17.42 C 0 km/h
1904 01-08-2010 07:00:00 18.34 C 13.73 g/m*3 18.34 C 0 km/h
1905 01-08-2010 08:00:00 19.68 C 13.77 g/m*3 19.68 C 0 km/h
1906 01-08-2010 09:00:00 20.86 C 13.56 g/m*3 20.86 C 0 km/h
1907 01-08-2010 10:00:00 21.94 C 13.58 g/m*3 21.94 C 0 km/h
1908 01-08-2010 11:00:00 24.06 C 12.92 g/m*3 24.06 C 0 km/h
1909 01-08-2010 12:00:00 25.46 C 10.72 g/m*3 25.46 C 0 km/h
1910 01-08-2010 13:00:00 27.84 C 9.43 g/m*3 27.84 C 0 km/h
1911 01-08-2010 14:00:00 29.02 C 7.94 g/m*3 29.02 C 0 km/h
1912 01-08-2010 15:00:00 30.04 C 7.23 g/m*3 30.04 C 0 km/h
1913 01-08-2010 16:00:00 30.66 C 7.1 g/m*3 30.66 C 0 km/h
1914 01-08-2010 17:00:00 30.1 C 7.44 g/m*3 30.1 C 0 km/h
1915 01-08-2010 18:00:00 28.36 C 8.38 g/m*3 28.36 C 0 km/h
1916 01-08-2010 19:00:00 25.88 C 9.48 g/m*3 25.88 C 0 km/h
1917 01-08-2010 20:00:00 24.64 C 10.24 g/m*3 24.64 C 0 km/h
1918 01-08-2010 21:00:00 23.16 C 9.83 g/m*3 23.16 C 0 km/h
1919 01-08-2010 22:00:00 21.96 C 9.53 g/m*3 21.96 C 0 km/h
1920 01-08-2010 23:00:00 21.08 C 9.97 g/m*3 21.08 C 0 km/h
1921 02-08-2010 00:00:00 19.74 C 10.01 g/m*3 19.74 C 0 km/h
1922 02-08-2010 01:00:00 19.24 C 10.28 g/m*3 19.24 C 0 km/h
1923 02-08-2010 02:00:00 18.64 C 10.53 g/m*3 18.64 C 0 km/h
1924 02-08-2010 03:00:00 17.94 C 10.62 g/m*3 17.94 C 0 km/h
1925 02-08-2010 04:00:00 17.1 C 10.86 g/m*3 17.1 C 0 km/h
Sensor: Nr:Datum:Temp:Abs-Feuchte:Windchill:Wind:
Aussen-T/F 1926 02-08-2010 05:00:00 16.32 C 10.64 g/m*3 16.32 C 0 km/h
1927 02-08-2010 06:00:00 16.48 C 10.91 g/m*3 16.48 C 0 km/h
1928 02-08-2010 07:00:00 16.38 C 10.96 g/m*3 16.38 C 0 km/h
1929 02-08-2010 08:00:00 16.86 C 11.16 g/m*3 16.86 C 0 km/h
1930 02-08-2010 09:00:00 18.68 C 11.16 g/m*3 18.68 C 0 km/h
1931 02-08-2010 10:00:00 20.88 C 10.59 g/m*3 20.88 C 0 km/h
1932 02-08-2010 11:00:00 23.84 C 9.31 g/m*3 23.84 C 0 km/h
1933 02-08-2010 12:00:00 25.54 C 8.16 g/m*3 25.54 C 0 km/h
1934 02-08-2010 13:00:00 23.28 C 8.65 g/m*3 23.28 C 0 km/h
1935 02-08-2010 14:00:00 20.48 C 11.23 g/m*3 20.48 C 0 km/h
1936 02-08-2010 15:00:00 21.32 C 11.23 g/m*3 21.32 C 0 km/h
1937 02-08-2010 16:00:00 23.06 C 10.93 g/m*3 23.06 C 0 km/h
1938 02-08-2010 17:00:00 24.2 C 9.77 g/m*3 24.2 C 0 km/h
1939 02-08-2010 18:00:00 21.28 C 11.17 g/m*3 21.28 C 0 km/h
1940 02-08-2010 19:00:00 20.02 C 12.35 g/m*3 20.02 C 0 km/h
1941 02-08-2010 20:00:00 18.6 C 13.5 g/m*3 18.6 C 0 km/h
1942 02-08-2010 21:00:00 17.58 C 13.45 g/m*3 17.58 C 0 km/h
1943 02-08-2010 22:00:00 17.12 C 13.32 g/m*3 17.12 C 0 km/h
1944 02-08-2010 23:00:00 16.04 C 12.43 g/m*3 16.04 C 0 km/h
1945 03-08-2010 00:00:00 15.94 C 12.08 g/m*3 15.94 C 0 km/h
1946 03-08-2010 01:00:00 15.96 C 12.02 g/m*3 15.96 C 0 km/h
1947 03-08-2010 02:00:00 15.46 C 11.76 g/m*3 15.46 C 0 km/h
1948 03-08-2010 03:00:00 15.26 C 12.06 g/m*3 15.26 C 0 km/h
1949 03-08-2010 04:00:00 15.02 C 12.04 g/m*3 15.02 C 0 km/h
1950 03-08-2010 05:00:00 14.96 C 12.08 g/m*3 14.96 C 0 km/h
Sensor: Nr:Datum:Temp:Abs-Feuchte:Windchill:Wind:
Aussen-T/F 1951 03-08-2010 06:00:00 14.62 C 11.9 g/m*3 14.62 C 0 km/h
1952 03-08-2010 07:00:00 15.06 C 12.23 g/m*3 15.06 C 0 km/h
1953 03-08-2010 08:00:00 15.96 C 12.37 g/m*3 15.96 C 0 km/h
1954 03-08-2010 09:00:00 16.78 C 11.71 g/m*3 16.78 C 0 km/h
1955 03-08-2010 10:00:00 17.64 C 11.03 g/m*3 17.64 C 0 km/h
1956 03-08-2010 11:00:00 18.94 C 9.58 g/m*3 18.94 C 0 km/h
1957 03-08-2010 12:00:00 21.22 C 7.94 g/m*3 21.22 C 0 km/h
1958 03-08-2010 13:00:00 21.34 C 7.66 g/m*3 21.34 C 0 km/h
1959 03-08-2010 14:00:00 21.88 C 8.29 g/m*3 21.88 C 0 km/h
1960 03-08-2010 15:00:00 24.2 C 6.29 g/m*3 24.2 C 0 km/h
1961 03-08-2010 16:00:00 25.38 C 5.31 g/m*3 25.38 C 0 km/h
1962 03-08-2010 17:00:00 25.84 C 4.97 g/m*3 25.84 C 0 km/h
1963 03-08-2010 18:00:00 26.12 C 5.15 g/m*3 26.12 C 0 km/h
1964 03-08-2010 19:00:00 23.6 C 5.91 g/m*3 23.6 C 0 km/h
1965 03-08-2010 20:00:00 21.72 C 7.22 g/m*3 21.72 C 0 km/h
1966 03-08-2010 21:00:00 18.32 C 7.61 g/m*3 18.32 C 0 km/h
1967 03-08-2010 22:00:00 17.26 C 8.29 g/m*3 17.26 C 0 km/h
1968 03-08-2010 23:00:00 16.12 C 8.51 g/m*3 16.12 C 0 km/h
1969 04-08-2010 00:00:00 15.44 C 8.98 g/m*3 15.44 C 0 km/h
1970 04-08-2010 01:00:00 15.68 C 9.22 g/m*3 15.68 C 0 km/h
1971 04-08-2010 02:00:00 15.42 C 9.71 g/m*3 15.42 C 0 km/h
1972 04-08-2010 03:00:00 15.36 C 9.7 g/m*3 15.36 C 0 km/h
1973 04-08-2010 04:00:00 15.2 C 9.53 g/m*3 15.2 C 0 km/h
1974 04-08-2010 05:00:00 15.14 C 9.57 g/m*3 15.14 C 0 km/h
1975 04-08-2010 06:00:00 15.28 C 9.78 g/m*3 15.28 C 0 km/h
Sensor: Nr:Datum:Temp:Abs-Feuchte:Windchill:Wind:
Aussen-T/F 1976 04-08-2010 07:00:00 15.88 C 10.01 g/m*3 15.88 C 0 km/h
1977 04-08-2010 08:00:00 16.86 C 9.96 g/m*3 16.86 C 0 km/h
1978 04-08-2010 09:00:00 18.8 C 9.86 g/m*3 18.8 C 0 km/h
1979 04-08-2010 10:00:00 21.08 C 9.13 g/m*3 21.08 C 0 km/h
1980 04-08-2010 11:00:00 22.5 C 8.11 g/m*3 22.5 C 0 km/h
1981 04-08-2010 12:00:00 23.72 C 7.02 g/m*3 23.72 C 0 km/h
1982 04-08-2010 13:00:00 24.98 C 6.39 g/m*3 24.98 C 0 km/h
1983 04-08-2010 14:00:00 24.56 C 6.65 g/m*3 24.56 C 0 km/h
1984 04-08-2010 15:00:00 23.88 C 6.83 g/m*3 23.88 C 0 km/h
1985 04-08-2010 16:00:00 23.36 C 7.01 g/m*3 23.36 C 0 km/h
1986 04-08-2010 17:00:00 23.1 C 7.23 g/m*3 23.1 C 0 km/h
1987 04-08-2010 18:00:00 23.32 C 7.37 g/m*3 23.32 C 0 km/h
1988 04-08-2010 19:00:00 22.44 C 7.84 g/m*3 22.44 C 0 km/h
1989 04-08-2010 20:00:00 21.14 C 8.98 g/m*3 21.14 C 0 km/h
1990 04-08-2010 21:00:00 20.1 C 9.11 g/m*3 20.1 C 0 km/h
1991 04-08-2010 22:00:00 19.325 C 10.09 g/m*3 19.33 C 0 km/h
1992 04-08-2010 23:00:00 18.32 C 11.46 g/m*3 18.32 C 0 km/h
1993 05-08-2010 00:00:00 16.78 C 12.37 g/m*3 16.78 C 0 km/h
1994 05-08-2010 01:00:00 16.28 C 12.44 g/m*3 16.28 C 0 km/h
1995 05-08-2010 02:00:00 15.82 C 12.37 g/m*3 15.82 C 0 km/h
1996 05-08-2010 03:00:00 15.54 C 12.3 g/m*3 15.54 C 0 km/h
1997 05-08-2010 04:00:00 15.3 C 12.14 g/m*3 15.3 C 0 km/h
1998 05-08-2010 05:00:00 15.32 C 12.21 g/m*3 15.32 C 0 km/h
1999 05-08-2010 06:00:00 15.68 C 12.56 g/m*3 15.68 C 0 km/h
2000 05-08-2010 07:00:00 15.72 C 12.57 g/m*3 15.72 C 0 km/h
Sensor: Nr:Datum:Temp:Abs-Feuchte:Windchill:Wind:
Aussen-T/F 2001 05-08-2010 08:00:00 16.2 C 12.55 g/m*3 16.2 C 0 km/h
2002 05-08-2010 09:00:00 16.84 C 11.44 g/m*3 16.84 C 0 km/h
2003 05-08-2010 10:00:00 17.46 C 10.38 g/m*3 17.46 C 0 km/h
2004 05-08-2010 11:00:00 18.36 C 9.67 g/m*3 18.36 C 0 km/h
2005 05-08-2010 12:00:00 18.42 C 9.35 g/m*3 18.42 C 0 km/h
2006 05-08-2010 13:00:00 18.98 C 8.2 g/m*3 18.98 C 0 km/h
2007 05-08-2010 14:00:00 21.28 C 7.56 g/m*3 21.28 C 0 km/h
2008 05-08-2010 15:00:00 23 C 6.41 g/m*3 23 C 0 km/h
2009 05-08-2010 16:00:00 25.08 C 5.69 g/m*3 25.08 C 0 km/h
2010 05-08-2010 17:00:00 23.98 C 5.3 g/m*3 23.98 C 0 km/h
2011 05-08-2010 18:00:00 22.7 C 5.62 g/m*3 22.7 C 0 km/h
2012 05-08-2010 19:00:00 21.26 C 6.17 g/m*3 21.26 C 0 km/h
2013 05-08-2010 20:00:00 20.22 C 6.9 g/m*3 20.22 C 0 km/h
2014 05-08-2010 21:00:00 18.94 C 7.15 g/m*3 18.94 C 0 km/h
2015 05-08-2010 22:00:00 17.7 C 7.48 g/m*3 17.7 C 0 km/h
2016 05-08-2010 23:00:00 17 C 8.1 g/m*3 17 C 0 km/h
2017 06-08-2010 00:00:00 16.02 C 8.48 g/m*3 16.02 C 0 km/h
2018 06-08-2010 01:00:00 15.26 C 8.62 g/m*3 15.26 C 0 km/h
2019 06-08-2010 02:00:00 14.52 C 8.87 g/m*3 14.52 C 0 km/h
2020 06-08-2010 03:00:00 13.96 C 8.86 g/m*3 13.96 C 0 km/h
2021 06-08-2010 04:00:00 13.44 C 9.3 g/m*3 13.44 C 0 km/h
2022 06-08-2010 05:00:00 12.96 C 9.34 g/m*3 12.96 C 0 km/h
2023 06-08-2010 06:00:00 13.34 C 9.29 g/m*3 13.34 C 0 km/h
2024 06-08-2010 07:00:00 13.18 C 9.27 g/m*3 13.18 C 0 km/h
2025 06-08-2010 08:00:00 13.48 C 9.49 g/m*3 13.48 C 0 km/h
Sensor: Nr:Datum:Temp:Abs-Feuchte:Windchill:Wind:
Aussen-T/F 2026 06-08-2010 09:00:00 15.46 C 9.44 g/m*3 15.46 C 0 km/h
2027 06-08-2010 10:00:00 17.84 C 8.31 g/m*3 17.84 C 0 km/h
2028 06-08-2010 11:00:00 19.84 C 7.22 g/m*3 19.84 C 0 km/h
2029 06-08-2010 12:00:00 21.34 C 6.17 g/m*3 21.34 C 0 km/h
2030 06-08-2010 13:00:00 23.7 C 4.79 g/m*3 23.7 C 0 km/h
2031 06-08-2010 14:00:00 24.84 C 4.56 g/m*3 24.84 C 0 km/h
2032 06-08-2010 15:00:00 25.28 C 4.68 g/m*3 25.28 C 0 km/h
2033 06-08-2010 16:00:00 28.1 C 5.47 g/m*3 28.1 C 0 km/h
2034 06-08-2010 17:00:00 24.86 C 7.63 g/m*3 24.86 C 0 km/h
2035 06-08-2010 18:00:00 26.42 C 4.98 g/m*3 26.42 C 0 km/h
2036 06-08-2010 19:00:00 26.2 C 4.92 g/m*3 26.2 C 0 km/h
2037 06-08-2010 20:00:00 23.66 C 5.29 g/m*3 23.66 C 0 km/h
2038 06-08-2010 21:00:00 19.3 C 6.14 g/m*3 19.3 C 0 km/h
2039 06-08-2010 22:00:00 17.72 C 6.34 g/m*3 17.72 C 0 km/h
2040 06-08-2010 23:00:00 16.4 C 6.67 g/m*3 16.4 C 0 km/h
2041 07-08-2010 00:00:00 15.04 C 7.15 g/m*3 15.04 C 0 km/h
2042 07-08-2010 01:00:00 13.94 C 7.55 g/m*3 13.94 C 0 km/h
2043 07-08-2010 02:00:00 13 C 7.89 g/m*3 13 C 0 km/h
2044 07-08-2010 03:00:00 12.32 C 7.74 g/m*3 12.32 C 0 km/h
2045 07-08-2010 04:00:00 11.64 C 7.71 g/m*3 11.64 C 0 km/h
2046 07-08-2010 05:00:00 11.06 C 7.7 g/m*3 11.06 C 0 km/h
2047 07-08-2010 06:00:00 10.48 C 7.77 g/m*3 10.48 C 0 km/h
2048 07-08-2010 07:00:00 10.7 C 7.96 g/m*3 10.7 C 0 km/h
2049 07-08-2010 08:00:00 11.74 C 8.07 g/m*3 11.74 C 0 km/h
2050 07-08-2010 09:00:00 14.06 C 8.4 g/m*3 14.06 C 0 km/h
Sensor: Nr:Datum:Temp:Abs-Feuchte:Windchill:Wind:
Aussen-T/F 2051 07-08-2010 10:00:00 18.22 C 8.5 g/m*3 18.22 C 0 km/h
2052 07-08-2010 11:00:00 21.26 C 6.36 g/m*3 21.26 C 0 km/h
2053 07-08-2010 12:00:00 22.86 C 5.46 g/m*3 22.86 C 0 km/h
2054 07-08-2010 13:00:00 25.48 C 4.87 g/m*3 25.48 C 0 km/h
2055 07-08-2010 14:00:00 26.66 C 5.05 g/m*3 26.66 C 0 km/h
2056 07-08-2010 15:00:00 27.78 C 5.37 g/m*3 27.78 C 0 km/h
2057 07-08-2010 16:00:00 29.2 C 5.81 g/m*3 29.2 C 0 km/h
2058 07-08-2010 17:00:00 29.3 C 5.84 g/m*3 29.3 C 0 km/h
2059 07-08-2010 18:00:00 27.4 C 6.26 g/m*3 27.4 C 0 km/h
2060 07-08-2010 19:00:00 25.16 C 6.83 g/m*3 25.16 C 0 km/h
2061 07-08-2010 20:00:00 23.86 C 6.99 g/m*3 23.86 C 0 km/h
2062 07-08-2010 21:00:00 22.46 C 7.05 g/m*3 22.46 C 0 km/h
2063 07-08-2010 22:00:00 21.96 C 7.4 g/m*3 21.96 C 0 km/h
2064 07-08-2010 23:00:00 21.6 C 7.74 g/m*3 21.6 C 0 km/h
2065 08-08-2010 00:00:00 21.04 C 8.12 g/m*3 21.04 C 0 km/h
2066 08-08-2010 01:00:00 20.16 C 8.44 g/m*3 20.16 C 0 km/h
2067 08-08-2010 02:00:00 19.82 C 9.44 g/m*3 19.82 C 0 km/h
2068 08-08-2010 03:00:00 18.68 C 10.01 g/m*3 18.68 C 0 km/h
2069 08-08-2010 04:00:00 18.36 C 10.39 g/m*3 18.36 C 0 km/h
2070 08-08-2010 05:00:00 17.56 C 11.46 g/m*3 17.56 C 0 km/h
2071 08-08-2010 06:00:00 16.68 C 12.49 g/m*3 16.68 C 0 km/h
2072 08-08-2010 07:00:00 16.66 C 12.96 g/m*3 16.66 C 0 km/h
2073 08-08-2010 08:00:00 17.2 C 13.47 g/m*3 17.2 C 0 km/h
2074 08-08-2010 09:00:00 17.64 C 13.35 g/m*3 17.64 C 0 km/h
2075 08-08-2010 10:00:00 18.46 C 12.66 g/m*3 18.46 C 0 km/h
Sensor: Nr:Datum:Temp:Abs-Feuchte:Windchill:Wind:
Aussen-T/F 2076 08-08-2010 11:00:00 16.48 C 12.15 g/m*3 16.48 C 0 km/h
2077 08-08-2010 12:00:00 16.58 C 12.56 g/m*3 16.58 C 0 km/h
2078 08-08-2010 13:00:00 17.16 C 12.86 g/m*3 17.16 C 0 km/h
2079 08-08-2010 14:00:00 18.98 C 12.57 g/m*3 18.98 C 0 km/h
2080 08-08-2010 15:00:00 20.18 C 12.5 g/m*3 20.18 C 0 km/h
2081 08-08-2010 16:00:00 19.94 C 12.36 g/m*3 19.94 C 0 km/h
2082 08-08-2010 17:00:00 21.68 C 12 g/m*3 21.68 C 0 km/h
2083 08-08-2010 18:00:00 21.42 C 10.21 g/m*3 21.42 C 0 km/h
2084 08-08-2010 19:00:00 19.98 C 10.77 g/m*3 19.98 C 0 km/h
2085 08-08-2010 20:00:00 17.72 C 11.81 g/m*3 17.72 C 0 km/h
2086 08-08-2010 21:00:00 17.46 C 11.42 g/m*3 17.46 C 0 km/h
2087 08-08-2010 22:00:00 17.1 C 11.5 g/m*3 17.1 C 0 km/h
2088 08-08-2010 23:00:00 16.7 C 11.68 g/m*3 16.7 C 0 km/h
2089 09-08-2010 00:00:00 16.42 C 12.05 g/m*3 16.42 C 0 km/h
2090 09-08-2010 01:00:00 16.44 C 12.17 g/m*3 16.44 C 0 km/h
2091 09-08-2010 02:00:00 15.6 C 11.68 g/m*3 15.6 C 0 km/h
2092 09-08-2010 03:00:00 15.6 C 11.7 g/m*3 15.6 C 0 km/h
2093 09-08-2010 04:00:00 15.74 C 11.4 g/m*3 15.74 C 0 km/h
2094 09-08-2010 05:00:00 14.84 C 10.97 g/m*3 14.84 C 0 km/h
2095 09-08-2010 06:00:00 14.6 C 11.31 g/m*3 14.6 C 0 km/h
2096 09-08-2010 07:00:00 14.6 C 11.34 g/m*3 14.6 C 0 km/h
2097 09-08-2010 08:00:00 15.22 C 11.05 g/m*3 15.22 C 0 km/h
2098 09-08-2010 09:00:00 15.8 C 10.82 g/m*3 15.8 C 0 km/h
2099 09-08-2010 10:00:00 17.4 C 10.55 g/m*3 17.4 C 0 km/h
2100 09-08-2010 11:00:00 19.6 C 9.25 g/m*3 19.6 C 0 km/h
Sensor: Nr:Datum:Temp:Abs-Feuchte:Windchill:Wind:
Aussen-T/F 2101 09-08-2010 12:00:00 21.3 C 8.61 g/m*3 21.3 C 0 km/h
2102 09-08-2010 13:00:00 24.36 C 8.17 g/m*3 24.36 C 0 km/h
2103 09-08-2010 14:00:00 24.1 C 7.83 g/m*3 24.1 C 0 km/h
2104 09-08-2010 15:00:00 25.54 C 7.59 g/m*3 25.54 C 0 km/h
2105 09-08-2010 16:00:00 26.18 C 6.84 g/m*3 26.18 C 0 km/h
2106 09-08-2010 17:00:00 26.22 C 8.08 g/m*3 26.22 C 0 km/h
2107 09-08-2010 18:00:00 27.5 C 7.88 g/m*3 27.5 C 0 km/h
2108 09-08-2010 19:00:00 23.52 C 8.81 g/m*3 23.52 C 0 km/h
2109 09-08-2010 20:00:00 21.26 C 8.55 g/m*3 21.26 C 0 km/h
2110 09-08-2010 21:00:00 19.76 C 8.79 g/m*3 19.76 C 0 km/h
2111 09-08-2010 22:00:00 18.64 C 8.97 g/m*3 18.64 C 0 km/h
2112 09-08-2010 23:00:00 18.12 C 9.25 g/m*3 18.12 C 0 km/h
2113 10-08-2010 00:00:00 17.62 C 9.79 g/m*3 17.62 C 0 km/h
2114 10-08-2010 01:00:00 17.52 C 10.15 g/m*3 17.52 C 0 km/h
2115 10-08-2010 02:00:00 17.38 C 10.04 g/m*3 17.38 C 0 km/h
2116 10-08-2010 03:00:00 17.14 C 10.1 g/m*3 17.14 C 0 km/h
2117 10-08-2010 04:00:00 16.86 C 10.24 g/m*3 16.86 C 0 km/h
2118 10-08-2010 05:00:00 15.62 C 10.09 g/m*3 15.62 C 0 km/h
2119 10-08-2010 06:00:00 14.66 C 9.92 g/m*3 14.66 C 0 km/h
2120 10-08-2010 07:00:00 14.88 C 10.31 g/m*3 14.88 C 0 km/h
2121 10-08-2010 08:00:00 15.84 C 10.71 g/m*3 15.84 C 0 km/h
2122 10-08-2010 09:00:00 18.2 C 10.6 g/m*3 18.2 C 0 km/h
2123 10-08-2010 10:00:00 20.92 C 11.01 g/m*3 20.92 C 0 km/h
2124 10-08-2010 11:00:00 23.74 C 9.52 g/m*3 23.74 C 0 km/h
2125 10-08-2010 12:00:00 25.9 C 6.83 g/m*3 25.9 C 0 km/h
Sensor: Nr:Datum:Temp:Abs-Feuchte:Windchill:Wind:
Aussen-T/F 2126 10-08-2010 13:00:00 28.16 C 5.98 g/m*3 28.16 C 0 km/h
2127 10-08-2010 14:00:00 29.04 C 6.22 g/m*3 29.04 C 0 km/h
2128 10-08-2010 15:00:00 28.46 C 7.36 g/m*3 28.46 C 0 km/h
2129 10-08-2010 16:00:00 29.88 C 6.51 g/m*3 29.88 C 0 km/h
2130 10-08-2010 17:00:00 29.94 C 6.47 g/m*3 29.94 C 0 km/h
2131 10-08-2010 18:00:00 29.68 C 6.74 g/m*3 29.68 C 0 km/h
2132 10-08-2010 19:00:00 26.94 C 8.16 g/m*3 26.94 C 0 km/h
2133 10-08-2010 20:00:00 24.76 C 8.27 g/m*3 24.76 C 0 km/h
2134 10-08-2010 21:00:00 23.36 C 8.77 g/m*3 23.36 C 0 km/h
2135 10-08-2010 22:00:00 22.86 C 8.93 g/m*3 22.86 C 0 km/h
2136 10-08-2010 23:00:00 21.9 C 9.26 g/m*3 21.9 C 0 km/h
2137 11-08-2010 00:00:00 21.46 C 9.67 g/m*3 21.46 C 0 km/h
2138 11-08-2010 01:00:00 20.54 C 10.56 g/m*3 20.54 C 0 km/h
2139 11-08-2010 02:00:00 18.38 C 12.32 g/m*3 18.38 C 0 km/h
2140 11-08-2010 03:00:00 17.64 C 13.14 g/m*3 17.64 C 0 km/h
2141 11-08-2010 04:00:00 17.52 C 13.4 g/m*3 17.52 C 0 km/h
2142 11-08-2010 05:00:00 17.42 C 13.24 g/m*3 17.42 C 0 km/h
2143 11-08-2010 06:00:00 17.4 C 13.04 g/m*3 17.4 C 0 km/h
2144 11-08-2010 07:00:00 17.62 C 13.03 g/m*3 17.62 C 0 km/h
2145 11-08-2010 08:00:00 18.68 C 13.02 g/m*3 18.68 C 0 km/h
2146 11-08-2010 09:00:00 19.64 C 11.51 g/m*3 19.64 C 0 km/h
2147 11-08-2010 10:00:00 20.8 C 11.08 g/m*3 20.8 C 0 km/h
2148 11-08-2010 11:00:00 20.62 C 11.18 g/m*3 20.62 C 0 km/h
2149 11-08-2010 12:00:00 22.46 C 11 g/m*3 22.46 C 0 km/h
2150 11-08-2010 13:00:00 23.8 C 10.37 g/m*3 23.8 C 0 km/h
Sensor: Nr:Datum:Temp:Abs-Feuchte:Windchill:Wind:
Aussen-T/F 2151 11-08-2010 14:00:00 24.4 C 10.1 g/m*3 24.4 C 0 km/h
2152 11-08-2010 15:00:00 25.56 C 9.88 g/m*3 25.56 C 0 km/h
2153 11-08-2010 16:00:00 22.88 C 12 g/m*3 22.88 C 0 km/h
2154 11-08-2010 17:00:00 21.74 C 14 g/m*3 21.74 C 0 km/h
2155 11-08-2010 18:00:00 22.86 C 14.31 g/m*3 22.86 C 0 km/h
2156 11-08-2010 19:00:00 21.28 C 13.7 g/m*3 21.28 C 0 km/h
2157 11-08-2010 20:00:00 19.56 C 13.57 g/m*3 19.56 C 0 km/h
2158 11-08-2010 21:00:00 18.84 C 14.4 g/m*3 18.84 C 0 km/h
2159 11-08-2010 22:00:00 18.48 C 14.38 g/m*3 18.48 C 0 km/h
2160 11-08-2010 23:00:00 18.3 C 14.38 g/m*3 18.3 C 0 km/h
2161 12-08-2010 00:00:00 17.88 C 14.27 g/m*3 17.88 C 0 km/h
2162 12-08-2010 01:00:00 17.52 C 14.03 g/m*3 17.52 C 0 km/h
2163 12-08-2010 02:00:00 17.16 C 13.73 g/m*3 17.16 C 0 km/h
2164 12-08-2010 03:00:00 16.86 C 13.49 g/m*3 16.86 C 0 km/h
2165 12-08-2010 04:00:00 16.46 C 13.22 g/m*3 16.46 C 0 km/h
2166 12-08-2010 05:00:00 16.48 C 13.3 g/m*3 16.48 C 0 km/h
2167 12-08-2010 06:00:00 16.72 C 13.52 g/m*3 16.72 C 0 km/h
2168 12-08-2010 07:00:00 16.86 C 13.6 g/m*3 16.86 C 0 km/h
2169 12-08-2010 08:00:00 16.64 C 12.89 g/m*3 16.64 C 0 km/h
2170 12-08-2010 09:00:00 17.72 C 13.44 g/m*3 17.72 C 0 km/h
2171 12-08-2010 10:00:00 18.58 C 12.24 g/m*3 18.58 C 0 km/h
2172 12-08-2010 11:00:00 18.62 C 12.17 g/m*3 18.62 C 0 km/h
2173 12-08-2010 12:00:00 19.56 C 11.25 g/m*3 19.56 C 0 km/h
2174 12-08-2010 13:00:00 20.26 C 9.58 g/m*3 20.26 C 0 km/h
2175 12-08-2010 14:00:00 20.3 C 9.04 g/m*3 20.3 C 0 km/h
Sensor: Nr:Datum:Temp:Abs-Feuchte:Windchill:Wind:
Aussen-T/F 2176 12-08-2010 15:00:00 23.02 C 8.4 g/m*3 23.02 C 0 km/h
2177 12-08-2010 16:00:00 22.56 C 7.14 g/m*3 22.56 C 0 km/h
2178 12-08-2010 17:00:00 25.42 C 5.89 g/m*3 25.42 C 0 km/h
2179 12-08-2010 18:00:00 23.3 C 6.65 g/m*3 23.3 C 0 km/h
2180 12-08-2010 19:00:00 21.68 C 8.23 g/m*3 21.68 C 0 km/h
2181 12-08-2010 20:00:00 20.1 C 8.45 g/m*3 20.1 C 0 km/h
2182 12-08-2010 21:00:00 19.14 C 7.99 g/m*3 19.14 C 0 km/h
2183 12-08-2010 22:00:00 18.44 C 8.58 g/m*3 18.44 C 0 km/h
2184 12-08-2010 23:00:00 17.34 C 9.19 g/m*3 17.34 C 0 km/h
2185 13-08-2010 00:00:00 16.82 C 9.42 g/m*3 16.82 C 0 km/h
2186 13-08-2010 01:00:00 16.18 C 9.26 g/m*3 16.18 C 0 km/h
2187 13-08-2010 02:00:00 15.82 C 9.68 g/m*3 15.82 C 0 km/h
2188 13-08-2010 03:00:00 15.34 C 9.84 g/m*3 15.34 C 0 km/h
2189 13-08-2010 04:00:00 15.04 C 10 g/m*3 15.04 C 0 km/h
2190 13-08-2010 05:00:00 14.76 C 9.98 g/m*3 14.76 C 0 km/h
2191 13-08-2010 06:00:00 14.7 C 10.05 g/m*3 14.7 C 0 km/h
2192 13-08-2010 07:00:00 15.02 C 10.12 g/m*3 15.02 C 0 km/h
2193 13-08-2010 08:00:00 15.16 C 10.33 g/m*3 15.16 C 0 km/h
2194 13-08-2010 09:00:00 16.26 C 10.3 g/m*3 16.26 C 0 km/h
2195 13-08-2010 10:00:00 18.84 C 9.65 g/m*3 18.84 C 0 km/h
2196 13-08-2010 11:00:00 21.24 C 8.4 g/m*3 21.24 C 0 km/h
2197 13-08-2010 12:00:00 22.2 C 7.74 g/m*3 22.2 C 0 km/h
2198 13-08-2010 13:00:00 23 C 6.99 g/m*3 23 C 0 km/h
2199 13-08-2010 14:00:00 23.92 C 6.5 g/m*3 23.92 C 0 km/h
2200 13-08-2010 15:00:00 24.42 C 6.02 g/m*3 24.42 C 0 km/h
Sensor: Nr:Datum:Temp:Abs-Feuchte:Windchill:Wind:
Aussen-T/F 2201 13-08-2010 16:00:00 24.24 C 6.75 g/m*3 24.24 C 0 km/h
2202 13-08-2010 17:00:00 23.66 C 7.43 g/m*3 23.66 C 0 km/h
2203 13-08-2010 18:00:00 22.5 C 8.15 g/m*3 22.5 C 0 km/h
2204 13-08-2010 19:00:00 21.84 C 7.88 g/m*3 21.84 C 0 km/h
2205 13-08-2010 20:00:00 19.9 C 7.94 g/m*3 19.9 C 0 km/h
2206 13-08-2010 21:00:00 17.66 C 7.83 g/m*3 17.66 C 0 km/h
2207 13-08-2010 22:00:00 16.72 C 8.2 g/m*3 16.72 C 0 km/h
2208 13-08-2010 23:00:00 15.44 C 8.64 g/m*3 15.44 C 0 km/h
2209 14-08-2010 00:00:00 14.7 C 8.91 g/m*3 14.7 C 0 km/h
2210 14-08-2010 01:00:00 13.98 C 9.11 g/m*3 13.98 C 0 km/h
2211 14-08-2010 02:00:00 13.32 C 9 g/m*3 13.32 C 0 km/h
2212 14-08-2010 03:00:00 12.6 C 8.87 g/m*3 12.6 C 0 km/h
2213 14-08-2010 04:00:00 12.06 C 8.75 g/m*3 12.06 C 0 km/h
2214 14-08-2010 05:00:00 11.62 C 8.76 g/m*3 11.62 C 0 km/h
2215 14-08-2010 06:00:00 11.12 C 8.73 g/m*3 11.12 C 0 km/h
2216 14-08-2010 07:00:00 11.28 C 8.9 g/m*3 11.28 C 0 km/h
2217 14-08-2010 08:00:00 12.32 C 9.42 g/m*3 12.32 C 0 km/h
2218 14-08-2010 09:00:00 14.4 C 9.94 g/m*3 14.4 C 0 km/h
2219 14-08-2010 10:00:00 17.62 C 10.39 g/m*3 17.62 C 0 km/h
2220 14-08-2010 11:00:00 20.68 C 10.36 g/m*3 20.68 C 0 km/h
2221 14-08-2010 12:00:00 22.96 C 9.19 g/m*3 22.96 C 0 km/h
2222 14-08-2010 13:00:00 26.24 C 7.4 g/m*3 26.24 C 0 km/h
2223 14-08-2010 14:00:00 27.62 C 6.98 g/m*3 27.62 C 0 km/h
2224 14-08-2010 15:00:00 28.04 C 6.7 g/m*3 28.04 C 0 km/h
2225 14-08-2010 16:00:00 30.1 C 6.46 g/m*3 30.1 C 0 km/h
Sensor: Nr:Datum:Temp:Abs-Feuchte:Windchill:Wind:
Aussen-T/F 2226 14-08-2010 17:00:00 30.88 C 6.36 g/m*3 30.88 C 0 km/h
2227 14-08-2010 18:00:00 31.22 C 6.48 g/m*3 31.22 C 0 km/h
2228 14-08-2010 19:00:00 27.86 C 7.56 g/m*3 27.86 C 0 km/h
2229 14-08-2010 20:00:00 24.86 C 8.18 g/m*3 24.86 C 0 km/h
2230 14-08-2010 21:00:00 22.14 C 8.73 g/m*3 22.14 C 0 km/h
2231 14-08-2010 22:00:00 21.24 C 9.14 g/m*3 21.24 C 0 km/h
2232 14-08-2010 23:00:00 20.36 C 9.14 g/m*3 20.36 C 0 km/h
2233 15-08-2010 00:00:00 19.74 C 8.82 g/m*3 19.74 C 0 km/h
2234 15-08-2010 01:00:00 19.38 C 8.73 g/m*3 19.38 C 0 km/h
2235 15-08-2010 02:00:00 18.98 C 8.98 g/m*3 18.98 C 0 km/h
2236 15-08-2010 03:00:00 18.6 C 9.29 g/m*3 18.6 C 0 km/h
2237 15-08-2010 04:00:00 18.14 C 9.14 g/m*3 18.14 C 0 km/h
2238 15-08-2010 05:00:00 18.06 C 8.88 g/m*3 18.06 C 0 km/h
2239 15-08-2010 06:00:00 17.9 C 9.04 g/m*3 17.9 C 0 km/h
2240 15-08-2010 07:00:00 17.1 C 9.69 g/m*3 17.1 C 0 km/h
2241 15-08-2010 08:00:00 15.24 C 11.48 g/m*3 15.24 C 0 km/h
2242 15-08-2010 09:00:00 15.2 C 11.99 g/m*3 15.2 C 0 km/h
2243 15-08-2010 10:00:00 15.48 C 12.44 g/m*3 15.48 C 0 km/h
2244 15-08-2010 11:00:00 15.82 C 12.8 g/m*3 15.82 C 0 km/h
2245 15-08-2010 12:00:00 16.04 C 12.97 g/m*3 16.04 C 0 km/h
2246 15-08-2010 13:00:00 16.14 C 13.05 g/m*3 16.14 C 0 km/h
2247 15-08-2010 14:00:00 16.44 C 13.29 g/m*3 16.44 C 0 km/h
2248 15-08-2010 15:00:00 16.4 C 13.26 g/m*3 16.4 C 0 km/h
2249 15-08-2010 16:00:00 16.48 C 13.32 g/m*3 16.48 C 0 km/h
2250 15-08-2010 17:00:00 16.68 C 13.48 g/m*3 16.68 C 0 km/h
Sensor: Nr:Datum:Temp:Abs-Feuchte:Windchill:Wind:
Aussen-T/F 2251 15-08-2010 18:00:00 16.6 C 13.42 g/m*3 16.6 C 0 km/h
2252 15-08-2010 19:00:00 16.6 C 13.42 g/m*3 16.6 C 0 km/h
2253 15-08-2010 20:00:00 16.38 C 13.24 g/m*3 16.38 C 0 km/h
2254 15-08-2010 21:00:00 16.24 C 13.13 g/m*3 16.24 C 0 km/h
2255 15-08-2010 22:00:00 16.14 C 13.05 g/m*3 16.14 C 0 km/h
2256 15-08-2010 23:00:00 15.5 C 12.56 g/m*3 15.5 C 0 km/h
2257 16-08-2010 00:00:00 14.9 C 12.11 g/m*3 14.9 C 0 km/h
2258 16-08-2010 01:00:00 14.72 C 11.87 g/m*3 14.72 C 0 km/h
2259 16-08-2010 02:00:00 14.6 C 11.61 g/m*3 14.6 C 0 km/h
2260 16-08-2010 03:00:00 14.6 C 11.64 g/m*3 14.6 C 0 km/h
2261 16-08-2010 04:00:00 14.5 C 11.34 g/m*3 14.5 C 0 km/h
2262 16-08-2010 05:00:00 14.5 C 11.39 g/m*3 14.5 C 0 km/h
2263 16-08-2010 06:00:00 14.54 C 11.37 g/m*3 14.54 C 0 km/h
2264 16-08-2010 07:00:00 14.84 C 11.45 g/m*3 14.84 C 0 km/h
2265 16-08-2010 08:00:00 15.92 C 11.44 g/m*3 15.92 C 0 km/h
2266 16-08-2010 09:00:00 17.4 C 11.09 g/m*3 17.4 C 0 km/h
2267 16-08-2010 10:00:00 17.2 C 10.84 g/m*3 17.2 C 0 km/h
2268 16-08-2010 11:00:00 17.7 C 11.09 g/m*3 17.7 C 0 km/h
2269 16-08-2010 12:00:00 17.76 C 11.45 g/m*3 17.76 C 0 km/h
2270 16-08-2010 13:00:00 18.38 C 10.59 g/m*3 18.38 C 0 km/h
2271 16-08-2010 14:00:00 19.88 C 9.88 g/m*3 19.88 C 0 km/h
2272 16-08-2010 15:00:00 19.72 C 9.42 g/m*3 19.72 C 0 km/h
2273 16-08-2010 16:00:00 19.76 C 9.75 g/m*3 19.76 C 0 km/h
2274 16-08-2010 17:00:00 19.96 C 9.79 g/m*3 19.96 C 0 km/h
2275 16-08-2010 18:00:00 19.76 C 9.65 g/m*3 19.76 C 0 km/h
Sensor: Nr:Datum:Temp:Abs-Feuchte:Windchill:Wind:
Aussen-T/F 2276 16-08-2010 19:00:00 18.6 C 10.06 g/m*3 18.6 C 0 km/h
2277 16-08-2010 20:00:00 17.9 C 10.63 g/m*3 17.9 C 0 km/h
2278 16-08-2010 21:00:00 17.44 C 11.32 g/m*3 17.44 C 0 km/h
2279 16-08-2010 22:00:00 17.58 C 11.83 g/m*3 17.58 C 0 km/h
2280 16-08-2010 23:00:00 17.76 C 12.05 g/m*3 17.76 C 0 km/h
2281 17-08-2010 00:00:00 17.62 C 11.95 g/m*3 17.62 C 0 km/h
2282 17-08-2010 01:00:00 16.68 C 12.29 g/m*3 16.68 C 0 km/h
2283 17-08-2010 02:00:00 16.48 C 12.37 g/m*3 16.48 C 0 km/h
2284 17-08-2010 03:00:00 16.42 C 11.79 g/m*3 16.42 C 0 km/h
2285 17-08-2010 04:00:00 16.42 C 11.18 g/m*3 16.42 C 0 km/h
2286 17-08-2010 05:00:00 15.62 C 11.34 g/m*3 15.62 C 0 km/h
2287 17-08-2010 06:00:00 15.84 C 11.23 g/m*3 15.84 C 0 km/h
2288 17-08-2010 07:00:00 16.36 C 10.83 g/m*3 16.36 C 0 km/h
2289 17-08-2010 08:00:00 16.72 C 10.33 g/m*3 16.72 C 0 km/h
2290 17-08-2010 09:00:00 16.98 C 9.65 g/m*3 16.98 C 0 km/h
2291 17-08-2010 10:00:00 17.06 C 9.35 g/m*3 17.06 C 0 km/h
2292 17-08-2010 11:00:00 17.58 C 9.2 g/m*3 17.58 C 0 km/h
2293 17-08-2010 12:00:00 16.62 C 10.13 g/m*3 16.62 C 0 km/h
2294 17-08-2010 13:00:00 17.3 C 11.73 g/m*3 17.3 C 0 km/h
2295 17-08-2010 14:00:00 17.74 C 9.16 g/m*3 17.74 C 0 km/h
2296 17-08-2010 15:00:00 17.08 C 8.75 g/m*3 17.08 C 0 km/h
2297 17-08-2010 16:00:00 14.7 C 9.74 g/m*3 14.7 C 0 km/h
2298 17-08-2010 17:00:00 14.42 C 9.98 g/m*3 14.42 C 0 km/h
2299 17-08-2010 18:00:00 14.8 C 11 g/m*3 14.8 C 0 km/h
2300 17-08-2010 19:00:00 14.84 C 11.05 g/m*3 14.84 C 0 km/h
Sensor: Nr:Datum:Temp:Abs-Feuchte:Windchill:Wind:
Aussen-T/F 2301 17-08-2010 20:00:00 14.32 C 11.02 g/m*3 14.32 C 0 km/h
2302 17-08-2010 21:00:00 14.38 C 11.31 g/m*3 14.38 C 0 km/h
2303 17-08-2010 22:00:00 14.62 C 10.75 g/m*3 14.62 C 0 km/h
2304 17-08-2010 23:00:00 15 C 10.05 g/m*3 15 C 0 km/h
2305 18-08-2010 00:00:00 15.52 C 9.66 g/m*3 15.52 C 0 km/h
2306 18-08-2010 01:00:00 15.76 C 9.43 g/m*3 15.76 C 0 km/h
2307 18-08-2010 02:00:00 15.54 C 9.43 g/m*3 15.54 C 0 km/h
2308 18-08-2010 03:00:00 15.46 C 9.49 g/m*3 15.46 C 0 km/h
2309 18-08-2010 04:00:00 15.2 C 9.55 g/m*3 15.2 C 0 km/h
2310 18-08-2010 05:00:00 14.96 C 9.8 g/m*3 14.96 C 0 km/h
2311 18-08-2010 06:00:00 15.08 C 9.56 g/m*3 15.08 C 0 km/h
2312 18-08-2010 07:00:00 15.44 C 9.69 g/m*3 15.44 C 0 km/h
2313 18-08-2010 08:00:00 16.16 C 9.88 g/m*3 16.16 C 0 km/h
2314 18-08-2010 09:00:00 17.1 C 10.16 g/m*3 17.1 C 0 km/h
2315 18-08-2010 10:00:00 18.16 C 10.2 g/m*3 18.16 C 0 km/h
2316 18-08-2010 11:00:00 18.7 C 10.18 g/m*3 18.7 C 0 km/h
2317 18-08-2010 12:00:00 18.82 C 10.67 g/m*3 18.82 C 0 km/h
2318 18-08-2010 13:00:00 20.8 C 10.25 g/m*3 20.8 C 0 km/h
2319 18-08-2010 14:00:00 22.84 C 9.04 g/m*3 22.84 C 0 km/h
2320 18-08-2010 15:00:00 22.24 C 9.01 g/m*3 22.24 C 0 km/h
2321 18-08-2010 16:00:00 23.68 C 9.02 g/m*3 23.68 C 0 km/h
2322 18-08-2010 17:00:00 23.88 C 8.86 g/m*3 23.88 C 0 km/h
2323 18-08-2010 18:00:00 22.36 C 9.15 g/m*3 22.36 C 0 km/h
2324 18-08-2010 19:00:00 20.68 C 9.35 g/m*3 20.68 C 0 km/h
2325 18-08-2010 20:00:00 19.44 C 10 g/m*3 19.44 C 0 km/h
Sensor: Nr:Datum:Temp:Abs-Feuchte:Windchill:Wind:
Aussen-T/F 2326 18-08-2010 21:00:00 18.82 C 10.19 g/m*3 18.82 C 0 km/h
2327 18-08-2010 22:00:00 17.6 C 10.59 g/m*3 17.6 C 0 km/h
2328 18-08-2010 23:00:00 17.58 C 10.19 g/m*3 17.58 C 0 km/h
2329 19-08-2010 00:00:00 17.36 C 9.14 g/m*3 17.36 C 0 km/h
2330 19-08-2010 01:00:00 16.86 C 9.18 g/m*3 16.86 C 0 km/h
2331 19-08-2010 02:00:00 16.32 C 8.81 g/m*3 16.32 C 0 km/h
2332 19-08-2010 03:00:00 15.9 C 9.21 g/m*3 15.9 C 0 km/h
2333 19-08-2010 04:00:00 15.54 C 9.38 g/m*3 15.54 C 0 km/h
2334 19-08-2010 05:00:00 15.1 C 9.31 g/m*3 15.1 C 0 km/h
2335 19-08-2010 06:00:00 14.18 C 8.9 g/m*3 14.18 C 0 km/h
2336 19-08-2010 07:00:00 13.92 C 8.21 g/m*3 13.92 C 0 km/h
2337 19-08-2010 08:00:00 14.78 C 8.05 g/m*3 14.78 C 0 km/h
2338 19-08-2010 09:00:00 15.72 C 8.06 g/m*3 15.72 C 0 km/h
2339 19-08-2010 10:00:00 17.9 C 7.7 g/m*3 17.9 C 0 km/h
2340 19-08-2010 11:00:00 20 C 7.26 g/m*3 20 C 0 km/h
2341 19-08-2010 12:00:00 21.44 C 6.65 g/m*3 21.44 C 0 km/h
2342 19-08-2010 13:00:00 22.64 C 6.16 g/m*3 22.64 C 0 km/h
2343 19-08-2010 14:00:00 23.04 C 6.02 g/m*3 23.04 C 0 km/h
2344 19-08-2010 15:00:00 23.74 C 6.22 g/m*3 23.74 C 0 km/h
2345 19-08-2010 16:00:00 23.28 C 7.64 g/m*3 23.28 C 0 km/h
2346 19-08-2010 17:00:00 23.9 C 7.53 g/m*3 23.9 C 0 km/h
2347 19-08-2010 18:00:00 25.42 C 5.75 g/m*3 25.42 C 0 km/h
2348 19-08-2010 19:00:00 25.24 C 6.63 g/m*3 25.24 C 0 km/h
2349 19-08-2010 20:00:00 20.5 C 7.15 g/m*3 20.5 C 0 km/h
2350 19-08-2010 21:00:00 18.08 C 7.78 g/m*3 18.08 C 0 km/h
Sensor: Nr:Datum:Temp:Abs-Feuchte:Windchill:Wind:
Aussen-T/F 2351 19-08-2010 22:00:00 16.86 C 8.01 g/m*3 16.86 C 0 km/h
2352 19-08-2010 23:00:00 15.62 C 8.36 g/m*3 15.62 C 0 km/h
2353 20-08-2010 00:00:00 14.72 C 8.55 g/m*3 14.72 C 0 km/h
2354 20-08-2010 01:00:00 14.04 C 8.61 g/m*3 14.04 C 0 km/h
2355 20-08-2010 02:00:00 13.34 C 8.59 g/m*3 13.34 C 0 km/h
2356 20-08-2010 03:00:00 12.8 C 8.62 g/m*3 12.8 C 0 km/h
2357 20-08-2010 04:00:00 12.26 C 8.58 g/m*3 12.26 C 0 km/h
2358 20-08-2010 05:00:00 11.9 C 8.56 g/m*3 11.9 C 0 km/h
2359 20-08-2010 06:00:00 11.48 C 8.54 g/m*3 11.48 C 0 km/h
2360 20-08-2010 07:00:00 11.76 C 8.78 g/m*3 11.76 C 0 km/h
2361 20-08-2010 08:00:00 12.54 C 9.19 g/m*3 12.54 C 0 km/h
2362 20-08-2010 09:00:00 14.5 C 9.85 g/m*3 14.5 C 0 km/h
2363 20-08-2010 10:00:00 18.02 C 10.3 g/m*3 18.02 C 0 km/h
2364 20-08-2010 11:00:00 20.98 C 10.87 g/m*3 20.98 C 0 km/h
2365 20-08-2010 12:00:00 23.76 C 10.86 g/m*3 23.76 C 0 km/h
2366 20-08-2010 13:00:00 26.76 C 9.04 g/m*3 26.76 C 0 km/h
2367 20-08-2010 14:00:00 28.36 C 7.82 g/m*3 28.36 C 0 km/h
2368 20-08-2010 15:00:00 29.54 C 7.45 g/m*3 29.54 C 0 km/h
2369 20-08-2010 16:00:00 30.72 C 7.57 g/m*3 30.72 C 0 km/h
2370 20-08-2010 17:00:00 31.16 C 7.29 g/m*3 31.16 C 0 km/h
2371 20-08-2010 18:00:00 31.22 C 7.64 g/m*3 31.22 C 0 km/h
2372 20-08-2010 19:00:00 29.58 C 8.42 g/m*3 29.58 C 0 km/h
2373 20-08-2010 20:00:00 25.1 C 9.07 g/m*3 25.1 C 0 km/h
2374 20-08-2010 21:00:00 23.08 C 9.58 g/m*3 23.08 C 0 km/h
2375 20-08-2010 22:00:00 22.025 C 10.2 g/m*3 22.03 C 0 km/h
Sensor: Nr:Datum:Temp:Abs-Feuchte:Windchill:Wind:
Aussen-T/F 2376 20-08-2010 23:00:00 20.9 C 10.64 g/m*3 20.9 C 0 km/h
2377 21-08-2010 00:00:00 19.76 C 10.77 g/m*3 19.76 C 0 km/h
2378 21-08-2010 01:00:00 18.84 C 11.01 g/m*3 18.84 C 0 km/h
2379 21-08-2010 02:00:00 18.16 C 11.04 g/m*3 18.16 C 0 km/h
2380 21-08-2010 03:00:00 17.66 C 11.11 g/m*3 17.66 C 0 km/h
2381 21-08-2010 04:00:00 17.06 C 11.12 g/m*3 17.06 C 0 km/h
2382 21-08-2010 05:00:00 16.46 C 10.95 g/m*3 16.46 C 0 km/h
2383 21-08-2010 06:00:00 16.04 C 10.9 g/m*3 16.04 C 0 km/h
2384 21-08-2010 07:00:00 16 C 11.06 g/m*3 16 C 0 km/h
2385 21-08-2010 08:00:00 16.78 C 11.54 g/m*3 16.78 C 0 km/h
2386 21-08-2010 09:00:00 18.42 C 12.22 g/m*3 18.42 C 0 km/h
2387 21-08-2010 10:00:00 21.4 C 12.86 g/m*3 21.4 C 0 km/h
2388 21-08-2010 11:00:00 24.76 C 12.17 g/m*3 24.76 C 0 km/h
2389 21-08-2010 12:00:00 27.54 C 9.81 g/m*3 27.54 C 0 km/h
2390 21-08-2010 13:00:00 29.12 C 9.19 g/m*3 29.12 C 0 km/h
2391 21-08-2010 14:00:00 30.42 C 8.69 g/m*3 30.42 C 0 km/h
2392 21-08-2010 15:00:00 31.28 C 8.51 g/m*3 31.28 C 0 km/h
2393 21-08-2010 16:00:00 32.14 C 7.89 g/m*3 32.14 C 0 km/h
2394 21-08-2010 17:00:00 32.38 C 7.58 g/m*3 32.38 C 0 km/h
2395 21-08-2010 18:00:00 32.42 C 7.39 g/m*3 32.42 C 0 km/h
2396 21-08-2010 19:00:00 31.66 C 7.96 g/m*3 31.66 C 0 km/h
2397 21-08-2010 20:00:00 28.82 C 9.33 g/m*3 28.82 C 0 km/h
2398 21-08-2010 21:00:00 25.72 C 10.26 g/m*3 25.72 C 0 km/h
2399 21-08-2010 22:00:00 24.34 C 10.87 g/m*3 24.34 C 0 km/h
2400 21-08-2010 23:00:00 23.16 C 11.24 g/m*3 23.16 C 0 km/h
Sensor: Nr:Datum:Temp:Abs-Feuchte:Windchill:Wind:
Aussen-T/F 2401 22-08-2010 00:00:00 22 C 11.45 g/m*3 22 C 0 km/h
2402 22-08-2010 01:00:00 21.04 C 11.68 g/m*3 21.04 C 0 km/h
2403 22-08-2010 02:00:00 20.14 C 11.88 g/m*3 20.14 C 0 km/h
2404 22-08-2010 03:00:00 19.52 C 12.1 g/m*3 19.52 C 0 km/h
2405 22-08-2010 04:00:00 19.16 C 12.11 g/m*3 19.16 C 0 km/h
2406 22-08-2010 05:00:00 18.54 C 12.08 g/m*3 18.54 C 0 km/h
2407 22-08-2010 06:00:00 18 C 12.01 g/m*3 18 C 0 km/h
2408 22-08-2010 07:00:00 18.3 C 12.2 g/m*3 18.3 C 0 km/h
2409 22-08-2010 08:00:00 18.96 C 12.62 g/m*3 18.96 C 0 km/h
2410 22-08-2010 09:00:00 20.32 C 12.64 g/m*3 20.32 C 0 km/h
2411 22-08-2010 10:00:00 23.1 C 12.69 g/m*3 23.1 C 0 km/h
2412 22-08-2010 11:00:00 24.88 C 12.71 g/m*3 24.88 C 0 km/h
2413 22-08-2010 12:00:00 27.46 C 11.67 g/m*3 27.46 C 0 km/h
2414 22-08-2010 13:00:00 28.44 C 10.53 g/m*3 28.44 C 0 km/h
2415 22-08-2010 14:00:00 28.74 C 10.48 g/m*3 28.74 C 0 km/h
2416 22-08-2010 15:00:00 25.76 C 12.2 g/m*3 25.76 C 0 km/h
2417 22-08-2010 16:00:00 27.8 C 11.89 g/m*3 27.8 C 0 km/h
2418 22-08-2010 17:00:00 26.68 C 11.88 g/m*3 26.68 C 0 km/h
2419 22-08-2010 18:00:00 26.28 C 11.72 g/m*3 26.28 C 0 km/h
2420 22-08-2010 19:00:00 25.52 C 11.57 g/m*3 25.52 C 0 km/h
2421 22-08-2010 20:00:00 24.42 C 10.65 g/m*3 24.42 C 0 km/h
2422 22-08-2010 21:00:00 23.16 C 11.49 g/m*3 23.16 C 0 km/h
2423 22-08-2010 22:00:00 22.66 C 11.69 g/m*3 22.66 C 0 km/h
2424 22-08-2010 23:00:00 21.52 C 11.89 g/m*3 21.52 C 0 km/h
2425 23-08-2010 00:00:00 20.88 C 12.01 g/m*3 20.88 C 0 km/h
Sensor: Nr:Datum:Temp:Abs-Feuchte:Windchill:Wind:
Aussen-T/F 2426 23-08-2010 01:00:00 20.38 C 12.16 g/m*3 20.38 C 0 km/h
2427 23-08-2010 02:00:00 20.02 C 12.32 g/m*3 20.02 C 0 km/h
2428 23-08-2010 03:00:00 19.82 C 12.31 g/m*3 19.82 C 0 km/h
2429 23-08-2010 04:00:00 19.52 C 12.33 g/m*3 19.52 C 0 km/h
2430 23-08-2010 05:00:00 19.44 C 12.21 g/m*3 19.44 C 0 km/h
2431 23-08-2010 06:00:00 19.48 C 12.34 g/m*3 19.48 C 0 km/h
2432 23-08-2010 07:00:00 19.92 C 12.49 g/m*3 19.92 C 0 km/h
2433 23-08-2010 08:00:00 19.74 C 13.31 g/m*3 19.74 C 0 km/h
2434 23-08-2010 09:00:00 19.44 C 14.52 g/m*3 19.44 C 0 km/h
2435 23-08-2010 10:00:00 20.64 C 15.07 g/m*3 20.64 C 0 km/h
2436 23-08-2010 11:00:00 22.26 C 14.78 g/m*3 22.26 C 0 km/h
2437 23-08-2010 12:00:00 23.08 C 15.61 g/m*3 23.08 C 0 km/h
2438 23-08-2010 13:00:00 23.68 C 14.36 g/m*3 23.68 C 0 km/h
2439 23-08-2010 14:00:00 24.34 C 14.28 g/m*3 24.34 C 0 km/h
2440 23-08-2010 15:00:00 25.86 C 12.32 g/m*3 25.86 C 0 km/h
2441 23-08-2010 16:00:00 25.94 C 11.4 g/m*3 25.94 C 0 km/h
2442 23-08-2010 17:00:00 23.58 C 11.98 g/m*3 23.58 C 0 km/h
2443 23-08-2010 18:00:00 21.12 C 13.76 g/m*3 21.12 C 0 km/h
2444 23-08-2010 19:00:00 20.76 C 13.77 g/m*3 20.76 C 0 km/h
2445 23-08-2010 20:00:00 20.34 C 12.94 g/m*3 20.34 C 0 km/h
2446 23-08-2010 21:00:00 19.8 C 12.61 g/m*3 19.8 C 0 km/h
2447 23-08-2010 22:00:00 19.58 C 12.24 g/m*3 19.58 C 0 km/h
2448 23-08-2010 23:00:00 19.3 C 11.94 g/m*3 19.3 C 0 km/h
2449 24-08-2010 00:00:00 19.18 C 12.09 g/m*3 19.18 C 0 km/h
2450 24-08-2010 01:00:00 19.2 C 12.43 g/m*3 19.2 C 0 km/h
Sensor: Nr:Datum:Temp:Abs-Feuchte:Windchill:Wind:
Aussen-T/F 2451 24-08-2010 02:00:00 19.68 C 12.28 g/m*3 19.68 C 0 km/h
2452 24-08-2010 03:00:00 18.34 C 11.85 g/m*3 18.34 C 0 km/h
2453 24-08-2010 04:00:00 18.06 C 9.53 g/m*3 18.06 C 0 km/h
2454 24-08-2010 05:00:00 17.24 C 9.51 g/m*3 17.24 C 0 km/h
2455 24-08-2010 06:00:00 17.08 C 9.48 g/m*3 17.08 C 0 km/h
2456 24-08-2010 07:00:00 16.44 C 9.23 g/m*3 16.44 C 0 km/h
2457 24-08-2010 08:00:00 16.16 C 8.45 g/m*3 16.16 C 0 km/h
2458 24-08-2010 09:00:00 16.76 C 7.3 g/m*3 16.76 C 0 km/h
2459 24-08-2010 10:00:00 17.88 C 7.23 g/m*3 17.88 C 0 km/h
2460 24-08-2010 11:00:00 19.08 C 6.88 g/m*3 19.08 C 0 km/h
2461 24-08-2010 12:00:00 20.04 C 6.34 g/m*3 20.04 C 0 km/h
2462 24-08-2010 13:00:00 21 C 5.94 g/m*3 21 C 0 km/h
2463 24-08-2010 14:00:00 21.46 C 5.49 g/m*3 21.46 C 0 km/h
2464 24-08-2010 15:00:00 21.82 C 5.11 g/m*3 21.82 C 0 km/h
2465 24-08-2010 16:00:00 23.04 C 4.61 g/m*3 23.04 C 0 km/h
2466 24-08-2010 17:00:00 23.22 C 4.7 g/m*3 23.22 C 0 km/h
2467 24-08-2010 18:00:00 22.92 C 5.11 g/m*3 22.92 C 0 km/h
2468 24-08-2010 19:00:00 21.68 C 5.18 g/m*3 21.68 C 0 km/h
2469 24-08-2010 20:00:00 19.76 C 5.79 g/m*3 19.76 C 0 km/h
2470 24-08-2010 21:00:00 18.28 C 6.12 g/m*3 18.28 C 0 km/h
2471 24-08-2010 22:00:00 17.4 C 6.28 g/m*3 17.4 C 0 km/h
2472 24-08-2010 23:00:00 16.78 C 6.43 g/m*3 16.78 C 0 km/h
2473 25-08-2010 00:00:00 16.16 C 6.55 g/m*3 16.16 C 0 km/h
2474 25-08-2010 01:00:00 15.52 C 6.8 g/m*3 15.52 C 0 km/h
2475 25-08-2010 02:00:00 14.66 C 7.11 g/m*3 14.66 C 0 km/h
Sensor: Nr:Datum:Temp:Abs-Feuchte:Windchill:Wind:
Aussen-T/F 2476 25-08-2010 03:00:00 13.76 C 7.56 g/m*3 13.76 C 0 km/h
2477 25-08-2010 04:00:00 13.4 C 7.7 g/m*3 13.4 C 0 km/h
2478 25-08-2010 05:00:00 13.38 C 7.52 g/m*3 13.38 C 0 km/h
2479 25-08-2010 06:00:00 12.94 C 7.71 g/m*3 12.94 C 0 km/h
2480 25-08-2010 07:00:00 12.76 C 7.84 g/m*3 12.76 C 0 km/h
2481 25-08-2010 08:00:00 13.54 C 7.86 g/m*3 13.54 C 0 km/h
2482 25-08-2010 09:00:00 14.92 C 7.91 g/m*3 14.92 C 0 km/h
2483 25-08-2010 10:00:00 16.3 C 7.8 g/m*3 16.3 C 0 km/h
2484 25-08-2010 11:00:00 17.9 C 7.82 g/m*3 17.9 C 0 km/h
2485 25-08-2010 12:00:00 20 C 7.19 g/m*3 20 C 0 km/h
2486 25-08-2010 13:00:00 20.82 C 6.67 g/m*3 20.82 C 0 km/h
2487 25-08-2010 14:00:00 21.46 C 6.43 g/m*3 21.46 C 0 km/h
2488 25-08-2010 15:00:00 23.54 C 6.1 g/m*3 23.54 C 0 km/h
2489 25-08-2010 16:00:00 24.46 C 5.67 g/m*3 24.46 C 0 km/h
2490 25-08-2010 17:00:00 23.2 C 6.65 g/m*3 23.2 C 0 km/h
2491 25-08-2010 18:00:00 21.9 C 7.1 g/m*3 21.9 C 0 km/h
2492 25-08-2010 19:00:00 20.22 C 7.91 g/m*3 20.22 C 0 km/h
2493 25-08-2010 20:00:00 19.04 C 8.23 g/m*3 19.04 C 0 km/h
2494 25-08-2010 21:00:00 18.12 C 8.35 g/m*3 18.12 C 0 km/h
2495 25-08-2010 22:00:00 17.56 C 8.5 g/m*3 17.56 C 0 km/h
2496 25-08-2010 23:00:00 17.3 C 8.81 g/m*3 17.3 C 0 km/h
2497 26-08-2010 00:00:00 17.28 C 9.06 g/m*3 17.28 C 0 km/h
2498 26-08-2010 01:00:00 17.48 C 9.11 g/m*3 17.48 C 0 km/h
2499 26-08-2010 02:00:00 16.88 C 9.97 g/m*3 16.88 C 0 km/h
2500 26-08-2010 03:00:00 16.86 C 10.04 g/m*3 16.86 C 0 km/h
Sensor: Nr:Datum:Temp:Abs-Feuchte:Windchill:Wind:
Aussen-T/F 2501 26-08-2010 04:00:00 16.94 C 9.86 g/m*3 16.94 C 0 km/h
2502 26-08-2010 05:00:00 18.28 C 10.31 g/m*3 18.28 C 0 km/h
2503 26-08-2010 06:00:00 18.18 C 10.53 g/m*3 18.18 C 0 km/h
2504 26-08-2010 07:00:00 19.26 C 10.69 g/m*3 19.26 C 0 km/h
2505 26-08-2010 08:00:00 20.2 C 11.12 g/m*3 20.2 C 0 km/h
2506 26-08-2010 09:00:00 21.52 C 11.33 g/m*3 21.52 C 0 km/h
2507 26-08-2010 10:00:00 22.76 C 11.19 g/m*3 22.76 C 0 km/h
2508 26-08-2010 11:00:00 23.76 C 11.16 g/m*3 23.76 C 0 km/h
2509 26-08-2010 12:00:00 23.54 C 11.15 g/m*3 23.54 C 0 km/h
2510 26-08-2010 13:00:00 22.96 C 11.2 g/m*3 22.96 C 0 km/h
2511 26-08-2010 14:00:00 23.8 C 11.19 g/m*3 23.8 C 0 km/h
2512 26-08-2010 15:00:00 23.68 C 11.32 g/m*3 23.68 C 0 km/h
2513 26-08-2010 16:00:00 23.94 C 11.28 g/m*3 23.94 C 0 km/h
2514 26-08-2010 17:00:00 23.62 C 11.29 g/m*3 23.62 C 0 km/h
2515 26-08-2010 18:00:00 23.18 C 11.67 g/m*3 23.18 C 0 km/h
2516 26-08-2010 19:00:00 21.66 C 13.36 g/m*3 21.66 C 0 km/h
2517 26-08-2010 20:00:00 20.94 C 14.49 g/m*3 20.94 C 0 km/h
2518 26-08-2010 21:00:00 20.42 C 14.03 g/m*3 20.42 C 0 km/h
2519 26-08-2010 22:00:00 19.76 C 14.62 g/m*3 19.76 C 0 km/h
2520 26-08-2010 23:00:00 19.44 C 14.95 g/m*3 19.44 C 0 km/h
2521 27-08-2010 00:00:00 18.98 C 14.91 g/m*3 18.98 C 0 km/h
2522 27-08-2010 01:00:00 18.76 C 14.97 g/m*3 18.76 C 0 km/h
2523 27-08-2010 02:00:00 18.62 C 14.98 g/m*3 18.62 C 0 km/h
2524 27-08-2010 03:00:00 18.38 C 14.77 g/m*3 18.38 C 0 km/h
2525 27-08-2010 04:00:00 18.34 C 14.73 g/m*3 18.34 C 0 km/h
Sensor: Nr:Datum:Temp:Abs-Feuchte:Windchill:Wind:
Aussen-T/F 2526 27-08-2010 05:00:00 18.4 C 14.88 g/m*3 18.4 C 0 km/h
2527 27-08-2010 06:00:00 18.82 C 15.32 g/m*3 18.82 C 0 km/h
2528 27-08-2010 07:00:00 18.68 C 15.03 g/m*3 18.68 C 0 km/h
2529 27-08-2010 08:00:00 18.58 C 14.94 g/m*3 18.58 C 0 km/h
2530 27-08-2010 09:00:00 19.26 C 15.06 g/m*3 19.26 C 0 km/h
2531 27-08-2010 10:00:00 19.32 C 14.35 g/m*3 19.32 C 0 km/h
2532 27-08-2010 11:00:00 18.16 C 13.58 g/m*3 18.16 C 0 km/h
2533 27-08-2010 12:00:00 20.1 C 13.52 g/m*3 20.1 C 0 km/h
2534 27-08-2010 13:00:00 22.92 C 12.6 g/m*3 22.92 C 0 km/h
2535 27-08-2010 14:00:00 20.76 C 12.07 g/m*3 20.76 C 0 km/h
2536 27-08-2010 15:00:00 18.92 C 13.49 g/m*3 18.92 C 0 km/h
2537 27-08-2010 16:00:00 21.9 C 12.89 g/m*3 21.9 C 0 km/h
2538 27-08-2010 17:00:00 21.3 C 11.71 g/m*3 21.3 C 0 km/h
2539 27-08-2010 18:00:00 16.8 C 12.01 g/m*3 16.8 C 0 km/h
2540 27-08-2010 19:00:00 15.64 C 10.93 g/m*3 15.64 C 0 km/h
2541 27-08-2010 20:00:00 15.12 C 10.44 g/m*3 15.12 C 0 km/h
2542 27-08-2010 21:00:00 14.58 C 10.17 g/m*3 14.58 C 0 km/h
2543 27-08-2010 22:00:00 14.74 C 10.02 g/m*3 14.74 C 0 km/h
2544 27-08-2010 23:00:00 13.96 C 9.34 g/m*3 13.96 C 0 km/h
2545 28-08-2010 00:00:00 13.78 C 9.21 g/m*3 13.78 C 0 km/h
2546 28-08-2010 01:00:00 13.1 C 9.88 g/m*3 13.1 C 0 km/h
2547 28-08-2010 02:00:00 13.14 C 9.82 g/m*3 13.14 C 0 km/h
2548 28-08-2010 03:00:00 13.1 C 9.56 g/m*3 13.1 C 0 km/h
2549 28-08-2010 04:00:00 12.54 C 9.3 g/m*3 12.54 C 0 km/h
2550 28-08-2010 05:00:00 12.12 C 9.15 g/m*3 12.12 C 0 km/h
Sensor: Nr:Datum:Temp:Abs-Feuchte:Windchill:Wind:
Aussen-T/F 2551 28-08-2010 06:00:00 11.58 C 8.76 g/m*3 11.58 C 0 km/h
2552 28-08-2010 07:00:00 11.72 C 8.88 g/m*3 11.72 C 0 km/h
2553 28-08-2010 08:00:00 13.08 C 8.94 g/m*3 13.08 C 0 km/h
2554 28-08-2010 09:00:00 14.22 C 8.58 g/m*3 14.22 C 0 km/h
2555 28-08-2010 10:00:00 15.14 C 8.35 g/m*3 15.14 C 0 km/h
2556 28-08-2010 11:00:00 16.44 C 7.81 g/m*3 16.44 C 0 km/h
2557 28-08-2010 12:00:00 15.42 C 8.71 g/m*3 15.42 C 0 km/h
2558 28-08-2010 13:00:00 16.24 C 10.62 g/m*3 16.24 C 0 km/h
2559 28-08-2010 14:00:00 15.6 C 7.69 g/m*3 15.6 C 0 km/h
2560 28-08-2010 15:00:00 16.72 C 7.46 g/m*3 16.72 C 0 km/h
2561 28-08-2010 16:00:00 15.1 C 8.08 g/m*3 15.1 C 0 km/h
2562 28-08-2010 17:00:00 15.6 C 8.67 g/m*3 15.6 C 0 km/h
2563 28-08-2010 18:00:00 17.56 C 7.42 g/m*3 17.56 C 0 km/h
2564 28-08-2010 19:00:00 15.26 C 8.34 g/m*3 15.26 C 0 km/h
2565 28-08-2010 20:00:00 13.1 C 9.04 g/m*3 13.1 C 0 km/h
2566 28-08-2010 21:00:00 12.46 C 9.12 g/m*3 12.46 C 0 km/h
2567 28-08-2010 22:00:00 12.24 C 8.96 g/m*3 12.24 C 0 km/h
2568 28-08-2010 23:00:00 12.36 C 8.72 g/m*3 12.36 C 0 km/h
2569 29-08-2010 00:00:00 11.9 C 8.47 g/m*3 11.9 C 0 km/h
2570 29-08-2010 01:00:00 11.5 C 8.45 g/m*3 11.5 C 0 km/h
2571 29-08-2010 02:00:00 11.74 C 8.54 g/m*3 11.74 C 0 km/h
2572 29-08-2010 03:00:00 11.76 C 8.48 g/m*3 11.76 C 0 km/h
2573 29-08-2010 04:00:00 11.5 C 8.39 g/m*3 11.5 C 0 km/h
2574 29-08-2010 05:00:00 11.74 C 8.33 g/m*3 11.74 C 0 km/h
2575 29-08-2010 06:00:00 12.1 C 8.3 g/m*3 12.1 C 0 km/h
Sensor: Nr:Datum:Temp:Abs-Feuchte:Windchill:Wind:
Aussen-T/F 2576 29-08-2010 07:00:00 12.2 C 8.33 g/m*3 12.2 C 0 km/h
2577 29-08-2010 08:00:00 12.44 C 8.35 g/m*3 12.44 C 0 km/h
2578 29-08-2010 09:00:00 14 C 8.18 g/m*3 14 C 0 km/h
2579 29-08-2010 10:00:00 15.4 C 8.04 g/m*3 15.4 C 0 km/h
2580 29-08-2010 11:00:00 16.26 C 7.92 g/m*3 16.26 C 0 km/h
2581 29-08-2010 12:00:00 15.12 C 9.04 g/m*3 15.12 C 0 km/h
2582 29-08-2010 13:00:00 16.04 C 8.71 g/m*3 16.04 C 0 km/h
2583 29-08-2010 14:00:00 16.46 C 8.4 g/m*3 16.46 C 0 km/h
2584 29-08-2010 15:00:00 15.08 C 8.92 g/m*3 15.08 C 0 km/h
2585 29-08-2010 16:00:00 15.76 C 8.51 g/m*3 15.76 C 0 km/h
2586 29-08-2010 17:00:00 14.96 C 8.31 g/m*3 14.96 C 0 km/h
2587 29-08-2010 18:00:00 13.06 C 9.31 g/m*3 13.06 C 0 km/h
2588 29-08-2010 19:00:00 12 C 9.29 g/m*3 12 C 0 km/h
2589 29-08-2010 20:00:00 11.78 C 8.96 g/m*3 11.78 C 0 km/h
2590 29-08-2010 21:00:00 11.64 C 8.71 g/m*3 11.64 C 0 km/h
2591 29-08-2010 22:00:00 9.2 C 8.02 g/m*3 9.2 C 0 km/h
2592 29-08-2010 23:00:00 9.12 C 8.16 g/m*3 9.12 C 0 km/h
2593 30-08-2010 00:00:00 9.2 C 7.98 g/m*3 9.2 C 0 km/h
2594 30-08-2010 01:00:00 9.94 C 7.84 g/m*3 9.94 C 0 km/h
2595 30-08-2010 02:00:00 10.52 C 7.77 g/m*3 10.52 C 0 km/h
2596 30-08-2010 03:00:00 10.82 C 7.66 g/m*3 10.82 C 0 km/h
2597 30-08-2010 04:00:00 10.26 C 7.99 g/m*3 10.26 C 0 km/h
2598 30-08-2010 05:00:00 9.62 C 8.02 g/m*3 9.62 C 0 km/h
2599 30-08-2010 06:00:00 10.06 C 8.47 g/m*3 10.06 C 0 km/h
2600 30-08-2010 07:00:00 9.96 C 8.4 g/m*3 9.96 C 0 km/h
Sensor: Nr:Datum:Temp:Abs-Feuchte:Windchill:Wind:
Aussen-T/F 2601 30-08-2010 08:00:00 10.82 C 8.63 g/m*3 10.82 C 0 km/h
2602 30-08-2010 09:00:00 10.98 C 8.64 g/m*3 10.98 C 0 km/h
2603 30-08-2010 10:00:00 11.86 C 8.83 g/m*3 11.86 C 0 km/h
2604 30-08-2010 11:00:00 13 C 8.32 g/m*3 13 C 0 km/h
2605 30-08-2010 12:00:00 14.02 C 7.63 g/m*3 14.02 C 0 km/h
2606 30-08-2010 13:00:00 16.04 C 6.77 g/m*3 16.04 C 0 km/h
2607 30-08-2010 14:00:00 16.28 C 7.73 g/m*3 16.28 C 0 km/h
2608 30-08-2010 15:00:00 17.48 C 7.8 g/m*3 17.48 C 0 km/h
2609 30-08-2010 16:00:00 15.86 C 9.16 g/m*3 15.86 C 0 km/h
2610 30-08-2010 17:00:00 15.04 C 9.23 g/m*3 15.04 C 0 km/h
2611 30-08-2010 18:00:00 14.32 C 8.76 g/m*3 14.32 C 0 km/h
2612 30-08-2010 19:00:00 14.04 C 8.97 g/m*3 14.04 C 0 km/h
2613 30-08-2010 20:00:00 13.76 C 8.72 g/m*3 13.76 C 0 km/h
2614 30-08-2010 21:00:00 12.72 C 9.56 g/m*3 12.72 C 0 km/h
2615 30-08-2010 22:00:00 12.72 C 9.92 g/m*3 12.72 C 0 km/h
2616 30-08-2010 23:00:00 12.3 C 9.69 g/m*3 12.3 C 0 km/h
2617 31-08-2010 00:00:00 12.22 C 9.62 g/m*3 12.22 C 0 km/h
2618 31-08-2010 01:00:00 12.42 C 9.45 g/m*3 12.42 C 0 km/h
2619 31-08-2010 02:00:00 12.36 C 9.31 g/m*3 12.36 C 0 km/h
2620 31-08-2010 03:00:00 12.1 C 9.07 g/m*3 12.1 C 0 km/h
2621 31-08-2010 04:00:00 11.52 C 9.06 g/m*3 11.52 C 0 km/h
2622 31-08-2010 05:00:00 11.38 C 9.04 g/m*3 11.38 C 0 km/h
2623 31-08-2010 06:00:00 11.7 C 9.22 g/m*3 11.7 C 0 km/h
2624 31-08-2010 07:00:00 12.2 C 9.09 g/m*3 12.2 C 0 km/h
2625 31-08-2010 08:00:00 12.64 C 9.07 g/m*3 12.64 C 0 km/h
Sensor: Nr:Datum:Temp:Abs-Feuchte:Windchill:Wind:
Aussen-T/F 2626 31-08-2010 09:00:00 13.58 C 8.86 g/m*3 13.58 C 0 km/h
2627 31-08-2010 10:00:00 14.14 C 8.35 g/m*3 14.14 C 0 km/h
2628 31-08-2010 11:00:00 15.6 C 8.09 g/m*3 15.6 C 0 km/h
2629 31-08-2010 12:00:00 16.88 C 7.93 g/m*3 16.88 C 0 km/h
2630 31-08-2010 13:00:00 17.96 C 6.99 g/m*3 17.96 C 0 km/h
2631 31-08-2010 14:00:00 20.16 C 6.45 g/m*3 20.16 C 0 km/h
2632 31-08-2010 15:00:00 21.2 C 5.86 g/m*3 21.2 C 0 km/h
2633 31-08-2010 16:00:00 21.46 C 5.64 g/m*3 21.46 C 0 km/h
2634 31-08-2010 17:00:00 21.82 C 5.57 g/m*3 21.82 C 0 km/h
2635 31-08-2010 18:00:00 22.26 C 5.67 g/m*3 22.26 C 0 km/h
2636 31-08-2010 19:00:00 20.32 C 6.55 g/m*3 20.32 C 0 km/h
2637 31-08-2010 20:00:00 16.38 C 7.17 g/m*3 16.38 C 0 km/h
2638 31-08-2010 21:00:00 14.44 C 7.61 g/m*3 14.44 C 0 km/h
2639 31-08-2010 22:00:00 13.24 C 8.1 g/m*3 13.24 C 0 km/h
2640 31-08-2010 23:00:00 12.32 C 8.09 g/m*3 12.32 C 0 km/h
2641 01-09-2010 00:00:00 11.58 C 8.08 g/m*3 11.58 C 0 km/h
2642 01-09-2010 01:00:00 10.98 C 8.1 g/m*3 10.98 C 0 km/h
2643 01-09-2010 02:00:00 10.36 C 7.96 g/m*3 10.36 C 0 km/h
2644 01-09-2010 03:00:00 9.74 C 7.97 g/m*3 9.74 C 0 km/h
2645 01-09-2010 04:00:00 9.14 C 7.86 g/m*3 9.14 C 0 km/h
2646 01-09-2010 05:00:00 8.92 C 7.95 g/m*3 8.92 C 0 km/h
2647 01-09-2010 06:00:00 8.94 C 8.04 g/m*3 8.94 C 0 km/h
2648 01-09-2010 07:00:00 9.02 C 7.98 g/m*3 9.02 C 0 km/h
2649 01-09-2010 08:00:00 9.26 C 8.05 g/m*3 9.26 C 0 km/h
2650 01-09-2010 09:00:00 10.22 C 8.14 g/m*3 10.22 C 0 km/h
Sensor: Nr:Datum:Temp:Abs-Feuchte:Windchill:Wind:
Aussen-T/F 2651 01-09-2010 10:00:00 12.1 C 8.56 g/m*3 12.1 C 0 km/h
2652 01-09-2010 11:00:00 14.26 C 8.78 g/m*3 14.26 C 0 km/h
2653 01-09-2010 12:00:00 17.24 C 8.54 g/m*3 17.24 C 0 km/h
2654 01-09-2010 13:00:00 19.52 C 7.96 g/m*3 19.52 C 0 km/h
2655 01-09-2010 14:00:00 21.18 C 7.03 g/m*3 21.18 C 0 km/h
2656 01-09-2010 15:00:00 23.6 C 6 g/m*3 23.6 C 0 km/h
2657 01-09-2010 16:00:00 23.8 C 6.02 g/m*3 23.8 C 0 km/h
2658 01-09-2010 17:00:00 22.04 C 6.38 g/m*3 22.04 C 0 km/h
2659 01-09-2010 18:00:00 21.1 C 6.96 g/m*3 21.1 C 0 km/h
2660 01-09-2010 19:00:00 19.62 C 7.88 g/m*3 19.62 C 0 km/h
2661 01-09-2010 20:00:00 17.36 C 8.72 g/m*3 17.36 C 0 km/h
2662 01-09-2010 21:00:00 16.24 C 8.85 g/m*3 16.24 C 0 km/h
2663 01-09-2010 22:00:00 15.55 C 8.82 g/m*3 15.55 C 0 km/h
2664 01-09-2010 23:00:00 14.16 C 8.28 g/m*3 14.16 C 0 km/h
2665 02-09-2010 00:00:00 13.02 C 8.22 g/m*3 13.02 C 0 km/h
2666 02-09-2010 01:00:00 12.32 C 8.37 g/m*3 12.32 C 0 km/h
2667 02-09-2010 02:00:00 11.6 C 8.56 g/m*3 11.6 C 0 km/h
2668 02-09-2010 03:00:00 11 C 8.31 g/m*3 11 C 0 km/h
2669 02-09-2010 04:00:00 10.44 C 8.29 g/m*3 10.44 C 0 km/h
2670 02-09-2010 05:00:00 10.32 C 8.5 g/m*3 10.32 C 0 km/h
2671 02-09-2010 06:00:00 10.34 C 8.6 g/m*3 10.34 C 0 km/h
2672 02-09-2010 07:00:00 10.68 C 8.81 g/m*3 10.68 C 0 km/h
2673 02-09-2010 08:00:00 11.34 C 8.96 g/m*3 11.34 C 0 km/h
2674 02-09-2010 09:00:00 12.4 C 8.98 g/m*3 12.4 C 0 km/h
2675 02-09-2010 10:00:00 14.02 C 8.65 g/m*3 14.02 C 0 km/h
Sensor: Nr:Datum:Temp:Abs-Feuchte:Windchill:Wind:
Aussen-T/F 2676 02-09-2010 11:00:00 15.46 C 9.02 g/m*3 15.46 C 0 km/h
2677 02-09-2010 12:00:00 18.66 C 8.75 g/m*3 18.66 C 0 km/h
2678 02-09-2010 13:00:00 20.84 C 7.37 g/m*3 20.84 C 0 km/h
2679 02-09-2010 14:00:00 22.2 C 7.22 g/m*3 22.2 C 0 km/h
2680 02-09-2010 15:00:00 21.42 C 6.91 g/m*3 21.42 C 0 km/h
2681 02-09-2010 16:00:00 20.6 C 6.91 g/m*3 20.6 C 0 km/h
2682 02-09-2010 17:00:00 19.54 C 7.13 g/m*3 19.54 C 0 km/h
2683 02-09-2010 18:00:00 18.66 C 7.41 g/m*3 18.66 C 0 km/h
2684 02-09-2010 19:00:00 17.64 C 8.93 g/m*3 17.64 C 0 km/h
2685 02-09-2010 20:00:00 15.14 C 10.01 g/m*3 15.14 C 0 km/h
2686 02-09-2010 21:00:00 14.42 C 9.85 g/m*3 14.42 C 0 km/h
2687 02-09-2010 22:00:00 13.84 C 9.34 g/m*3 13.84 C 0 km/h
2688 02-09-2010 23:00:00 12.98 C 9.2 g/m*3 12.98 C 0 km/h
2689 03-09-2010 00:00:00 12.42 C 9.1 g/m*3 12.42 C 0 km/h
2690 03-09-2010 01:00:00 11.82 C 8.92 g/m*3 11.82 C 0 km/h
2691 03-09-2010 02:00:00 11.24 C 8.76 g/m*3 11.24 C 0 km/h
2692 03-09-2010 03:00:00 10.72 C 8.63 g/m*3 10.72 C 0 km/h
2693 03-09-2010 04:00:00 10.34 C 8.6 g/m*3 10.34 C 0 km/h
2694 03-09-2010 05:00:00 10.4 C 8.75 g/m*3 10.4 C 0 km/h
2695 03-09-2010 06:00:00 11.08 C 9.24 g/m*3 11.08 C 0 km/h
2696 03-09-2010 07:00:00 11.36 C 9.32 g/m*3 11.36 C 0 km/h
2697 03-09-2010 08:00:00 11.64 C 9.34 g/m*3 11.64 C 0 km/h
2698 03-09-2010 09:00:00 12.44 C 9.29 g/m*3 12.44 C 0 km/h
2699 03-09-2010 10:00:00 13.58 C 9.22 g/m*3 13.58 C 0 km/h
2700 03-09-2010 11:00:00 15.9 C 8.94 g/m*3 15.9 C 0 km/h
Sensor: Nr:Datum:Temp:Abs-Feuchte:Windchill:Wind:
Aussen-T/F 2701 03-09-2010 12:00:00 17.86 C 8.47 g/m*3 17.86 C 0 km/h
2702 03-09-2010 13:00:00 19.68 C 8.18 g/m*3 19.68 C 0 km/h
2703 03-09-2010 14:00:00 20.4 C 7.64 g/m*3 20.4 C 0 km/h
2704 03-09-2010 15:00:00 22.78 C 7.02 g/m*3 22.78 C 0 km/h
2705 03-09-2010 16:00:00 25.12 C 6.58 g/m*3 25.12 C 0 km/h
2706 03-09-2010 17:00:00 24.12 C 6.53 g/m*3 24.12 C 0 km/h
2707 03-09-2010 18:00:00 22.7 C 8.12 g/m*3 22.7 C 0 km/h
2708 03-09-2010 19:00:00 20.7 C 8.86 g/m*3 20.7 C 0 km/h
2709 03-09-2010 20:00:00 18.62 C 8.25 g/m*3 18.62 C 0 km/h
2710 03-09-2010 21:00:00 16.32 C 8.56 g/m*3 16.32 C 0 km/h
2711 03-09-2010 22:00:00 15.36 C 8.86 g/m*3 15.36 C 0 km/h
2712 03-09-2010 23:00:00 15.34 C 9.22 g/m*3 15.34 C 0 km/h
2713 04-09-2010 00:00:00 15.1 C 9.29 g/m*3 15.1 C 0 km/h
2714 04-09-2010 01:00:00 14.82 C 9.41 g/m*3 14.82 C 0 km/h
2715 04-09-2010 02:00:00 14.28 C 9.4 g/m*3 14.28 C 0 km/h
2716 04-09-2010 03:00:00 13.72 C 9.41 g/m*3 13.72 C 0 km/h
2717 04-09-2010 04:00:00 13.2 C 9.48 g/m*3 13.2 C 0 km/h
2718 04-09-2010 05:00:00 13.1 C 9.59 g/m*3 13.1 C 0 km/h
2719 04-09-2010 06:00:00 12.54 C 9.3 g/m*3 12.54 C 0 km/h
2720 04-09-2010 07:00:00 12.08 C 9.25 g/m*3 12.08 C 0 km/h
2721 04-09-2010 08:00:00 12.8 C 9.77 g/m*3 12.8 C 0 km/h
2722 04-09-2010 09:00:00 14.44 C 9.96 g/m*3 14.44 C 0 km/h
2723 04-09-2010 10:00:00 16.3 C 9.49 g/m*3 16.3 C 0 km/h
2724 04-09-2010 11:00:00 18.88 C 8.77 g/m*3 18.88 C 0 km/h
2725 04-09-2010 12:00:00 18.86 C 7.89 g/m*3 18.86 C 0 km/h
Sensor: Nr:Datum:Temp:Abs-Feuchte:Windchill:Wind:
Aussen-T/F 2726 04-09-2010 13:00:00 19.58 C 7.62 g/m*3 19.58 C 0 km/h
2727 04-09-2010 14:00:00 22.2 C 6.71 g/m*3 22.2 C 0 km/h
2728 04-09-2010 15:00:00 22.88 C 6.29 g/m*3 22.88 C 0 km/h
2729 04-09-2010 16:00:00 22.42 C 5.53 g/m*3 22.42 C 0 km/h
2730 04-09-2010 17:00:00 23.12 C 4.88 g/m*3 23.12 C 0 km/h
2731 04-09-2010 18:00:00 22.74 C 4.37 g/m*3 22.74 C 0 km/h
2732 04-09-2010 19:00:00 19.74 C 5.55 g/m*3 19.74 C 0 km/h
2733 04-09-2010 20:00:00 16.14 C 6.54 g/m*3 16.14 C 0 km/h
2734 04-09-2010 21:00:00 14.92 C 6.94 g/m*3 14.92 C 0 km/h
2735 04-09-2010 22:00:00 14.16 C 7.26 g/m*3 14.16 C 0 km/h
2736 04-09-2010 23:00:00 13.12 C 7.59 g/m*3 13.12 C 0 km/h
2737 05-09-2010 00:00:00 12.16 C 7.62 g/m*3 12.16 C 0 km/h
2738 05-09-2010 01:00:00 11.22 C 7.53 g/m*3 11.22 C 0 km/h
2739 05-09-2010 02:00:00 10.44 C 7.52 g/m*3 10.44 C 0 km/h
2740 05-09-2010 03:00:00 9.72 C 7.4 g/m*3 9.72 C 0 km/h
2741 05-09-2010 04:00:00 9.12 C 7.27 g/m*3 9.12 C 0 km/h
2742 05-09-2010 05:00:00 8.64 C 7.27 g/m*3 8.64 C 0 km/h
2743 05-09-2010 06:00:00 8.08 C 7.25 g/m*3 8.08 C 0 km/h
2744 05-09-2010 07:00:00 8.4 C 7.52 g/m*3 8.4 C 0 km/h
2745 05-09-2010 08:00:00 9.82 C 7.91 g/m*3 9.82 C 0 km/h
2746 05-09-2010 09:00:00 11.1 C 7.88 g/m*3 11.1 C 0 km/h
2747 05-09-2010 10:00:00 12.36 C 8.44 g/m*3 12.36 C 0 km/h
2748 05-09-2010 11:00:00 15.42 C 8.16 g/m*3 15.42 C 0 km/h
2749 05-09-2010 12:00:00 18.02 C 6.52 g/m*3 18.02 C 0 km/h
2750 05-09-2010 13:00:00 20.14 C 5.92 g/m*3 20.14 C 0 km/h
Sensor: Nr:Datum:Temp:Abs-Feuchte:Windchill:Wind:
Aussen-T/F 2751 05-09-2010 14:00:00 23.5 C 5.2 g/m*3 23.5 C 0 km/h
2752 05-09-2010 15:00:00 24.16 C 4.83 g/m*3 24.16 C 0 km/h
2753 05-09-2010 16:00:00 24.4 C 4.67 g/m*3 24.4 C 0 km/h
2754 05-09-2010 17:00:00 24.6 C 5.04 g/m*3 24.6 C 0 km/h
2755 05-09-2010 18:00:00 24.84 C 5.29 g/m*3 24.84 C 0 km/h
2756 05-09-2010 19:00:00 19.38 C 6.4 g/m*3 19.38 C 0 km/h
2757 05-09-2010 20:00:00 16.44 C 6.38 g/m*3 16.44 C 0 km/h
2758 05-09-2010 21:00:00 14.9 C 6.81 g/m*3 14.9 C 0 km/h
2759 05-09-2010 22:00:00 14.12 C 7.1 g/m*3 14.12 C 0 km/h
2760 05-09-2010 23:00:00 13.94 C 6.92 g/m*3 13.94 C 0 km/h
2761 06-09-2010 00:00:00 13.22 C 7.08 g/m*3 13.22 C 0 km/h
2762 06-09-2010 01:00:00 12.36 C 7.11 g/m*3 12.36 C 0 km/h
2763 06-09-2010 02:00:00 11.62 C 7.2 g/m*3 11.62 C 0 km/h
2764 06-09-2010 03:00:00 11.1 C 7.15 g/m*3 11.1 C 0 km/h
2765 06-09-2010 04:00:00 10.7 C 7.09 g/m*3 10.7 C 0 km/h
2766 06-09-2010 05:00:00 10.24 C 7.02 g/m*3 10.24 C 0 km/h
2767 06-09-2010 06:00:00 9.56 C 7 g/m*3 9.56 C 0 km/h
2768 06-09-2010 07:00:00 9.28 C 7.07 g/m*3 9.28 C 0 km/h
2769 06-09-2010 08:00:00 9.68 C 7.22 g/m*3 9.68 C 0 km/h
2770 06-09-2010 09:00:00 10.94 C 7.52 g/m*3 10.94 C 0 km/h
2771 06-09-2010 10:00:00 13.48 C 7.52 g/m*3 13.48 C 0 km/h
2772 06-09-2010 11:00:00 16.32 C 7.14 g/m*3 16.32 C 0 km/h
2773 06-09-2010 12:00:00 18.64 C 5.58 g/m*3 18.64 C 0 km/h
2774 06-09-2010 13:00:00 20.24 C 5.4 g/m*3 20.24 C 0 km/h
2775 06-09-2010 14:00:00 22.34 C 4.51 g/m*3 22.34 C 0 km/h
Sensor: Nr:Datum:Temp:Abs-Feuchte:Windchill:Wind:
Aussen-T/F 2776 06-09-2010 15:00:00 24 C 4.35 g/m*3 24 C 0 km/h
2777 06-09-2010 16:00:00 23.88 C 4.32 g/m*3 23.88 C 0 km/h
2778 06-09-2010 17:00:00 24.42 C 4.46 g/m*3 24.42 C 0 km/h
2779 06-09-2010 18:00:00 21.44 C 5.34 g/m*3 21.44 C 0 km/h
2780 06-09-2010 19:00:00 18.72 C 5.87 g/m*3 18.72 C 0 km/h
2781 06-09-2010 20:00:00 17.1 C 5.62 g/m*3 17.1 C 0 km/h
2782 06-09-2010 21:00:00 16.22 C 5.44 g/m*3 16.22 C 0 km/h
2783 06-09-2010 22:00:00 15.5 C 5.6 g/m*3 15.5 C 0 km/h
2784 06-09-2010 23:00:00 15.2 C 5.63 g/m*3 15.2 C 0 km/h
2785 07-09-2010 00:00:00 15.38 C 5.51 g/m*3 15.38 C 0 km/h
2786 07-09-2010 01:00:00 15.42 C 5.39 g/m*3 15.42 C 0 km/h
2787 07-09-2010 02:00:00 15.46 C 5.38 g/m*3 15.46 C 0 km/h
2788 07-09-2010 03:00:00 14.34 C 6.03 g/m*3 14.34 C 0 km/h
2789 07-09-2010 04:00:00 13.06 C 7.01 g/m*3 13.06 C 0 km/h
2790 07-09-2010 05:00:00 12.98 C 7.11 g/m*3 12.98 C 0 km/h
2791 07-09-2010 06:00:00 12.5 C 7.04 g/m*3 12.5 C 0 km/h
2792 07-09-2010 07:00:00 12.12 C 7.09 g/m*3 12.12 C 0 km/h
2793 07-09-2010 08:00:00 11.56 C 8.11 g/m*3 11.56 C 0 km/h
2794 07-09-2010 09:00:00 11.46 C 8.41 g/m*3 11.46 C 0 km/h
2795 07-09-2010 10:00:00 11.46 C 8.88 g/m*3 11.46 C 0 km/h
2796 07-09-2010 11:00:00 11.64 C 9.21 g/m*3 11.64 C 0 km/h
2797 07-09-2010 12:00:00 12.42 C 9.5 g/m*3 12.42 C 0 km/h
2798 07-09-2010 13:00:00 12.78 C 9.31 g/m*3 12.78 C 0 km/h
2799 07-09-2010 14:00:00 13.36 C 9.37 g/m*3 13.36 C 0 km/h
2800 07-09-2010 15:00:00 14.58 C 9.12 g/m*3 14.58 C 0 km/h
Sensor: Nr:Datum:Temp:Abs-Feuchte:Windchill:Wind:
Aussen-T/F 2801 07-09-2010 16:00:00 15.52 C 9.11 g/m*3 15.52 C 0 km/h
2802 07-09-2010 17:00:00 14.88 C 9.06 g/m*3 14.88 C 0 km/h
2803 07-09-2010 18:00:00 13.98 C 9.08 g/m*3 13.98 C 0 km/h
2804 07-09-2010 19:00:00 13.78 C 9.38 g/m*3 13.78 C 0 km/h
2805 07-09-2010 20:00:00 13.24 C 9.55 g/m*3 13.24 C 0 km/h
2806 07-09-2010 21:00:00 12.96 C 9.89 g/m*3 12.96 C 0 km/h
2807 07-09-2010 22:00:00 12.86 C 10.03 g/m*3 12.86 C 0 km/h
2808 07-09-2010 23:00:00 12.92 C 10.16 g/m*3 12.92 C 0 km/h
2809 08-09-2010 00:00:00 12.88 C 10.24 g/m*3 12.88 C 0 km/h
2810 08-09-2010 01:00:00 13 C 10.37 g/m*3 13 C 0 km/h
2811 08-09-2010 02:00:00 13.2 C 10.61 g/m*3 13.2 C 0 km/h
2812 08-09-2010 03:00:00 13.56 C 10.92 g/m*3 13.56 C 0 km/h
2813 08-09-2010 04:00:00 13.56 C 10.92 g/m*3 13.56 C 0 km/h
2814 08-09-2010 05:00:00 14.16 C 11.4 g/m*3 14.16 C 0 km/h
2815 08-09-2010 06:00:00 14.36 C 11.44 g/m*3 14.36 C 0 km/h
2816 08-09-2010 07:00:00 14.22 C 11.25 g/m*3 14.22 C 0 km/h
2817 08-09-2010 08:00:00 14.22 C 11.25 g/m*3 14.22 C 0 km/h
2818 08-09-2010 09:00:00 15.22 C 11.62 g/m*3 15.22 C 0 km/h
2819 08-09-2010 10:00:00 15.52 C 11.41 g/m*3 15.52 C 0 km/h
2820 08-09-2010 11:00:00 15.24 C 11.03 g/m*3 15.24 C 0 km/h
2821 08-09-2010 12:00:00 14.74 C 11.26 g/m*3 14.74 C 0 km/h
2822 08-09-2010 13:00:00 16.22 C 12.12 g/m*3 16.22 C 0 km/h
2823 08-09-2010 14:00:00 17.58 C 11.56 g/m*3 17.58 C 0 km/h
2824 08-09-2010 15:00:00 17.94 C 11.17 g/m*3 17.94 C 0 km/h
2825 08-09-2010 16:00:00 18.54 C 10.69 g/m*3 18.54 C 0 km/h
Sensor: Nr:Datum:Temp:Abs-Feuchte:Windchill:Wind:
Aussen-T/F 2826 08-09-2010 17:00:00 19.88 C 10.23 g/m*3 19.88 C 0 km/h
2827 08-09-2010 18:00:00 19.06 C 10.24 g/m*3 19.06 C 0 km/h
2828 08-09-2010 19:00:00 18.2 C 10.54 g/m*3 18.2 C 0 km/h
2829 08-09-2010 20:00:00 16.8 C 10.52 g/m*3 16.8 C 0 km/h
2830 08-09-2010 21:00:00 15.72 C 9.7 g/m*3 15.72 C 0 km/h
2831 08-09-2010 22:00:00 14.78 C 9.79 g/m*3 14.78 C 0 km/h
2832 08-09-2010 23:00:00 14.48 C 10.01 g/m*3 14.48 C 0 km/h
2833 09-09-2010 00:00:00 14.38 C 10.2 g/m*3 14.38 C 0 km/h
2834 09-09-2010 01:00:00 15.04 C 10.08 g/m*3 15.04 C 0 km/h
2835 09-09-2010 02:00:00 15.14 C 9.93 g/m*3 15.14 C 0 km/h
2836 09-09-2010 03:00:00 15.32 C 9.78 g/m*3 15.32 C 0 km/h
2837 09-09-2010 04:00:00 15.22 C 9.33 g/m*3 15.22 C 0 km/h
2838 09-09-2010 05:00:00 14.9 C 9.02 g/m*3 14.9 C 0 km/h
2839 09-09-2010 06:00:00 14.78 C 8.88 g/m*3 14.78 C 0 km/h
2840 09-09-2010 07:00:00 14.58 C 9.07 g/m*3 14.58 C 0 km/h
2841 09-09-2010 08:00:00 14.8 C 9.1 g/m*3 14.8 C 0 km/h
2842 09-09-2010 09:00:00 15.26 C 9.09 g/m*3 15.26 C 0 km/h
2843 09-09-2010 10:00:00 16.76 C 9.1 g/m*3 16.76 C 0 km/h
2844 09-09-2010 11:00:00 17.78 C 8.88 g/m*3 17.78 C 0 km/h
2845 09-09-2010 12:00:00 18.64 C 8.17 g/m*3 18.64 C 0 km/h
2846 09-09-2010 13:00:00 18.8 C 8.21 g/m*3 18.8 C 0 km/h
2847 09-09-2010 14:00:00 18.98 C 8.59 g/m*3 18.98 C 0 km/h
2848 09-09-2010 15:00:00 19.38 C 9.13 g/m*3 19.38 C 0 km/h
2849 09-09-2010 16:00:00 17.1 C 10.92 g/m*3 17.1 C 0 km/h
2850 09-09-2010 17:00:00 17.92 C 11.62 g/m*3 17.92 C 0 km/h
Sensor: Nr:Datum:Temp:Abs-Feuchte:Windchill:Wind:
Aussen-T/F 2851 09-09-2010 18:00:00 17.7 C 10.47 g/m*3 17.7 C 0 km/h
2852 09-09-2010 19:00:00 16.54 C 9.46 g/m*3 16.54 C 0 km/h
2853 09-09-2010 20:00:00 15.4 C 9.78 g/m*3 15.4 C 0 km/h
2854 09-09-2010 21:00:00 14.8 C 10.26 g/m*3 14.8 C 0 km/h
2855 09-09-2010 22:00:00 14.74 C 10.17 g/m*3 14.74 C 0 km/h
2856 09-09-2010 23:00:00 14.98 C 9.71 g/m*3 14.98 C 0 km/h
2857 10-09-2010 00:00:00 14.66 C 9.92 g/m*3 14.66 C 0 km/h
2858 10-09-2010 01:00:00 14 C 9.77 g/m*3 14 C 0 km/h
2859 10-09-2010 02:00:00 13.9 C 9.95 g/m*3 13.9 C 0 km/h
2860 10-09-2010 03:00:00 13.9 C 10.07 g/m*3 13.9 C 0 km/h
2861 10-09-2010 04:00:00 13.84 C 10.25 g/m*3 13.84 C 0 km/h
2862 10-09-2010 05:00:00 13.06 C 9.99 g/m*3 13.06 C 0 km/h
2863 10-09-2010 06:00:00 13.12 C 10.24 g/m*3 13.12 C 0 km/h
2864 10-09-2010 07:00:00 13.18 C 9.84 g/m*3 13.18 C 0 km/h
2865 10-09-2010 08:00:00 13.32 C 9.95 g/m*3 13.32 C 0 km/h
2866 10-09-2010 09:00:00 14.6 C 9.54 g/m*3 14.6 C 0 km/h
2867 10-09-2010 10:00:00 16.16 C 9.35 g/m*3 16.16 C 0 km/h
2868 10-09-2010 11:00:00 17.88 C 9.21 g/m*3 17.88 C 0 km/h
2869 10-09-2010 12:00:00 18.74 C 9.18 g/m*3 18.74 C 0 km/h
2870 10-09-2010 13:00:00 19.18 C 8.66 g/m*3 19.18 C 0 km/h
2871 10-09-2010 14:00:00 19.94 C 8.75 g/m*3 19.94 C 0 km/h
2872 10-09-2010 15:00:00 20.82 C 8.59 g/m*3 20.82 C 0 km/h
2873 10-09-2010 16:00:00 21.1 C 8.44 g/m*3 21.1 C 0 km/h
2874 10-09-2010 17:00:00 20.18 C 8.98 g/m*3 20.18 C 0 km/h
2875 10-09-2010 18:00:00 17.86 C 10.21 g/m*3 17.86 C 0 km/h
Sensor: Nr:Datum:Temp:Abs-Feuchte:Windchill:Wind:
Aussen-T/F 2876 10-09-2010 19:00:00 16.26 C 11.43 g/m*3 16.26 C 0 km/h
2877 10-09-2010 20:00:00 15.68 C 11.57 g/m*3 15.68 C 0 km/h
2878 10-09-2010 21:00:00 15.8 C 11.68 g/m*3 15.8 C 0 km/h
2879 10-09-2010 22:00:00 15.68 C 11.44 g/m*3 15.68 C 0 km/h
2880 10-09-2010 23:00:00 15.46 C 11.18 g/m*3 15.46 C 0 km/h
2881 11-09-2010 00:00:00 15.14 C 10.86 g/m*3 15.14 C 0 km/h
2882 11-09-2010 01:00:00 15 C 10.8 g/m*3 15 C 0 km/h
2883 11-09-2010 02:00:00 14.74 C 10.73 g/m*3 14.74 C 0 km/h
2884 11-09-2010 03:00:00 14.08 C 10.42 g/m*3 14.08 C 0 km/h
2885 11-09-2010 04:00:00 13.14 C 9.86 g/m*3 13.14 C 0 km/h
2886 11-09-2010 05:00:00 12.64 C 9.78 g/m*3 12.64 C 0 km/h
2887 11-09-2010 06:00:00 12.74 C 9.91 g/m*3 12.74 C 0 km/h
2888 11-09-2010 07:00:00 12.16 C 9.54 g/m*3 12.16 C 0 km/h
2889 11-09-2010 08:00:00 13.04 C 10.23 g/m*3 13.04 C 0 km/h
2890 11-09-2010 09:00:00 13.76 C 10.55 g/m*3 13.76 C 0 km/h
2891 11-09-2010 10:00:00 15.66 C 11.32 g/m*3 15.66 C 0 km/h
2892 11-09-2010 11:00:00 18.24 C 11.37 g/m*3 18.24 C 0 km/h
2893 11-09-2010 12:00:00 19.9 C 9.59 g/m*3 19.9 C 0 km/h
2894 11-09-2010 13:00:00 21.76 C 8.81 g/m*3 21.76 C 0 km/h
2895 11-09-2010 14:00:00 24.2 C 8.14 g/m*3 24.2 C 0 km/h
2896 11-09-2010 15:00:00 26.04 C 7.86 g/m*3 26.04 C 0 km/h
2897 11-09-2010 16:00:00 26.34 C 8.19 g/m*3 26.34 C 0 km/h
2898 11-09-2010 17:00:00 27.62 C 8.31 g/m*3 27.62 C 0 km/h
2899 11-09-2010 18:00:00 26.06 C 9.28 g/m*3 26.06 C 0 km/h
2900 11-09-2010 19:00:00 21.76 C 9.72 g/m*3 21.76 C 0 km/h
Sensor: Nr:Datum:Temp:Abs-Feuchte:Windchill:Wind:
Aussen-T/F 2901 11-09-2010 20:00:00 19.34 C 9.51 g/m*3 19.34 C 0 km/h
2902 11-09-2010 21:00:00 18.1 C 10.01 g/m*3 18.1 C 0 km/h
2903 11-09-2010 22:00:00 17.2 C 10.28 g/m*3 17.2 C 0 km/h
2904 11-09-2010 23:00:00 16.56 C 10.4 g/m*3 16.56 C 0 km/h
2905 12-09-2010 00:00:00 16.06 C 10.42 g/m*3 16.06 C 0 km/h
2906 12-09-2010 01:00:00 15.34 C 10.34 g/m*3 15.34 C 0 km/h
2907 12-09-2010 02:00:00 14.88 C 10.39 g/m*3 14.88 C 0 km/h
2908 12-09-2010 03:00:00 14.46 C 10.2 g/m*3 14.46 C 0 km/h
2909 12-09-2010 04:00:00 14.1 C 10.07 g/m*3 14.1 C 0 km/h
2910 12-09-2010 05:00:00 13.76 C 9.98 g/m*3 13.76 C 0 km/h
2911 12-09-2010 06:00:00 13.52 C 9.93 g/m*3 13.52 C 0 km/h
2912 12-09-2010 07:00:00 13.7 C 10.14 g/m*3 13.7 C 0 km/h
2913 12-09-2010 08:00:00 14.26 C 10.3 g/m*3 14.26 C 0 km/h
2914 12-09-2010 09:00:00 14.84 C 10.51 g/m*3 14.84 C 0 km/h
2915 12-09-2010 10:00:00 16.94 C 11.16 g/m*3 16.94 C 0 km/h
2916 12-09-2010 11:00:00 20.02 C 10.69 g/m*3 20.02 C 0 km/h
2917 12-09-2010 12:00:00 21.62 C 10.75 g/m*3 21.62 C 0 km/h
2918 12-09-2010 13:00:00 24.4 C 9.84 g/m*3 24.4 C 0 km/h
2919 12-09-2010 14:00:00 23.86 C 9.2 g/m*3 23.86 C 0 km/h
2920 12-09-2010 15:00:00 19.32 C 8.87 g/m*3 19.32 C 0 km/h
2921 12-09-2010 16:00:00 17.78 C 9.19 g/m*3 17.78 C 0 km/h
2922 12-09-2010 17:00:00 16.2 C 9.68 g/m*3 16.2 C 0 km/h
2923 12-09-2010 18:00:00 14.92 C 10.59 g/m*3 14.92 C 0 km/h
2924 12-09-2010 19:00:00 14.26 C 10.79 g/m*3 14.26 C 0 km/h
2925 12-09-2010 20:00:00 13.82 C 10.81 g/m*3 13.82 C 0 km/h
Sensor: Nr:Datum:Temp:Abs-Feuchte:Windchill:Wind:
Aussen-T/F 2926 12-09-2010 21:00:00 13.78 C 10.97 g/m*3 13.78 C 0 km/h
2927 12-09-2010 22:00:00 13.78 C 11.07 g/m*3 13.78 C 0 km/h
2928 12-09-2010 23:00:00 13.58 C 10.93 g/m*3 13.58 C 0 km/h
2929 13-09-2010 00:00:00 13.68 C 11 g/m*3 13.68 C 0 km/h
2930 13-09-2010 01:00:00 13.7 C 11.01 g/m*3 13.7 C 0 km/h
2931 13-09-2010 02:00:00 13.52 C 10.89 g/m*3 13.52 C 0 km/h
2932 13-09-2010 03:00:00 13.26 C 10.58 g/m*3 13.26 C 0 km/h
2933 13-09-2010 04:00:00 13 C 10.21 g/m*3 13 C 0 km/h
2934 13-09-2010 05:00:00 13.26 C 9.77 g/m*3 13.26 C 0 km/h
2935 13-09-2010 06:00:00 13.3 C 9.57 g/m*3 13.3 C 0 km/h
2936 13-09-2010 07:00:00 12.72 C 9.18 g/m*3 12.72 C 0 km/h
2937 13-09-2010 08:00:00 13.04 C 9.62 g/m*3 13.04 C 0 km/h
2938 13-09-2010 09:00:00 13.98 C 9.47 g/m*3 13.98 C 0 km/h
2939 13-09-2010 10:00:00 15.32 C 9.05 g/m*3 15.32 C 0 km/h
2940 13-09-2010 11:00:00 16.5 C 8.57 g/m*3 16.5 C 0 km/h
2941 13-09-2010 12:00:00 17.24 C 7.93 g/m*3 17.24 C 0 km/h
2942 13-09-2010 13:00:00 18.94 C 7.53 g/m*3 18.94 C 0 km/h
2943 13-09-2010 14:00:00 20.18 C 6.95 g/m*3 20.18 C 0 km/h
2944 13-09-2010 15:00:00 20.8 C 7.1 g/m*3 20.8 C 0 km/h
2945 13-09-2010 16:00:00 21.56 C 6.93 g/m*3 21.56 C 0 km/h
2946 13-09-2010 17:00:00 20.48 C 7.96 g/m*3 20.48 C 0 km/h
2947 13-09-2010 18:00:00 18.22 C 8.62 g/m*3 18.22 C 0 km/h
2948 13-09-2010 19:00:00 16.92 C 8.55 g/m*3 16.92 C 0 km/h
2949 13-09-2010 20:00:00 15.24 C 8.9 g/m*3 15.24 C 0 km/h
2950 13-09-2010 21:00:00 14.52 C 8.97 g/m*3 14.52 C 0 km/h
Sensor: Nr:Datum:Temp:Abs-Feuchte:Windchill:Wind:
Aussen-T/F 2951 13-09-2010 22:00:00 13.7 C 8.86 g/m*3 13.7 C 0 km/h
2952 13-09-2010 23:00:00 13.14 C 8.85 g/m*3 13.14 C 0 km/h
2953 14-09-2010 00:00:00 12.82 C 9.2 g/m*3 12.82 C 0 km/h
2954 14-09-2010 01:00:00 12.8 C 9.27 g/m*3 12.8 C 0 km/h
2955 14-09-2010 02:00:00 13.1 C 9.33 g/m*3 13.1 C 0 km/h
2956 14-09-2010 03:00:00 13.36 C 9.23 g/m*3 13.36 C 0 km/h
2957 14-09-2010 04:00:00 12.94 C 9.42 g/m*3 12.94 C 0 km/h
2958 14-09-2010 05:00:00 12.96 C 9.84 g/m*3 12.96 C 0 km/h
2959 14-09-2010 06:00:00 13.9 C 9.28 g/m*3 13.9 C 0 km/h
2960 14-09-2010 07:00:00 14.06 C 8.93 g/m*3 14.06 C 0 km/h
2961 14-09-2010 08:00:00 14.1 C 9.32 g/m*3 14.1 C 0 km/h
2962 14-09-2010 09:00:00 15.16 C 9.06 g/m*3 15.16 C 0 km/h
2963 14-09-2010 10:00:00 16.1 C 9.07 g/m*3 16.1 C 0 km/h
2964 14-09-2010 11:00:00 17.06 C 9.15 g/m*3 17.06 C 0 km/h
2965 14-09-2010 12:00:00 18.44 C 9.18 g/m*3 18.44 C 0 km/h
2966 14-09-2010 13:00:00 19.98 C 9.22 g/m*3 19.98 C 0 km/h
2967 14-09-2010 14:00:00 19.66 C 8.84 g/m*3 19.66 C 0 km/h
2968 14-09-2010 15:00:00 20.4 C 8.63 g/m*3 20.4 C 0 km/h
2969 14-09-2010 16:00:00 20.68 C 7.88 g/m*3 20.68 C 0 km/h
2970 14-09-2010 17:00:00 20.14 C 7.46 g/m*3 20.14 C 0 km/h
2971 14-09-2010 18:00:00 19.34 C 7.81 g/m*3 19.34 C 0 km/h
2972 14-09-2010 19:00:00 18.8 C 7.73 g/m*3 18.8 C 0 km/h
2973 14-09-2010 20:00:00 18.6 C 7.7 g/m*3 18.6 C 0 km/h
2974 14-09-2010 21:00:00 18.54 C 7.77 g/m*3 18.54 C 0 km/h
2975 14-09-2010 22:00:00 18.5 C 7.83 g/m*3 18.5 C 0 km/h
Sensor: Nr:Datum:Temp:Abs-Feuchte:Windchill:Wind:
Aussen-T/F 2976 14-09-2010 23:00:00 18.22 C 7.91 g/m*3 18.22 C 0 km/h
2977 15-09-2010 00:00:00 18.02 C 7.87 g/m*3 18.02 C 0 km/h
2978 15-09-2010 01:00:00 18.18 C 7.67 g/m*3 18.18 C 0 km/h
2979 15-09-2010 02:00:00 18.32 C 7.64 g/m*3 18.32 C 0 km/h
2980 15-09-2010 03:00:00 18.06 C 8.23 g/m*3 18.06 C 0 km/h
2981 15-09-2010 04:00:00 17.7 C 9.11 g/m*3 17.7 C 0 km/h
2982 15-09-2010 05:00:00 15 C 9.75 g/m*3 15 C 0 km/h
2983 15-09-2010 06:00:00 12.78 C 10.09 g/m*3 12.78 C 0 km/h
2984 15-09-2010 07:00:00 12.74 C 10.29 g/m*3 12.74 C 0 km/h
2985 15-09-2010 08:00:00 12.7 C 10.35 g/m*3 12.7 C 0 km/h
2986 15-09-2010 09:00:00 12.92 C 10.36 g/m*3 12.92 C 0 km/h
2987 15-09-2010 10:00:00 14.06 C 9.95 g/m*3 14.06 C 0 km/h
2988 15-09-2010 11:00:00 15.02 C 8.86 g/m*3 15.02 C 0 km/h
2989 15-09-2010 12:00:00 16.5 C 7.02 g/m*3 16.5 C 0 km/h
2990 15-09-2010 13:00:00 17.24 C 6.31 g/m*3 17.24 C 0 km/h
2991 15-09-2010 14:00:00 18.38 C 5.66 g/m*3 18.38 C 0 km/h
2992 15-09-2010 15:00:00 19.52 C 5.75 g/m*3 19.52 C 0 km/h
2993 15-09-2010 16:00:00 19.52 C 5.98 g/m*3 19.52 C 0 km/h
2994 15-09-2010 17:00:00 19.68 C 5.8 g/m*3 19.68 C 0 km/h
2995 15-09-2010 18:00:00 17.84 C 5.32 g/m*3 17.84 C 0 km/h
2996 15-09-2010 19:00:00 16.6 C 5.65 g/m*3 16.6 C 0 km/h
2997 15-09-2010 20:00:00 15.84 C 6.26 g/m*3 15.84 C 0 km/h
2998 15-09-2010 21:00:00 15.18 C 6.38 g/m*3 15.18 C 0 km/h
2999 15-09-2010 22:00:00 14.96 C 5.96 g/m*3 14.96 C 0 km/h
3000 15-09-2010 23:00:00 14.86 C 5.64 g/m*3 14.86 C 0 km/h
Sensor: Nr:Datum:Temp:Abs-Feuchte:Windchill:Wind:
Aussen-T/F 3001 16-09-2010 00:00:00 14.18 C 5.9 g/m*3 14.18 C 0 km/h
3002 16-09-2010 01:00:00 14.1 C 5.41 g/m*3 14.1 C 0 km/h
3003 16-09-2010 02:00:00 13.94 C 5.79 g/m*3 13.94 C 0 km/h
3004 16-09-2010 03:00:00 13.84 C 6.71 g/m*3 13.84 C 0 km/h
3005 16-09-2010 04:00:00 13.58 C 6.98 g/m*3 13.58 C 0 km/h
3006 16-09-2010 05:00:00 13.36 C 7.26 g/m*3 13.36 C 0 km/h
3007 16-09-2010 06:00:00 12.44 C 8.08 g/m*3 12.44 C 0 km/h
3008 16-09-2010 07:00:00 11.78 C 8.68 g/m*3 11.78 C 0 km/h
3009 16-09-2010 08:00:00 11.86 C 8.83 g/m*3 11.86 C 0 km/h
3010 16-09-2010 09:00:00 12.64 C 9.25 g/m*3 12.64 C 0 km/h
3011 16-09-2010 10:00:00 14.12 C 8.65 g/m*3 14.12 C 0 km/h
3012 16-09-2010 11:00:00 15.26 C 8.23 g/m*3 15.26 C 0 km/h
3013 16-09-2010 12:00:00 17.02 C 7.68 g/m*3 17.02 C 0 km/h
3014 16-09-2010 13:00:00 17.32 C 7.17 g/m*3 17.32 C 0 km/h
3015 16-09-2010 14:00:00 15.28 C 8.71 g/m*3 15.28 C 0 km/h
3016 16-09-2010 15:00:00 17.22 C 9.15 g/m*3 17.22 C 0 km/h
3017 16-09-2010 16:00:00 16.36 C 8.49 g/m*3 16.36 C 0 km/h
3018 16-09-2010 17:00:00 15.3 C 9.51 g/m*3 15.3 C 0 km/h
3019 16-09-2010 18:00:00 14.9 C 8.95 g/m*3 14.9 C 0 km/h
3020 16-09-2010 19:00:00 13.42 C 9.68 g/m*3 13.42 C 0 km/h
3021 16-09-2010 20:00:00 12.84 C 10.02 g/m*3 12.84 C 0 km/h
3022 16-09-2010 21:00:00 12.62 C 10.08 g/m*3 12.62 C 0 km/h
3023 16-09-2010 22:00:00 12.2 C 9.58 g/m*3 12.2 C 0 km/h
3024 16-09-2010 23:00:00 12.1 C 9.29 g/m*3 12.1 C 0 km/h
3025 17-09-2010 00:00:00 12.16 C 9.24 g/m*3 12.16 C 0 km/h
Sensor: Nr:Datum:Temp:Abs-Feuchte:Windchill:Wind:
Aussen-T/F 3026 17-09-2010 01:00:00 12.06 C 9.26 g/m*3 12.06 C 0 km/h
3027 17-09-2010 02:00:00 11.96 C 9.29 g/m*3 11.96 C 0 km/h
3028 17-09-2010 03:00:00 12.06 C 8.94 g/m*3 12.06 C 0 km/h
3029 17-09-2010 04:00:00 11.94 C 8.73 g/m*3 11.94 C 0 km/h
3030 17-09-2010 05:00:00 11.2 C 8.23 g/m*3 11.2 C 0 km/h
3031 17-09-2010 06:00:00 10.6 C 8.59 g/m*3 10.6 C 0 km/h
3032 17-09-2010 07:00:00 10.02 C 8.15 g/m*3 10.02 C 0 km/h
3033 17-09-2010 08:00:00 10.22 C 7.66 g/m*3 10.22 C 0 km/h
3034 17-09-2010 09:00:00 10.86 C 7.28 g/m*3 10.86 C 0 km/h
3035 17-09-2010 10:00:00 12.06 C 7.55 g/m*3 12.06 C 0 km/h
3036 17-09-2010 11:00:00 13.72 C 7.56 g/m*3 13.72 C 0 km/h
3037 17-09-2010 12:00:00 15.7 C 6.58 g/m*3 15.7 C 0 km/h
3038 17-09-2010 13:00:00 16.66 C 5.9 g/m*3 16.66 C 0 km/h
3039 17-09-2010 14:00:00 17.62 C 5.29 g/m*3 17.62 C 0 km/h
3040 17-09-2010 15:00:00 17.48 C 5.06 g/m*3 17.48 C 0 km/h
3041 17-09-2010 16:00:00 19.06 C 4.94 g/m*3 19.06 C 0 km/h
3042 17-09-2010 17:00:00 19.46 C 4.45 g/m*3 19.46 C 0 km/h
3043 17-09-2010 18:00:00 16.66 C 6.1 g/m*3 16.66 C 0 km/h
3044 17-09-2010 19:00:00 15.24 C 6.69 g/m*3 15.24 C 0 km/h
3045 17-09-2010 20:00:00 14.26 C 7.06 g/m*3 14.26 C 0 km/h
3046 17-09-2010 21:00:00 13.48 C 7.15 g/m*3 13.48 C 0 km/h
3047 17-09-2010 22:00:00 13.34 C 6.72 g/m*3 13.34 C 0 km/h
3048 17-09-2010 23:00:00 12.58 C 6.81 g/m*3 12.58 C 0 km/h
3049 18-09-2010 00:00:00 12.12 C 6.94 g/m*3 12.12 C 0 km/h
3050 18-09-2010 01:00:00 10.9 C 7 g/m*3 10.9 C 0 km/h
Sensor: Nr:Datum:Temp:Abs-Feuchte:Windchill:Wind:
Aussen-T/F 3051 18-09-2010 02:00:00 10 C 7.2 g/m*3 10 C 0 km/h
3052 18-09-2010 03:00:00 9.38 C 7.3 g/m*3 9.38 C 0 km/h
3053 18-09-2010 04:00:00 8.54 C 7.19 g/m*3 8.54 C 0 km/h
3054 18-09-2010 05:00:00 7.94 C 7.18 g/m*3 7.94 C 0 km/h
3055 18-09-2010 06:00:00 7.62 C 7.36 g/m*3 7.62 C 0 km/h
3056 18-09-2010 07:00:00 7.5 C 7.3 g/m*3 7.5 C 0 km/h
3057 18-09-2010 08:00:00 7.46 C 7.23 g/m*3 7.46 C 0 km/h
3058 18-09-2010 09:00:00 8.12 C 7.55 g/m*3 8.12 C 0 km/h
3059 18-09-2010 10:00:00 10.2 C 8.18 g/m*3 10.2 C 0 km/h
3060 18-09-2010 11:00:00 13.46 C 6.65 g/m*3 13.46 C 0 km/h
3061 18-09-2010 12:00:00 15.14 C 5.92 g/m*3 15.14 C 0 km/h
3062 18-09-2010 13:00:00 15.6 C 5.43 g/m*3 15.6 C 0 km/h
3063 18-09-2010 14:00:00 15.26 C 4.77 g/m*3 15.26 C 0 km/h
3064 18-09-2010 15:00:00 16.3 C 4.58 g/m*3 16.3 C 0 km/h
3065 18-09-2010 16:00:00 16.22 C 4.86 g/m*3 16.22 C 0 km/h
3066 18-09-2010 17:00:00 15.86 C 5.73 g/m*3 15.86 C 0 km/h
3067 18-09-2010 18:00:00 15.66 C 6.06 g/m*3 15.66 C 0 km/h
3068 18-09-2010 19:00:00 13.26 C 6.08 g/m*3 13.26 C 0 km/h
3069 18-09-2010 20:00:00 11.08 C 6.6 g/m*3 11.08 C 0 km/h
3070 18-09-2010 21:00:00 10.02 C 6.62 g/m*3 10.02 C 0 km/h
3071 18-09-2010 22:00:00 8.98 C 6.69 g/m*3 8.98 C 0 km/h
3072 18-09-2010 23:00:00 8.2 C 6.77 g/m*3 8.2 C 0 km/h
3073 19-09-2010 00:00:00 7.56 C 6.72 g/m*3 7.56 C 0 km/h
3074 19-09-2010 01:00:00 6.92 C 6.54 g/m*3 6.92 C 0 km/h
3075 19-09-2010 02:00:00 6.44 C 6.53 g/m*3 6.44 C 0 km/h
Sensor: Nr:Datum:Temp:Abs-Feuchte:Windchill:Wind:
Aussen-T/F 3076 19-09-2010 03:00:00 6.42 C 6.57 g/m*3 6.42 C 0 km/h
3077 19-09-2010 04:00:00 6.2 C 6.5 g/m*3 6.2 C 0 km/h
3078 19-09-2010 05:00:00 6.04 C 6.42 g/m*3 6.04 C 0 km/h
3079 19-09-2010 06:00:00 5.76 C 6.33 g/m*3 5.76 C 0 km/h
3080 19-09-2010 07:00:00 6 C 6.46 g/m*3 6 C 0 km/h
3081 19-09-2010 08:00:00 6.96 C 6.79 g/m*3 6.96 C 0 km/h
3082 19-09-2010 09:00:00 8.12 C 6.98 g/m*3 8.12 C 0 km/h
3083 19-09-2010 10:00:00 10.72 C 6.69 g/m*3 10.72 C 0 km/h
3084 19-09-2010 11:00:00 12.92 C 6.27 g/m*3 12.92 C 0 km/h
3085 19-09-2010 12:00:00 14.94 C 5.67 g/m*3 14.94 C 0 km/h
3086 19-09-2010 13:00:00 16.12 C 5.54 g/m*3 16.12 C 0 km/h
3087 19-09-2010 14:00:00 17.38 C 5.68 g/m*3 17.38 C 0 km/h
3088 19-09-2010 15:00:00 18.62 C 5.45 g/m*3 18.62 C 0 km/h
3089 19-09-2010 16:00:00 19.04 C 5.29 g/m*3 19.04 C 0 km/h
3090 19-09-2010 17:00:00 18.78 C 5.69 g/m*3 18.78 C 0 km/h
3091 19-09-2010 18:00:00 17.08 C 5.99 g/m*3 17.08 C 0 km/h
3092 19-09-2010 19:00:00 15.78 C 5.97 g/m*3 15.78 C 0 km/h
3093 19-09-2010 20:00:00 14.46 C 6.3 g/m*3 14.46 C 0 km/h
3094 19-09-2010 21:00:00 13.96 C 6.62 g/m*3 13.96 C 0 km/h
3095 19-09-2010 22:00:00 13.32 C 6.78 g/m*3 13.32 C 0 km/h
3096 19-09-2010 23:00:00 12.28 C 6.77 g/m*3 12.28 C 0 km/h
3097 20-09-2010 00:00:00 11.68 C 6.87 g/m*3 11.68 C 0 km/h
3098 20-09-2010 01:00:00 10.44 C 6.78 g/m*3 10.44 C 0 km/h
3099 20-09-2010 02:00:00 9.84 C 6.88 g/m*3 9.84 C 0 km/h
3100 20-09-2010 03:00:00 9.64 C 7.02 g/m*3 9.64 C 0 km/h
Sensor: Nr:Datum:Temp:Abs-Feuchte:Windchill:Wind:
Aussen-T/F 3101 20-09-2010 04:00:00 8.98 C 6.89 g/m*3 8.98 C 0 km/h
3102 20-09-2010 05:00:00 8.32 C 6.89 g/m*3 8.32 C 0 km/h
3103 20-09-2010 06:00:00 8.48 C 7.03 g/m*3 8.48 C 0 km/h
3104 20-09-2010 07:00:00 8.52 C 7.1 g/m*3 8.52 C 0 km/h
3105 20-09-2010 08:00:00 9.18 C 6.87 g/m*3 9.18 C 0 km/h
3106 20-09-2010 09:00:00 9.84 C 6.92 g/m*3 9.84 C 0 km/h
3107 20-09-2010 10:00:00 12.4 C 7.21 g/m*3 12.4 C 0 km/h
3108 20-09-2010 11:00:00 14.62 C 6.99 g/m*3 14.62 C 0 km/h
3109 20-09-2010 12:00:00 16.26 C 6.34 g/m*3 16.26 C 0 km/h
3110 20-09-2010 13:00:00 18.02 C 6.12 g/m*3 18.02 C 0 km/h
3111 20-09-2010 14:00:00 20.02 C 5.81 g/m*3 20.02 C 0 km/h
3112 20-09-2010 15:00:00 21.42 C 5.86 g/m*3 21.42 C 0 km/h
3113 20-09-2010 16:00:00 22.46 C 6.22 g/m*3 22.46 C 0 km/h
3114 20-09-2010 17:00:00 22.28 C 6.11 g/m*3 22.28 C 0 km/h
3115 20-09-2010 18:00:00 21.3 C 6.67 g/m*3 21.3 C 0 km/h
3116 20-09-2010 19:00:00 17.5 C 7.19 g/m*3 17.5 C 0 km/h
3117 20-09-2010 20:00:00 15.34 C 7.54 g/m*3 15.34 C 0 km/h
3118 20-09-2010 21:00:00 14.2 C 7.72 g/m*3 14.2 C 0 km/h
3119 20-09-2010 22:00:00 13.22 C 8.07 g/m*3 13.22 C 0 km/h
3120 20-09-2010 23:00:00 12.28 C 8.05 g/m*3 12.28 C 0 km/h
3121 21-09-2010 00:00:00 11.52 C 7.88 g/m*3 11.52 C 0 km/h
3122 21-09-2010 01:00:00 10.9 C 7.8 g/m*3 10.9 C 0 km/h
3123 21-09-2010 02:00:00 10.24 C 7.69 g/m*3 10.24 C 0 km/h
3124 21-09-2010 03:00:00 9.74 C 7.71 g/m*3 9.74 C 0 km/h
3125 21-09-2010 04:00:00 9.22 C 7.51 g/m*3 9.22 C 0 km/h
Sensor: Nr:Datum:Temp:Abs-Feuchte:Windchill:Wind:
Aussen-T/F 3126 21-09-2010 05:00:00 8.78 C 7.46 g/m*3 8.78 C 0 km/h
3127 21-09-2010 06:00:00 8.34 C 7.37 g/m*3 8.34 C 0 km/h
3128 21-09-2010 07:00:00 8.14 C 7.34 g/m*3 8.14 C 0 km/h
3129 21-09-2010 08:00:00 8.26 C 7.53 g/m*3 8.26 C 0 km/h
3130 21-09-2010 09:00:00 9.18 C 7.97 g/m*3 9.18 C 0 km/h
3131 21-09-2010 10:00:00 11.12 C 8.71 g/m*3 11.12 C 0 km/h
3132 21-09-2010 11:00:00 14.12 C 8.65 g/m*3 14.12 C 0 km/h
3133 21-09-2010 12:00:00 16.14 C 8.99 g/m*3 16.14 C 0 km/h
3134 21-09-2010 13:00:00 17.02 C 9.65 g/m*3 17.02 C 0 km/h
3135 21-09-2010 14:00:00 17.82 C 9.48 g/m*3 17.82 C 0 km/h
3136 21-09-2010 15:00:00 23.12 C 8.2 g/m*3 23.12 C 0 km/h
3137 21-09-2010 16:00:00 25.16 C 7.62 g/m*3 25.16 C 0 km/h
3138 21-09-2010 17:00:00 24.6 C 7.56 g/m*3 24.6 C 0 km/h
3139 21-09-2010 18:00:00 22.18 C 7.88 g/m*3 22.18 C 0 km/h
3140 21-09-2010 19:00:00 18.64 C 8.36 g/m*3 18.64 C 0 km/h
3141 21-09-2010 20:00:00 16.3 C 8.52 g/m*3 16.3 C 0 km/h
3142 21-09-2010 21:00:00 15.06 C 8.49 g/m*3 15.06 C 0 km/h
3143 21-09-2010 22:00:00 13.9 C 8.51 g/m*3 13.9 C 0 km/h
3144 21-09-2010 23:00:00 12.98 C 8.54 g/m*3 12.98 C 0 km/h
3145 22-09-2010 00:00:00 12.2 C 8.55 g/m*3 12.2 C 0 km/h
3146 22-09-2010 01:00:00 11.5 C 8.41 g/m*3 11.5 C 0 km/h
3147 22-09-2010 02:00:00 10.78 C 8.15 g/m*3 10.78 C 0 km/h
3148 22-09-2010 03:00:00 10.22 C 8 g/m*3 10.22 C 0 km/h
3149 22-09-2010 04:00:00 9.72 C 7.94 g/m*3 9.72 C 0 km/h
3150 22-09-2010 05:00:00 9.84 C 8.15 g/m*3 9.84 C 0 km/h
Sensor: Nr:Datum:Temp:Abs-Feuchte:Windchill:Wind:
Aussen-T/F 3151 22-09-2010 06:00:00 9.78 C 8.15 g/m*3 9.78 C 0 km/h
3152 22-09-2010 07:00:00 9.56 C 8.04 g/m*3 9.56 C 0 km/h
3153 22-09-2010 08:00:00 9.36 C 7.96 g/m*3 9.36 C 0 km/h
3154 22-09-2010 09:00:00 10.18 C 8.15 g/m*3 10.18 C 0 km/h
3155 22-09-2010 10:00:00 12.42 C 8.64 g/m*3 12.42 C 0 km/h
3156 22-09-2010 11:00:00 13.78 C 9.19 g/m*3 13.78 C 0 km/h
3157 22-09-2010 12:00:00 16.54 C 9.97 g/m*3 16.54 C 0 km/h
3158 22-09-2010 13:00:00 19.76 C 10.09 g/m*3 19.76 C 0 km/h
3159 22-09-2010 14:00:00 22.86 C 10.07 g/m*3 22.86 C 0 km/h
3160 22-09-2010 15:00:00 25.06 C 9.29 g/m*3 25.06 C 0 km/h
3161 22-09-2010 16:00:00 27.32 C 8.59 g/m*3 27.32 C 0 km/h
3162 22-09-2010 17:00:00 27.06 C 8.16 g/m*3 27.06 C 0 km/h
3163 22-09-2010 18:00:00 24.88 C 9.1 g/m*3 24.88 C 0 km/h
3164 22-09-2010 19:00:00 20.88 C 9.2 g/m*3 20.88 C 0 km/h
3165 22-09-2010 20:00:00 18.54 C 9.1 g/m*3 18.54 C 0 km/h
3166 22-09-2010 21:00:00 17.46 C 9.31 g/m*3 17.46 C 0 km/h
3167 22-09-2010 22:00:00 16.18 C 9.26 g/m*3 16.18 C 0 km/h
3168 22-09-2010 23:00:00 14.92 C 8.78 g/m*3 14.92 C 0 km/h
3169 23-09-2010 00:00:00 14.02 C 8.65 g/m*3 14.02 C 0 km/h
3170 23-09-2010 01:00:00 13.22 C 8.71 g/m*3 13.22 C 0 km/h
3171 23-09-2010 02:00:00 12.44 C 8.7 g/m*3 12.44 C 0 km/h
3172 23-09-2010 03:00:00 11.8 C 8.57 g/m*3 11.8 C 0 km/h
3173 23-09-2010 04:00:00 11.16 C 8.39 g/m*3 11.16 C 0 km/h
3174 23-09-2010 05:00:00 10.64 C 8.22 g/m*3 10.64 C 0 km/h
3175 23-09-2010 06:00:00 10.46 C 8.2 g/m*3 10.46 C 0 km/h
Sensor: Nr:Datum:Temp:Abs-Feuchte:Windchill:Wind:
Aussen-T/F 3176 23-09-2010 07:00:00 10.52 C 8.25 g/m*3 10.52 C 0 km/h
3177 23-09-2010 08:00:00 10.88 C 8.42 g/m*3 10.88 C 0 km/h
3178 23-09-2010 09:00:00 11.64 C 8.65 g/m*3 11.64 C 0 km/h
3179 23-09-2010 10:00:00 12.98 C 9.24 g/m*3 12.98 C 0 km/h
3180 23-09-2010 11:00:00 15.64 C 10.08 g/m*3 15.64 C 0 km/h
3181 23-09-2010 12:00:00 18.66 C 10.61 g/m*3 18.66 C 0 km/h
3182 23-09-2010 13:00:00 22.3 C 10.7 g/m*3 22.3 C 0 km/h
3183 23-09-2010 14:00:00 24.06 C 10.22 g/m*3 24.06 C 0 km/h
3184 23-09-2010 15:00:00 25.04 C 9.37 g/m*3 25.04 C 0 km/h
3185 23-09-2010 16:00:00 25.14 C 9.88 g/m*3 25.14 C 0 km/h
3186 23-09-2010 17:00:00 23.48 C 10.73 g/m*3 23.48 C 0 km/h
3187 23-09-2010 18:00:00 22.12 C 10.63 g/m*3 22.12 C 0 km/h
3188 23-09-2010 19:00:00 19.9 C 11.06 g/m*3 19.9 C 0 km/h
3189 23-09-2010 20:00:00 18.5 C 11.3 g/m*3 18.5 C 0 km/h
3190 23-09-2010 21:00:00 18.5 C 11.49 g/m*3 18.5 C 0 km/h
3191 23-09-2010 22:00:00 17.94 C 11.82 g/m*3 17.94 C 0 km/h
3192 23-09-2010 23:00:00 16.44 C 12.26 g/m*3 16.44 C 0 km/h
3193 24-09-2010 00:00:00 15.7 C 12.18 g/m*3 15.7 C 0 km/h
3194 24-09-2010 01:00:00 15.54 C 12.3 g/m*3 15.54 C 0 km/h
3195 24-09-2010 02:00:00 15.38 C 12.15 g/m*3 15.38 C 0 km/h
3196 24-09-2010 03:00:00 14.94 C 11.91 g/m*3 14.94 C 0 km/h
3197 24-09-2010 04:00:00 14.78 C 11.89 g/m*3 14.78 C 0 km/h
3198 24-09-2010 05:00:00 14.54 C 11.72 g/m*3 14.54 C 0 km/h
3199 24-09-2010 06:00:00 14.7 C 11.83 g/m*3 14.7 C 0 km/h
3200 24-09-2010 07:00:00 14.4 C 11.62 g/m*3 14.4 C 0 km/h
Sensor: Nr:Datum:Temp:Abs-Feuchte:Windchill:Wind:
Aussen-T/F 3201 24-09-2010 08:00:00 14.58 C 11.82 g/m*3 14.58 C 0 km/h
3202 24-09-2010 09:00:00 14.88 C 12.07 g/m*3 14.88 C 0 km/h
3203 24-09-2010 10:00:00 14.98 C 12.06 g/m*3 14.98 C 0 km/h
3204 24-09-2010 11:00:00 15.22 C 12